GFSSW_925_spd_003.txt.gz
Wind_Speed
8 8 9 7 7 3 2 2 4 3 2 1 2 2 3 2 3 5 13 10 10 11 8 9 4 2 5 3 2 9 5 7 4 2 5 4 3 5 1 1 1 2 5 7 12
6 7 6 5 4 1 4 5 6 5 4 2 3 2 3 5 4 15 12 12 11 9 9 9 6 6 3 3 2 9 5 7 4 3 6 2 6 4 6 6 6 4 3 6 9
4 3 2 1 2 4 5 6 8 7 6 6 4 3 3 7 2 16 12 11 11 8 8 4 5 3 4 5 5 9 10 1 4 8 9 10 6 3 9 9 1 6 8 8 10
6 5 4 4 5 5 7 8 8 9 7 7 4 3 5 6 3 10 9 11 9 9 8 3 3 2 5 5 4 8 6 6 7 6 7 8 9 8 7 8 6 5 6 9 9
6 5 5 6 6 7 8 7 9 9 8 11 9 5 4 7 8 8 10 9 5 5 6 5 5 4 5 3 3 5 4 2 1 2 4 5 7 8 10 1 3 2 5 8 8
6 4 6 8 7 6 7 8 8 9 11 12 10 4 6 11 5 7 8 7 8 6 9 9 7 10 3 4 6 2 1 0 3 2 4 9 12 6 11 6 8 9 10 11 10
7 7 9 9 8 7 6 6 9 11 11 11 6 4 13 7 6 6 5 7 7 7 9 7 5 6 2 3 3 1 10 5 4 4 8 10 19 10 6 8 11 13 13 13 12
8 9 10 10 10 8 6 8 9 10 9 7 2 6 7 4 5 8 7 6 6 5 5 6 2 3 4 2 3 6 7 7 6 4 3 8 13 5 9 10 12 12 13 14 15
7 8 8 9 8 5 5 7 9 10 8 3 2 4 6 2 3 7 8 6 3 2 2 3 3 1 7 7 10 4 9 7 8 2 7 7 17 11 7 11 14 14 13 14 14
5 6 6 6 7 9 9 10 8 4 1 2 2 6 5 4 5 8 6 7 5 6 8 3 5 8 7 11 8 10 10 11 12 7 10 16 19 15 15 14 14 13 13 13 13
3 4 6 5 5 2 1 2 6 4 12 9 7 7 4 2 3 8 10 7 6 5 5 3 5 8 10 8 5 7 11 14 12 7 12 13 20 15 9 6 4 6 5 8 9
4 1 2 4 3 1 3 5 6 4 7 8 6 7 4 4 3 12 14 5 3 6 7 7 7 7 7 5 9 12 13 11 11 14 17 17 18 10 6 5 3 2 3 1 2
6 0 2 1 2 4 6 6 3 5 2 5 4 6 3 6 4 10 12 5 5 3 5 5 7 4 6 6 14 14 10 16 18 19 17 13 12 6 6 7 6 6 5 4 3
9 3 2 2 2 4 4 2 3 5 4 3 1 4 3 2 1 7 8 4 2 5 6 5 2 5 6 5 11 12 10 15 18 17 9 12 7 3 3 7 6 4 4 5 5
10 5 4 3 4 2 1 2 3 3 3 3 3 4 3 3 5 5 5 3 4 4 5 5 3 5 4 7 9 9 16 16 15 12 11 3 6 4 5 2 2 2 4 5 7
13 7 5 3 4 3 1 2 3 4 2 4 1 1 3 4 3 4 4 1 2 3 3 3 1 3 5 9 5 14 19 20 1 6 6 6 3 11 5 2 2 4 5 5 8
14 13 7 3 3 2 2 3 4 4 2 4 1 1 1 4 2 5 4 9 6 4 0 5 4 3 5 12 3 14 13 5 3 5 8 4 7 13 7 4 4 4 6 6 8
4 12 11 8 3 1 3 4 5 4 1 3 0 1 2 7 3 4 3 2 9 9 7 5 3 2 7 5 7 8 8 3 5 6 13 17 8 5 1 4 4 3 6 7 7
2 4 7 7 2 1 5 4 3 1 3 1 2 4 3 1 5 4 5 4 6 11 7 5 1 3 0 4 6 3 5 5 6 9 6 8 12 16 13 1 1 8 9 9 12
1 1 6 4 1 3 1 2 1 2 1 2 3 3 3 3 3 4 4 4 3 7 7 4 7 2 1 6 9 8 7 5 4 5 11 10 16 11 6 8 6 10 10 12 14
1 3 6 1 1 3 1 3 6 5 4 5 2 1 3 4 5 4 3 4 3 5 5 6 2 6 13 5 14 7 9 4 5 7 6 10 7 11 22 23 17 11 13 16 15
2 1 6 1 2 0 2 3 2 4 2 3 3 4 4 4 4 3 4 5 4 7 7 5 5 7 15 14 4 6 9 10 8 8 9 15 18 20 14 7 8 15 15 15 15
2 3 3 1 2 2 6 6 5 2 4 2 2 4 3 4 3 2 2 3 6 4 8 8 2 7 9 5 5 7 9 12 13 11 19 10 13 8 21 28 24 21 23 20 18
2 2 3 3 4 6 7 5 5 3 4 2 2 1 1 3 0 4 6 2 2 9 7 4 8 10 11 18 19 20 24 26 20 10 23 21 36 31 27 27 27 25 21 18 18
3 2 2 2 3 3 2 1 5 3 1 2 2 2 2 2 6 4 4 10 7 1 3 6 11 15 19 22 22 23 26 31 26 26 22 33 30 32 29 27 22 21 19 19 23
2 2 1 3 2 2 2 1 2 3 2 2 5 2 4 5 6 13 13 11 9 4 8 5 5 9 17 23 21 21 25 30 27 28 29 30 33 24 24 20 21 19 20 25 27
2 2 1 2 2 2 3 4 3 0 2 5 4 5 6 11 11 12 14 15 16 18 17 11 3 2 7 14 9 11 18 17 16 20 23 20 23 24 21 17 19 25 27 26 25

GFSSW_925_spd_006.txt.gz
Wind_Speed
9 9 9 8 8 5 4 3 4 4 3 1 1 1 4 8 9 4 10 8 10 14 15 13 15 8 14 1 8 11 6 8 8 10 6 6 7 7 1 5 3 7 11 13 15
7 7 8 8 7 4 5 6 6 7 6 4 3 4 7 10 10 12 11 12 12 15 16 16 1 5 2 2 6 7 7 14 8 7 11 4 2 7 4 7 9 6 5 6 10
5 5 5 4 2 3 4 5 6 7 6 6 5 6 8 10 3 11 11 12 11 12 11 15 11 1 7 5 9 15 13 4 6 10 9 10 9 4 7 9 12 5 10 5 6
3 3 2 3 5 5 5 6 6 7 6 6 6 8 10 7 4 6 9 9 6 7 14 15 6 5 7 7 4 9 7 7 9 5 6 8 10 8 8 8 6 3 3 6 6
5 3 4 5 5 6 5 6 6 6 7 7 9 11 4 4 7 5 7 8 7 9 7 5 6 8 7 3 3 6 3 2 2 3 2 7 10 6 8 10 3 3 2 6 6
5 4 4 6 6 6 5 5 6 5 6 8 8 7 5 7 4 4 6 7 8 8 9 11 7 6 5 6 8 4 4 2 2 3 6 8 12 10 9 6 3 6 8 8 8
6 4 7 8 8 7 5 4 6 6 6 3 3 6 4 5 3 5 2 5 6 9 10 9 6 6 6 1 4 4 9 12 8 2 9 8 16 16 7 9 7 9 10 10 11
6 6 8 8 8 7 5 5 6 5 3 1 6 2 3 3 6 7 9 4 5 6 7 7 3 1 5 1 6 12 7 7 5 3 3 5 13 8 7 10 11 11 11 12 13
7 7 7 7 5 5 5 6 5 3 1 5 7 8 6 3 2 7 5 8 6 4 3 5 7 4 4 10 9 2 10 11 8 5 2 6 15 15 15 11 12 12 11 11 14
6 6 5 3 4 6 5 5 6 4 5 6 13 2 2 3 4 8 7 7 8 9 10 5 5 8 9 10 9 10 10 11 12 9 9 12 15 14 15 15 12 10 11 11 7
5 5 6 4 3 2 2 3 5 4 7 10 8 5 4 1 6 9 12 8 6 8 5 6 7 8 8 8 9 10 13 15 15 8 16 16 17 15 5 7 7 7 7 7 5
3 2 4 3 2 4 6 6 6 5 3 3 4 5 2 6 4 12 16 5 5 6 6 7 5 6 6 6 9 15 14 12 12 17 15 18 19 14 8 6 6 4 6 7 6
5 0 1 1 2 3 5 6 5 7 5 2 2 4 3 7 4 10 11 8 5 4 5 5 7 5 6 6 10 14 8 13 17 18 15 12 12 10 6 11 8 6 5 6 5
7 3 2 2 2 3 3 5 7 6 4 5 3 3 3 3 1 4 8 4 3 5 6 5 3 5 8 6 10 10 13 16 17 14 9 15 7 5 11 11 10 7 6 5 5
9 5 3 2 3 1 2 4 6 2 2 2 4 4 2 4 7 4 3 4 5 7 4 4 5 7 10 6 9 10 16 19 20 14 10 4 5 11 7 8 11 9 6 6 5
12 5 5 2 2 2 2 3 3 4 1 4 1 2 4 4 3 4 3 3 2 4 4 3 1 2 7 11 13 12 17 20 4 0 3 6 2 10 6 4 5 4 6 7 6
13 9 7 3 3 1 2 3 4 2 1 5 2 2 2 4 2 4 4 10 9 6 4 6 7 5 4 12 10 15 13 4 4 2 4 14 10 11 16 0 3 7 7 5 2
6 9 10 7 2 1 2 3 3 5 3 3 2 1 3 7 5 5 8 3 14 13 10 6 3 2 6 4 6 14 7 2 4 4 10 18 6 7 4 5 6 4 2 7 3
3 2 5 8 4 2 3 2 3 6 4 6 2 5 7 3 3 4 5 6 7 12 7 6 2 7 3 3 5 6 4 6 5 9 4 5 13 14 6 7 8 8 9 6 5
5 2 6 6 3 3 2 4 2 4 4 3 3 3 5 6 5 5 5 6 4 6 8 4 7 9 2 8 12 7 7 3 1 3 6 8 15 10 13 17 21 15 9 9 7
3 2 6 3 2 4 1 3 4 4 5 6 5 2 3 5 5 5 4 8 8 9 10 6 2 8 13 2 11 3 6 6 8 5 4 6 6 11 23 24 12 16 16 15 8
4 0 5 1 1 3 2 2 3 4 1 4 4 6 5 5 5 5 4 6 7 9 7 6 4 5 18 17 3 5 8 8 3 8 9 12 14 17 13 9 24 20 13 12 9
3 3 2 1 2 2 5 4 5 1 4 3 3 4 3 4 3 4 5 4 7 6 7 9 3 5 8 5 3 12 19 18 16 2 8 7 10 12 22 22 20 18 14 13 10
2 3 3 3 3 6 5 4 3 3 3 2 2 1 2 4 2 5 7 3 1 6 7 1 6 6 8 15 18 19 22 24 20 12 17 15 28 21 20 20 16 12 14 14 13
2 2 3 2 2 4 3 1 4 2 1 2 1 2 3 3 6 4 5 9 9 4 2 3 6 11 17 19 20 23 25 24 23 21 19 24 22 23 19 18 12 13 15 17 17
4 2 1 2 2 1 2 1 2 4 3 3 3 4 4 5 3 11 12 11 8 11 5 3 4 3 7 19 20 19 22 25 25 22 21 20 21 16 17 14 16 18 20 18 15
2 1 3 1 2 1 2 2 1 4 4 3 6 8 6 8 9 11 12 14 16 17 15 14 3 2 8 9 11 11 14 16 13 17 17 16 21 18 15 15 16 19 17 13 17

GFSSW_925_spd_009.txt.gz
Wind_Speed
12 12 12 11 11 7 5 5 6 5 3 2 2 5 9 12 11 5 5 8 11 13 16 21 21 22 20 5 5 0 4 4 6 7 4 2 5 3 2 3 2 5 9 7 12
10 11 12 10 7 5 5 5 6 6 4 1 2 4 8 13 12 6 9 11 11 13 15 12 10 13 2 3 6 7 5 5 5 5 5 6 7 2 4 5 2 7 12 24 20
7 8 6 3 2 4 4 6 6 5 4 2 1 4 7 13 3 3 9 8 8 13 16 20 21 9 3 4 5 5 4 5 6 9 7 7 7 6 0 2 5 7 10 14 19
4 3 1 3 4 4 6 8 7 5 4 2 6 7 11 8 4 4 8 7 9 14 19 19 9 5 4 3 4 6 8 6 4 4 4 4 5 7 3 1 8 8 11 8 7
5 3 3 4 5 7 7 6 6 5 3 5 8 8 6 3 4 7 10 13 15 18 13 10 8 6 5 4 6 4 4 1 6 7 6 3 7 6 6 6 7 7 7 7 7
5 3 5 7 8 8 6 6 6 2 2 4 6 7 2 1 4 1 5 13 15 18 16 12 6 6 6 4 3 3 5 3 6 5 5 5 6 2 10 6 9 9 8 4 5
6 6 7 9 8 8 8 5 4 2 2 4 4 5 3 1 8 9 3 4 8 8 5 8 11 5 6 1 2 6 5 7 6 6 4 2 8 5 13 9 10 10 10 10 9
8 7 8 9 9 9 7 5 3 2 4 6 6 0 2 2 6 8 12 1 5 7 4 6 9 5 1 4 3 4 1 2 8 7 5 7 8 6 6 10 11 11 9 10 11
9 9 8 9 8 6 6 5 3 3 5 7 5 1 3 1 6 8 5 7 16 13 12 9 7 4 2 2 4 7 4 6 8 4 2 2 6 9 12 9 11 11 10 10 9
9 9 7 6 6 5 2 3 5 5 6 9 10 3 2 2 2 8 8 14 10 11 8 4 3 1 5 7 3 6 6 6 4 5 8 8 7 8 10 6 4 1 5 2 2
7 8 8 7 5 4 3 4 5 3 5 2 4 4 7 8 9 7 15 11 9 5 3 3 6 3 3 3 2 5 6 5 5 10 11 6 10 12 4 8 10 9 9 9 9
4 5 6 5 4 5 6 2 3 1 3 2 5 5 1 4 4 11 18 7 5 5 3 7 4 3 5 8 7 8 5 6 4 11 7 11 16 10 7 6 8 9 8 9 9
3 2 2 2 2 3 7 5 4 4 1 2 1 3 2 4 2 5 5 6 4 6 7 3 3 5 6 6 8 6 5 6 7 10 10 5 9 7 4 8 8 7 6 7 8
4 2 4 2 1 1 3 3 5 4 3 4 4 1 1 1 1 1 3 2 4 3 5 2 3 5 7 3 5 4 8 9 11 7 3 5 4 5 6 7 7 7 8 8 6
7 4 5 3 2 2 3 4 7 2 4 1 3 1 3 5 5 1 1 1 4 5 3 3 2 4 4 4 5 7 6 13 14 8 2 7 3 5 5 4 6 8 8 7 7
10 6 4 3 2 0 3 4 3 5 1 3 1 2 2 3 1 6 1 2 0 4 3 5 3 3 1 7 6 7 7 11 5 3 3 6 4 5 3 3 5 6 6 7 7
11 9 4 1 1 3 2 3 4 4 2 3 3 3 3 4 3 3 4 13 6 6 5 5 5 3 2 5 7 11 7 5 6 4 4 12 6 8 8 5 9 7 5 6 6
6 7 9 4 1 0 2 5 2 3 6 2 2 4 3 4 1 4 5 4 9 7 3 5 5 6 7 3 4 6 3 4 2 2 5 8 3 4 10 12 7 1 1 6 6
2 3 2 7 2 3 5 4 5 4 5 6 3 3 3 2 2 3 5 5 5 7 5 6 4 8 4 1 3 7 4 3 1 3 3 4 7 15 3 13 12 9 6 4 4
3 3 5 5 3 3 4 1 4 5 7 4 4 5 5 6 7 5 5 6 2 6 5 4 5 5 6 3 4 4 1 5 3 2 4 4 5 6 10 16 18 6 8 3 2
2 3 6 4 4 4 3 3 5 4 5 6 6 5 6 4 5 4 5 5 7 7 8 5 3 7 7 1 3 2 3 2 2 1 3 3 5 5 17 17 10 20 11 8 9
4 3 6 5 3 1 3 4 1 2 0 2 6 6 5 6 5 6 4 4 4 5 3 4 2 3 10 16 10 5 6 5 2 5 4 4 10 15 11 10 20 15 7 8 6
3 2 2 2 3 2 2 4 6 6 6 5 3 5 3 2 3 5 3 3 4 3 3 2 3 3 8 6 7 5 14 13 9 1 9 3 8 10 16 15 6 5 8 7 8
2 3 4 4 1 6 5 5 4 3 3 3 2 2 4 6 6 4 4 4 4 2 7 6 2 5 5 5 6 10 18 20 12 3 8 11 22 17 18 6 7 8 8 8 6
2 0 4 2 5 6 6 4 6 4 2 2 2 3 4 3 5 4 6 6 8 7 5 6 5 6 8 7 10 16 20 21 16 16 13 24 19 17 8 7 5 8 10 8 6
3 2 4 2 6 6 5 5 6 6 4 4 3 7 6 3 2 4 5 4 4 3 5 2 5 1 6 12 11 8 21 21 20 15 12 13 18 7 7 12 14 13 12 9 9
3 3 4 5 3 4 2 3 5 5 2 3 4 3 4 1 2 2 3 5 8 9 4 5 3 2 12 3 5 7 13 4 6 12 11 7 4 15 17 17 15 13 5 5 11

GFSSW_925_spd_012.txt.gz
Wind_Speed
11 10 10 9 9 9 7 5 6 7 6 4 1 4 10 15 8 8 4 7 9 13 17 19 11 13 4 2 3 4 5 3 1 3 3 6 4 4 2 5 1 1 6 3 23
8 8 8 8 8 4 4 4 8 5 5 3 2 5 12 16 5 7 9 9 11 15 17 15 8 14 3 1 5 6 4 2 3 4 1 3 3 2 3 5 6 5 6 18 21
6 5 5 4 3 3 3 7 6 6 5 2 2 8 12 13 3 5 10 12 15 18 17 18 11 2 5 4 4 2 3 3 2 2 2 3 4 4 3 4 8 11 9 11 14
3 2 1 1 3 5 7 7 7 6 1 1 5 9 15 5 3 7 12 18 21 20 16 16 7 6 6 5 5 5 2 3 3 1 2 1 1 4 1 5 7 12 15 9 9
3 3 3 5 7 8 9 7 5 3 2 4 8 11 7 5 0 9 13 17 18 20 14 7 9 5 5 2 2 2 2 2 5 5 4 2 3 5 4 5 7 13 10 12 9
5 5 6 8 9 9 8 6 5 5 4 5 7 10 3 3 5 7 11 11 14 16 15 12 4 5 1 4 3 3 2 5 7 5 4 4 4 3 7 7 7 12 12 11 11
7 7 7 8 8 7 7 8 8 7 4 2 5 7 1 4 8 9 4 5 8 10 4 7 7 8 4 5 3 3 4 7 8 2 4 4 3 5 4 10 11 11 10 10 10
7 8 8 8 7 7 8 8 6 3 1 4 6 2 3 2 8 9 10 8 8 15 8 6 7 3 1 3 6 3 4 3 7 5 4 4 7 7 4 9 12 11 9 9 10
9 9 8 8 8 8 7 5 3 3 6 7 2 2 5 3 6 10 13 9 17 10 12 10 3 0 5 4 5 6 3 4 7 6 3 1 7 8 4 8 11 9 9 7 6
9 9 8 9 9 7 6 3 4 6 5 5 1 2 5 2 4 10 15 11 4 7 8 3 4 3 5 5 0 5 5 5 1 6 5 5 7 9 6 5 10 10 6 5 5
9 10 9 9 9 8 7 2 6 5 2 2 1 4 2 8 2 8 17 10 5 2 3 4 6 1 4 3 2 1 3 3 4 4 8 5 9 14 5 4 8 7 9 8 6
7 8 7 8 8 8 6 5 3 1 3 4 3 3 3 2 3 9 12 5 5 3 5 6 3 2 5 4 3 6 3 4 6 6 3 9 10 7 7 4 7 10 9 8 6
4 5 5 5 5 7 10 5 3 3 2 3 1 1 4 3 1 5 4 3 1 5 4 5 2 2 5 5 7 3 2 4 6 7 3 6 7 6 4 4 5 4 6 7 9
4 4 4 2 3 3 3 2 2 2 4 2 3 2 3 2 2 4 3 2 5 3 2 1 2 3 6 3 4 5 4 4 6 4 2 4 3 3 3 3 3 4 5 7 8
6 4 5 2 3 3 1 3 4 2 4 2 1 1 3 3 3 4 4 3 2 4 5 4 1 4 3 3 2 7 7 8 5 4 3 9 3 5 3 4 0 7 7 5 5
7 5 6 4 3 1 3 3 1 5 1 2 1 0 1 3 4 4 6 6 2 4 2 3 1 3 1 4 1 6 6 4 3 3 3 4 1 4 5 4 5 3 6 6 4
8 6 3 3 2 0 1 3 5 5 1 2 1 3 3 3 4 5 5 10 5 5 6 6 4 4 2 5 7 8 6 4 5 5 3 6 5 2 1 5 5 5 1 3 8
6 7 8 3 1 1 2 5 5 3 3 1 1 2 3 3 2 5 3 4 7 5 3 5 6 6 5 2 2 4 4 4 1 1 5 7 3 3 7 6 9 5 6 7 7
2 2 4 4 3 2 5 5 5 3 3 4 4 3 3 5 3 5 4 3 5 7 4 5 4 5 4 4 3 4 4 1 3 2 3 4 6 6 10 5 8 5 10 8 8
1 1 5 4 3 3 5 3 2 2 3 4 3 4 3 5 4 4 3 5 2 5 2 3 4 1 6 4 3 2 1 4 4 2 3 5 5 6 8 14 18 14 6 8 6
2 3 6 3 1 5 4 3 3 1 3 4 4 4 4 3 4 3 3 3 3 5 6 3 3 7 4 3 1 5 4 4 0 4 3 2 5 5 12 11 9 7 7 4 5
3 3 6 5 4 2 2 2 1 2 5 4 4 4 3 4 4 3 2 2 2 0 2 3 3 3 5 9 3 1 4 5 3 5 3 4 10 13 6 13 3 6 6 6 5
3 1 4 3 3 2 2 4 4 3 5 4 3 3 3 3 3 3 3 2 2 1 2 1 2 3 7 6 7 4 6 3 3 2 6 3 5 7 20 16 7 7 7 7 3
3 3 4 4 1 6 4 2 3 4 4 3 2 5 4 4 5 2 4 2 2 3 5 6 3 6 5 4 3 9 14 9 4 2 5 15 17 22 9 7 7 7 7 5 4
3 2 4 2 4 4 3 3 4 2 2 3 4 3 3 2 4 2 3 4 5 2 2 4 5 4 6 8 5 16 17 17 11 14 6 15 12 13 3 2 5 7 6 7 7
3 3 3 1 2 4 5 2 3 3 3 2 5 4 6 3 4 3 0 1 5 3 2 3 4 2 9 7 8 18 15 13 13 14 11 10 13 2 6 6 6 10 14 14 6
3 3 4 4 2 4 2 2 2 5 3 5 5 3 4 1 4 5 5 5 7 5 4 3 3 2 6 4 5 10 7 5 6 7 8 7 5 3 9 8 10 17 16 14 7

GFSSW_925_spd_015.txt.gz
Wind_Speed
11 13 11 12 9 7 6 6 7 6 1 3 2 5 11 15 6 6 2 6 9 15 17 19 5 10 3 4 3 3 5 2 1 2 3 5 2 3 3 5 2 3 4 4 23
8 9 11 10 7 5 6 5 9 1 1 0 3 8 13 14 6 6 11 13 15 17 17 14 9 8 4 4 4 6 5 5 1 3 2 4 3 2 5 2 3 3 4 16 24
5 6 7 5 5 6 5 8 3 2 1 1 4 9 13 8 2 5 14 19 19 12 12 11 2 2 6 5 5 1 4 4 3 3 5 3 1 1 9 1 6 8 7 9 12
3 2 2 4 6 6 8 6 4 2 1 0 6 11 10 3 4 6 14 16 16 20 18 14 7 6 5 5 4 5 1 4 2 5 3 2 1 1 2 6 10 11 14 10 9
1 1 5 7 8 9 8 7 4 2 2 4 8 13 6 5 2 14 15 14 13 17 19 5 9 3 5 3 3 4 2 3 3 3 2 3 4 2 5 4 5 7 8 11 9
3 5 8 9 10 10 9 6 5 4 4 7 11 10 3 5 8 14 11 13 17 19 15 10 3 1 4 3 4 3 4 6 4 4 3 1 3 1 5 4 7 10 12 10 10
6 8 9 10 10 9 8 7 7 6 7 9 10 7 3 3 9 13 14 6 12 15 4 5 4 6 1 3 4 2 5 7 3 3 2 4 5 6 3 4 9 12 12 9 11
10 10 10 10 10 9 8 8 7 8 9 8 9 3 2 5 7 14 14 11 11 14 10 6 9 4 3 2 6 5 5 5 7 2 4 3 10 9 4 5 11 10 8 10 12
9 10 10 10 9 8 8 8 9 8 6 6 4 4 3 7 8 14 17 10 14 7 11 3 5 3 6 4 5 7 2 3 6 4 4 2 8 9 2 7 10 10 9 8 6
8 9 10 11 9 8 6 6 6 5 5 3 4 4 6 5 6 12 17 6 3 6 6 7 5 4 5 6 0 3 3 4 4 5 7 5 9 10 7 8 10 7 6 5 6
9 10 10 10 9 7 4 3 5 5 6 1 1 4 2 6 3 11 15 6 5 8 4 4 6 2 1 2 3 1 1 3 4 3 7 5 9 11 7 5 6 6 6 6 4
8 9 9 9 10 9 10 7 3 1 3 3 1 2 1 2 5 7 11 5 6 3 3 6 3 2 4 5 5 3 2 4 6 5 2 7 10 8 8 4 5 7 7 7 6
6 7 7 7 8 13 15 7 3 1 4 4 1 1 3 3 2 5 5 1 5 5 4 5 1 4 4 5 6 3 2 3 5 7 2 6 5 6 5 6 6 7 5 5 6
6 6 6 5 5 4 5 4 2 0 4 5 4 3 3 1 6 3 5 2 7 3 1 2 3 3 6 3 1 4 3 2 6 4 2 5 3 5 4 4 6 5 3 2 5
5 5 5 3 7 4 2 1 2 2 5 4 2 2 2 4 1 9 9 4 3 3 4 2 3 5 6 4 2 6 7 4 3 3 2 8 4 6 6 4 4 1 5 5 4
7 6 7 6 5 3 1 1 2 6 1 1 1 2 3 6 5 3 8 7 2 4 5 4 2 3 2 2 3 8 4 5 4 3 2 1 3 6 3 3 3 1 5 4 6
8 7 6 4 3 1 1 3 5 5 3 1 2 3 3 4 6 5 5 10 5 5 6 6 4 5 3 5 6 8 6 4 4 4 4 2 2 5 3 2 1 5 4 8 8
8 8 9 5 3 2 3 5 6 1 2 3 3 3 4 5 5 6 3 5 6 5 3 4 5 5 6 1 3 3 3 4 3 1 4 6 2 4 6 5 8 5 8 8 6
5 7 5 6 3 3 5 5 6 5 2 2 3 4 5 5 3 4 4 2 3 5 3 5 4 4 1 3 1 3 5 1 5 3 2 4 5 6 6 7 5 5 6 7 8
2 4 6 5 3 4 5 2 1 0 1 2 3 1 2 5 3 4 3 3 4 6 1 2 4 2 6 2 4 4 2 4 4 2 3 5 6 5 5 11 18 13 7 6 6
3 4 6 4 2 5 4 3 2 2 2 3 2 3 2 2 2 2 0 2 2 4 6 2 3 6 3 4 2 4 4 5 3 3 3 3 5 5 5 8 10 5 5 6 2
4 3 7 4 4 2 2 3 2 4 6 5 4 3 2 2 4 3 3 2 1 1 2 1 3 3 3 7 4 4 5 4 3 3 2 3 7 5 5 6 6 6 6 7 4
3 1 3 2 3 2 2 4 3 3 4 3 2 3 4 2 3 2 3 2 3 2 1 1 2 3 6 6 4 4 3 3 3 2 6 3 5 3 13 5 3 5 7 6 6
3 2 4 4 1 6 4 2 3 2 3 4 3 5 4 5 5 2 3 5 6 3 6 5 2 5 5 5 4 6 4 3 5 3 4 11 17 17 8 4 7 7 6 7 9
3 1 2 1 4 3 3 2 4 2 2 6 5 4 3 2 2 2 2 4 3 2 3 3 2 3 5 7 7 13 12 16 7 10 6 10 11 12 5 5 7 7 7 12 13
4 4 3 2 2 2 4 1 5 2 2 2 6 1 4 4 4 3 3 2 4 2 3 2 3 3 4 7 9 15 13 11 12 9 8 9 9 0 3 6 6 8 11 13 11
2 3 4 4 2 4 2 1 3 5 5 5 8 4 2 3 4 3 5 4 4 5 3 2 4 1 5 5 9 6 7 4 4 5 5 5 5 2 6 7 10 13 13 12 12

GFSSW_925_spd_018.txt.gz
Wind_Speed
12 12 12 10 8 6 6 7 5 5 4 3 2 6 11 11 5 4 2 7 11 15 15 11 5 7 5 4 4 3 5 2 2 2 2 4 2 2 2 4 2 4 5 3 26
10 10 9 8 7 7 6 5 5 5 2 1 3 9 12 8 2 3 12 17 13 9 7 7 4 4 4 3 4 5 5 2 3 3 1 2 1 3 3 2 2 1 2 9 25
8 7 6 6 7 7 6 5 6 3 2 2 6 9 7 3 2 5 16 16 17 15 13 7 5 5 7 4 5 2 4 2 2 2 1 3 3 1 7 1 6 8 6 8 12
5 5 5 6 6 6 7 7 6 4 2 2 5 9 6 3 4 7 16 15 16 17 13 16 7 7 5 6 4 6 3 3 1 3 4 2 3 1 4 7 7 7 12 10 8
4 3 4 7 8 9 10 9 7 5 1 2 9 9 4 4 1 13 12 14 16 19 18 4 8 4 4 4 4 4 2 3 1 6 4 2 2 2 7 8 1 9 8 10 10
2 4 6 9 12 12 11 9 6 3 3 7 11 7 3 7 10 15 13 12 16 14 13 11 3 2 4 3 5 1 1 2 3 0 0 1 2 1 5 2 3 7 11 10 9
6 7 10 11 12 11 9 7 6 5 7 10 11 5 4 0 10 14 17 10 14 11 4 6 3 4 3 2 3 2 5 6 7 5 3 1 5 5 5 2 6 8 8 9 11
8 9 11 11 11 11 9 8 6 7 8 9 9 2 1 9 9 16 20 10 10 8 6 4 4 5 5 2 7 6 6 5 5 7 2 3 8 10 3 0 8 9 8 8 10
8 9 11 12 12 11 9 7 6 7 8 7 4 5 3 9 12 15 18 8 8 12 11 7 7 4 7 5 5 7 1 2 7 4 5 4 9 8 6 6 11 7 7 7 7
8 10 12 11 9 7 7 6 8 6 5 6 7 6 7 4 6 10 14 7 5 3 5 9 6 5 5 6 1 1 2 3 3 5 6 4 7 9 8 6 8 7 6 5 4
9 10 10 9 8 6 7 3 5 6 10 3 2 4 3 8 4 13 11 4 5 9 4 5 8 2 3 1 2 1 2 3 3 2 6 5 6 9 8 8 9 8 6 4 4
7 8 10 11 8 8 6 6 2 2 4 4 2 3 3 4 7 12 10 5 6 3 2 6 4 1 6 5 2 1 2 4 5 3 1 6 7 6 7 5 5 6 7 5 4
5 6 7 8 8 16 15 7 3 1 5 5 3 2 3 4 3 8 6 2 5 6 6 5 1 3 4 5 6 4 2 2 5 7 1 5 5 7 4 5 7 7 4 4 5
5 4 4 4 4 6 5 4 3 1 5 7 5 3 3 2 4 4 8 2 6 3 2 3 2 5 5 4 2 3 1 3 6 3 1 4 2 5 6 5 6 5 6 7 6
5 4 3 1 10 4 3 2 3 3 5 3 4 2 4 5 1 10 7 5 4 3 4 1 3 5 6 2 1 6 4 2 2 3 3 7 4 6 5 4 5 8 6 4 6
5 7 7 6 6 5 3 3 2 6 2 2 1 4 4 7 6 6 8 7 2 5 6 1 3 3 2 2 2 5 4 5 4 2 3 1 3 5 3 3 4 3 5 6 8
6 7 6 4 4 3 3 4 5 5 3 2 2 3 4 6 6 6 6 9 4 4 6 6 3 5 4 6 6 9 6 3 3 4 3 3 1 4 4 6 5 7 9 10 8
8 7 9 7 4 4 3 5 6 1 1 1 2 4 4 3 4 6 3 5 6 5 3 4 5 5 6 1 2 3 4 4 2 1 4 4 3 5 3 9 5 8 7 8 9
9 10 5 6 4 3 5 5 6 5 1 2 3 4 3 3 4 4 4 2 3 4 3 4 3 5 2 3 1 1 4 2 5 2 2 4 5 2 4 7 8 7 8 9 8
4 5 5 4 3 4 5 3 1 3 1 2 3 0 2 5 3 4 2 2 2 5 1 1 3 1 5 1 5 5 3 3 3 2 3 5 5 3 6 8 7 5 7 8 6
3 4 5 4 2 5 4 4 2 3 2 3 2 3 3 2 3 2 1 2 2 3 5 2 3 5 2 5 2 4 3 5 4 3 3 2 6 4 4 3 2 3 4 5 6
4 3 5 1 4 1 3 3 0 2 6 4 4 3 3 3 3 2 2 2 4 2 3 2 4 3 4 3 1 3 3 4 4 2 1 3 6 2 7 3 3 3 6 6 6
3 1 3 1 3 2 1 3 3 3 4 3 3 3 4 3 4 2 3 3 5 3 2 1 2 4 8 5 5 5 1 4 5 3 6 3 6 3 8 8 4 5 7 7 7
3 2 4 4 1 6 4 2 3 4 4 5 3 5 4 5 6 2 2 3 5 3 6 5 2 5 5 7 3 4 4 4 5 2 3 11 17 18 14 6 7 7 7 8 7
3 1 2 0 3 4 3 2 4 2 3 6 4 4 4 3 2 2 1 4 4 4 3 3 2 4 6 9 7 9 11 9 9 8 7 13 8 11 7 3 6 7 7 9 9
4 4 3 2 2 4 4 1 4 2 2 1 6 2 3 4 4 5 3 2 4 3 2 3 3 0 4 5 5 8 12 13 10 6 13 14 16 7 3 4 6 8 9 9 6
3 3 4 4 2 4 2 4 5 5 5 3 8 4 3 3 4 1 4 0 1 3 3 0 2 2 5 3 8 7 6 5 3 5 5 6 9 4 3 8 7 7 5 3 4

GFSSW_925_spd_021.txt.gz
Wind_Speed
13 13 13 11 11 9 8 7 6 3 3 1 2 6 9 5 1 4 4 9 10 10 4 6 6 8 4 4 4 2 4 3 4 5 3 1 3 1 1 5 2 3 4 1 19
12 12 12 11 10 9 8 6 6 5 3 1 2 7 7 3 3 2 14 14 12 6 5 8 3 3 4 3 3 4 4 2 2 3 3 2 2 3 3 2 3 2 2 5 20
10 10 10 10 10 9 7 8 7 5 4 2 3 6 2 1 1 4 16 11 12 8 11 8 7 3 5 3 5 2 4 4 2 4 3 2 2 1 5 2 4 4 7 14 18
9 8 8 8 9 9 9 11 8 6 4 1 3 2 3 2 3 8 10 10 15 10 10 6 5 5 5 6 2 6 3 2 4 4 3 3 3 2 4 2 4 3 12 18 16
8 7 7 8 10 10 12 11 9 6 4 1 3 5 3 5 2 11 8 13 15 20 16 4 5 4 4 3 3 5 2 2 2 5 2 3 1 1 6 8 1 6 13 17 17
5 5 7 10 12 13 12 11 8 6 4 4 6 7 3 7 4 12 7 10 13 12 10 10 3 2 5 2 4 2 2 3 5 3 4 2 1 1 2 3 4 7 14 14 16
4 7 9 11 13 12 11 10 9 6 4 7 6 6 6 1 5 10 9 5 6 7 3 4 6 4 2 3 2 4 4 2 9 5 4 4 1 3 6 5 1 7 8 12 16
8 9 10 11 11 12 11 11 9 6 5 6 7 5 3 7 6 16 12 5 6 6 6 6 10 7 4 2 6 5 5 3 4 6 2 4 5 5 7 7 9 4 7 11 14
8 10 11 12 13 12 11 9 6 6 6 5 4 4 1 6 7 10 10 3 5 8 10 9 7 5 4 4 4 8 2 3 4 4 7 5 7 5 14 7 9 7 4 8 11
9 10 11 11 10 10 8 6 7 4 4 5 5 4 6 4 6 9 4 6 6 1 4 8 6 4 4 4 2 1 1 1 3 4 6 4 7 11 11 6 5 5 2 4 8
10 9 8 7 7 8 7 2 4 6 11 4 1 4 2 7 3 12 7 3 5 8 4 5 7 4 2 1 3 3 2 2 3 1 5 3 4 10 9 10 11 10 9 6 3
7 9 9 8 11 10 5 6 3 3 5 2 1 2 0 2 5 17 10 5 6 4 2 5 4 1 5 4 2 1 2 2 2 1 1 5 7 4 10 6 7 11 11 9 5
6 7 8 7 10 8 12 8 5 3 5 4 2 2 3 5 4 8 6 2 5 6 5 5 0 2 2 4 4 1 2 2 3 6 1 2 3 6 5 6 9 9 5 7 6
5 4 4 5 5 5 4 5 2 3 4 7 5 3 4 2 6 6 8 3 6 3 3 5 3 3 3 3 1 2 2 4 4 1 1 3 3 6 5 8 10 9 9 8 9
5 4 4 1 10 4 3 2 3 3 5 3 5 2 4 7 1 12 7 6 4 3 2 0 2 4 4 2 1 3 2 1 0 2 2 3 1 3 4 9 10 10 12 12 12
6 7 7 6 6 6 3 2 2 5 2 2 3 4 5 7 5 7 7 8 2 4 5 2 2 2 2 2 1 4 2 3 2 2 1 1 1 2 3 4 6 7 12 12 13
7 7 5 4 4 4 3 3 4 5 3 1 3 4 5 5 5 6 6 9 4 2 5 5 3 4 3 4 2 8 4 1 0 2 1 1 1 5 9 5 6 8 10 11 10
7 8 8 8 5 5 2 5 6 1 2 1 3 4 4 3 4 6 3 4 5 4 3 3 1 3 5 2 2 3 2 2 2 1 3 0 4 6 8 6 7 8 6 8 9
10 9 5 5 4 4 5 4 6 5 3 4 3 4 2 2 4 4 4 2 3 4 3 2 2 3 3 2 1 1 4 1 4 1 2 2 1 3 5 7 6 7 8 6 5
5 5 4 3 3 4 5 3 1 3 2 2 3 0 3 3 3 3 2 2 1 4 0 1 2 2 3 1 5 2 4 1 3 1 2 5 3 3 9 4 2 4 4 5 5
3 3 3 2 3 5 4 4 3 1 1 3 3 3 3 3 3 2 1 2 2 1 4 1 1 2 0 4 2 2 2 5 3 1 1 3 5 4 7 2 5 2 1 2 4
4 3 4 3 4 1 3 5 2 1 4 3 4 3 3 3 3 3 3 1 4 0 2 1 2 2 1 1 0 2 2 3 2 2 1 1 7 3 8 1 2 4 3 5 6
3 1 4 2 3 1 1 3 3 2 4 2 3 3 3 3 4 2 3 1 4 3 1 2 2 3 2 3 2 3 1 3 4 2 6 3 6 1 6 2 2 6 8 10 10
3 2 4 4 1 6 5 2 4 3 4 5 4 4 4 4 5 3 2 2 3 2 6 4 2 4 4 4 1 5 4 4 4 3 4 12 17 19 18 10 5 6 9 9 10
3 1 1 1 2 4 3 3 4 3 3 4 4 3 4 3 2 2 1 2 2 1 2 2 2 3 5 10 4 8 12 11 13 13 8 16 16 19 12 8 4 10 10 11 11
4 4 3 2 2 4 4 2 4 3 2 2 6 2 3 4 3 4 3 2 3 2 2 2 1 1 4 5 4 8 14 14 13 14 13 18 22 17 6 3 7 10 10 10 6
3 3 4 4 2 4 2 4 5 5 5 2 8 5 4 4 3 2 2 3 1 3 3 1 3 2 4 4 8 7 4 4 3 6 5 7 10 4 6 5 10 11 7 3 5

GFSSW_925_spd_027.txt.gz
Wind_Speed
17 17 17 16 16 15 13 10 9 9 8 6 7 7 8 9 6 8 1 8 5 11 9 6 8 8 8 4 4 7 6 7 6 11 8 7 7 3 3 7 0 2 11 19 19
16 16 16 16 15 14 11 10 9 10 8 7 7 7 8 9 9 1 7 9 7 3 8 12 10 11 5 5 4 10 4 10 5 6 11 8 5 7 7 8 9 8 8 19 18
14 15 15 15 14 11 10 10 10 10 8 7 7 6 6 6 10 12 9 10 6 7 5 4 7 8 6 8 4 4 10 8 5 3 6 7 5 4 4 7 9 12 12 16 17
14 14 13 12 11 11 12 12 11 10 8 7 6 5 5 3 1 7 8 11 7 3 5 7 10 8 10 7 5 8 7 6 7 3 1 6 8 5 5 12 7 8 12 14 14
12 12 11 11 11 11 12 12 11 10 8 7 3 3 3 8 6 5 8 8 1 5 8 3 5 5 4 7 8 10 8 9 8 6 1 3 5 3 6 12 6 6 10 13 13
11 12 11 11 11 11 12 12 12 10 8 3 3 5 8 4 2 5 6 5 4 4 1 3 3 5 6 10 5 8 9 8 8 6 4 7 7 9 8 5 6 7 10 12 11
9 9 9 10 11 12 13 13 12 9 5 4 4 4 12 7 2 5 5 4 6 8 2 4 1 6 9 6 6 9 8 9 7 9 3 8 10 12 6 5 5 7 9 11 11
7 8 9 11 13 13 14 13 10 7 3 3 5 4 1 1 5 4 3 1 3 2 5 3 3 4 2 8 7 11 9 11 7 6 4 11 12 10 3 5 10 11 8 9 11
5 7 9 12 14 14 13 10 7 3 3 4 3 9 3 1 4 3 2 3 3 4 3 3 5 4 5 11 10 8 9 2 9 3 3 7 5 11 5 8 11 11 12 10 9
7 9 11 12 13 12 10 7 4 4 5 3 7 7 3 1 1 2 3 3 6 7 7 6 6 9 11 10 7 7 5 5 4 6 5 4 2 6 2 1 2 3 4 2 7
8 9 10 11 11 11 9 4 6 6 10 5 8 2 7 3 5 4 3 7 9 9 10 5 11 2 11 7 7 4 4 3 4 4 6 3 1 4 4 7 8 9 9 9 10
7 7 8 10 10 8 5 8 6 6 9 6 6 7 2 4 8 6 4 9 9 8 4 8 4 5 2 4 3 2 5 1 1 3 5 3 8 6 8 7 10 12 14 15 14
6 8 8 10 11 5 6 3 2 3 6 5 3 3 3 3 4 6 7 3 4 4 6 6 9 2 3 1 5 2 6 5 9 4 8 10 10 10 9 11 11 12 12 10 11
7 6 9 12 6 6 4 1 2 4 5 6 4 4 3 1 4 6 4 4 1 3 6 6 4 2 1 1 7 8 3 7 9 8 9 13 6 12 13 10 9 9 8 8 8
7 5 8 7 8 4 4 1 1 2 3 4 5 2 3 2 2 5 4 4 3 6 5 6 4 2 2 5 6 6 7 8 9 10 13 12 9 13 13 11 9 7 7 9 10
8 8 8 5 2 4 3 2 1 5 3 6 3 6 9 8 5 4 4 6 4 4 5 8 2 4 6 4 4 7 9 9 8 7 7 8 6 12 12 10 7 7 6 9 10
10 7 3 2 3 5 4 4 5 4 3 7 8 5 6 7 8 6 5 5 1 6 6 6 4 4 6 10 5 8 8 5 4 5 4 7 6 8 9 7 7 6 6 7 7
10 6 4 5 4 4 4 6 7 5 5 3 7 9 4 7 4 4 6 9 10 5 2 4 7 5 5 5 6 4 6 3 5 4 6 6 5 7 10 9 7 5 5 4 4
10 5 4 2 2 2 7 7 2 6 6 10 12 9 7 4 2 4 8 7 7 9 3 3 4 5 5 5 6 4 2 4 5 2 4 8 7 8 10 9 6 4 1 1 2
8 8 4 1 2 5 6 2 2 2 3 12 7 4 6 7 6 3 2 2 4 7 5 4 2 0 2 4 3 5 3 4 2 3 4 4 7 6 13 10 7 6 3 2 4
8 6 3 3 3 5 6 2 3 5 2 3 3 5 5 5 3 3 3 5 2 4 4 5 2 4 4 2 7 2 1 3 4 3 4 5 4 7 2 5 9 2 3 7 7
4 5 2 4 7 4 4 5 1 8 3 2 1 3 5 5 3 3 5 5 2 3 3 5 2 2 4 3 4 5 5 5 4 6 3 5 8 6 3 1 2 6 8 5 8
2 4 2 4 5 6 4 6 3 8 4 5 3 1 3 5 3 6 6 3 3 3 6 5 0 3 5 6 5 4 2 4 5 3 11 8 7 1 4 5 8 12 5 7 7
3 3 4 5 3 10 10 9 7 2 4 3 6 6 8 6 4 7 7 4 2 4 3 2 2 3 5 9 8 8 10 10 10 8 12 12 17 16 13 12 13 14 9 7 10
2 2 1 7 6 9 10 10 10 6 3 6 4 4 8 4 7 5 7 6 4 4 2 3 3 4 7 11 12 14 13 14 16 16 15 18 19 16 17 13 14 11 7 11 13
2 3 2 2 5 9 4 9 12 5 8 8 7 8 6 8 2 7 5 3 3 4 2 1 1 4 4 6 12 17 16 16 17 13 12 14 15 11 12 12 11 13 13 16 14
2 1 2 2 7 8 7 9 9 9 2 2 10 8 9 8 9 9 7 5 3 2 4 1 1 2 4 9 14 6 3 7 7 7 11 11 12 13 11 12 16 18 16 14 12

GFSSW_925_spd_030.txt.gz
Wind_Speed
19 18 18 18 17 16 14 11 11 10 11 12 11 11 12 16 14 9 10 1 4 8 10 10 10 13 15 17 14 18 3 8 8 11 9 6 5 7 6 9 6 6 8 21 21
18 17 16 17 16 15 12 11 11 11 12 12 11 10 13 15 12 17 3 7 6 8 8 12 10 13 11 10 4 7 7 13 12 10 11 7 10 8 6 9 9 9 19 21 20
17 17 16 15 14 13 12 11 12 11 11 11 10 10 13 10 9 9 6 8 5 5 9 14 9 13 15 7 6 11 12 11 8 9 11 7 10 5 7 9 12 14 12 16 17
16 16 14 14 13 12 13 12 12 11 11 10 9 11 11 2 2 7 5 7 3 8 13 9 10 15 6 7 3 6 7 10 11 6 5 5 10 2 1 13 8 14 12 17 14
14 13 14 14 13 12 11 11 11 12 11 8 8 11 4 7 1 5 7 6 5 7 13 12 12 7 9 5 5 8 8 10 10 5 7 6 4 3 6 10 4 10 11 13 11
13 13 13 13 12 10 10 11 12 11 10 7 8 8 4 11 2 2 6 8 3 9 2 6 6 6 4 7 7 8 9 10 8 6 4 4 5 4 8 10 9 7 10 12 12
12 12 12 12 11 10 11 12 12 11 7 6 8 3 8 5 1 4 4 4 7 10 8 6 9 6 5 5 3 7 7 6 6 7 7 6 8 12 11 4 8 10 8 11 11
9 10 10 11 10 11 13 12 11 8 6 7 5 2 6 1 6 4 5 5 2 4 5 2 5 10 4 6 3 6 7 9 10 7 6 5 13 15 11 7 9 10 9 8 11
6 7 9 9 11 12 11 9 7 6 6 5 4 6 6 2 7 1 4 4 2 2 1 1 6 3 0 7 7 9 8 9 9 6 1 9 5 12 6 4 10 10 9 8 7
5 6 8 10 10 10 9 7 5 5 6 4 13 11 4 1 3 2 2 2 3 3 3 3 4 5 8 10 2 10 8 4 1 8 6 9 9 10 1 6 7 8 5 11 7
5 6 8 10 10 11 10 4 5 4 14 6 12 1 4 4 3 4 3 3 7 6 9 8 9 4 11 10 6 9 7 4 7 8 4 9 8 9 4 4 4 6 5 13 17
5 7 8 9 9 10 7 5 8 5 6 1 4 3 2 5 5 4 3 5 4 11 6 4 5 8 4 7 6 3 4 3 4 6 5 7 8 10 3 8 8 12 12 12 13
4 6 9 10 8 8 10 6 4 8 5 5 2 5 2 7 3 5 4 11 10 12 7 7 10 5 4 2 6 5 5 8 7 8 8 10 8 13 11 8 9 12 11 12 12
5 4 9 12 6 8 6 2 4 7 5 7 7 5 6 2 4 2 4 4 3 2 3 8 3 2 1 3 7 5 7 6 9 9 9 13 8 16 14 11 11 10 8 9 10
4 5 9 9 10 9 2 2 3 3 3 6 6 3 7 4 9 3 3 5 4 2 3 7 4 1 2 7 7 5 6 8 9 10 12 12 6 13 18 14 12 9 8 8 8
4 6 7 4 3 3 2 2 2 5 4 6 7 8 8 5 1 4 3 3 4 3 5 8 4 7 7 4 2 8 10 11 11 9 8 13 12 9 11 13 14 10 8 9 8
7 7 2 3 2 1 2 2 4 4 6 8 10 9 10 7 5 7 5 4 2 5 7 6 6 6 5 10 8 6 8 4 2 4 3 11 2 7 9 11 15 12 9 8 6
8 6 3 3 1 1 2 5 6 5 4 8 10 9 7 7 4 2 10 9 9 10 2 7 6 5 4 6 6 6 6 2 4 5 7 6 5 8 12 11 11 10 9 7 6
8 4 3 2 1 1 5 7 2 2 8 7 10 9 5 4 1 2 11 7 7 9 6 3 6 6 5 5 7 8 5 4 4 1 2 5 5 8 11 9 8 9 6 6 2
7 6 6 3 1 2 4 8 2 6 2 10 9 5 8 8 7 7 4 2 4 8 6 4 3 2 4 3 2 4 2 2 0 2 3 8 8 7 9 7 7 5 8 5 2
5 4 4 6 3 4 6 4 3 2 4 3 4 4 1 6 3 4 4 5 4 4 5 7 2 6 5 6 7 1 2 3 4 3 2 3 1 8 8 1 5 3 1 2 5
4 3 6 9 5 6 8 1 2 7 3 2 4 1 4 4 3 4 8 7 2 3 5 4 2 1 7 6 4 3 4 3 1 5 3 4 8 7 4 8 8 8 11 9 6
3 4 4 5 5 6 2 5 5 8 8 5 2 1 2 5 3 5 8 3 3 6 4 4 1 3 8 5 4 1 4 5 4 3 4 4 5 6 5 13 12 9 5 8 7
3 3 4 5 8 11 7 7 6 4 6 1 5 4 5 5 3 6 9 4 3 8 2 3 1 1 2 6 7 7 10 10 10 3 6 10 15 15 13 8 2 8 7 8 8
3 5 6 7 7 6 11 9 9 6 4 5 5 6 6 3 6 6 10 7 4 3 2 3 1 5 6 9 9 10 13 13 15 13 11 12 15 12 6 8 10 17 16 15 14
4 2 2 4 11 9 5 6 11 8 9 9 5 7 8 7 3 7 6 5 4 4 2 3 1 4 3 6 9 16 17 11 8 11 11 9 12 11 10 14 14 14 13 15 13
2 2 2 1 4 6 6 8 9 9 2 4 6 7 9 12 12 11 10 8 5 4 4 2 1 2 3 9 10 3 2 11 11 10 7 7 9 8 14 14 13 13 13 12 12

GFSSW_925_spd_033.txt.gz
Wind_Speed
17 17 18 17 16 16 15 13 13 13 13 13 11 11 14 17 17 10 7 9 8 13 10 10 10 13 13 5 9 4 3 10 17 8 5 3 7 6 6 9 8 5 13 19 27
17 17 17 16 15 14 13 12 13 13 13 12 11 11 14 16 15 12 16 15 11 11 11 12 6 11 4 6 5 6 4 5 6 9 7 4 10 5 6 8 11 12 19 26 27
17 17 16 14 13 14 13 13 13 12 11 11 10 12 12 12 4 6 9 7 7 10 14 12 16 4 7 4 3 3 5 5 8 8 11 8 6 7 8 7 15 19 14 13 18
17 16 14 13 13 13 13 12 12 11 11 9 10 12 11 3 2 5 2 4 2 6 9 8 6 5 3 5 2 7 9 8 5 9 8 8 6 5 9 8 12 18 20 14 10
15 13 13 13 13 12 12 11 11 11 10 8 10 11 2 2 7 5 4 7 9 11 13 6 7 5 7 4 8 9 5 7 5 10 7 6 4 4 8 10 13 18 17 15 14
13 12 12 12 12 11 11 11 11 11 9 8 10 7 1 5 5 2 5 9 9 15 14 14 5 8 3 4 6 6 8 8 3 6 2 1 2 4 4 9 10 14 15 14 15
12 11 12 11 10 10 11 12 11 9 8 8 9 2 3 10 12 6 4 5 11 13 7 15 13 7 4 7 5 8 7 6 5 7 4 3 2 6 8 9 10 11 11 11 15
9 9 10 10 9 10 12 10 8 7 7 9 5 2 5 4 10 4 8 4 3 9 12 12 13 5 3 3 4 5 6 5 6 8 6 7 6 7 9 9 8 9 8 9 10
7 7 8 8 9 9 8 6 6 6 8 5 2 4 6 5 3 2 4 9 5 3 3 8 6 1 4 4 3 2 4 6 4 9 5 4 6 7 7 7 3 5 7 5 7
4 5 6 7 8 8 8 6 4 6 4 4 8 4 8 2 3 2 1 3 3 1 2 2 2 2 5 4 3 4 3 6 8 3 3 4 3 5 5 4 4 7 14 15 17
2 4 6 8 9 9 7 3 2 1 5 8 7 6 5 5 5 8 7 3 4 3 4 5 4 2 4 3 3 3 4 9 5 5 3 4 4 6 6 10 17 15 15 15 15
3 5 7 8 8 7 6 2 3 1 4 17 4 2 3 4 4 5 4 1 3 6 5 3 4 5 3 2 3 6 6 5 4 5 4 3 1 7 9 7 12 15 13 14 11
4 5 8 8 8 8 10 9 8 9 4 3 1 5 1 4 0 4 3 6 5 5 7 7 3 2 4 7 10 9 6 6 4 6 3 3 2 6 6 12 13 10 10 11 13
5 5 9 10 5 5 5 3 5 7 4 3 2 3 3 4 4 4 1 3 4 3 10 6 5 4 5 8 8 5 7 6 6 5 3 3 3 4 8 8 11 11 9 9 12
3 5 10 11 7 1 3 4 5 2 4 7 4 7 3 1 8 1 1 5 4 4 7 1 4 7 9 4 4 2 3 4 4 4 3 8 1 5 12 11 10 9 11 9 9
4 8 10 3 4 3 6 3 2 5 2 3 4 4 5 3 1 5 2 2 3 6 8 5 5 4 4 3 2 5 4 6 5 3 2 6 4 2 9 12 9 9 10 10 9
7 10 5 3 0 5 4 3 5 2 6 5 4 7 7 2 5 6 5 3 3 3 3 3 4 4 2 4 2 3 5 4 4 4 4 4 8 6 11 13 14 13 9 9 8
7 6 4 3 2 2 4 4 1 1 4 5 6 4 7 3 4 3 6 4 8 6 4 5 1 4 5 4 2 4 3 4 0 1 4 7 4 1 10 12 9 8 8 8 8
8 5 1 1 1 2 5 2 3 4 4 6 5 5 4 3 1 4 7 3 5 7 4 3 3 4 6 3 3 6 4 2 3 5 3 1 4 5 9 7 11 10 8 7 8
7 4 5 2 2 3 4 4 1 6 3 5 5 6 6 8 4 3 3 5 2 5 3 3 4 2 4 1 2 4 2 5 3 1 2 4 3 3 3 7 7 6 6 4 1
4 2 5 7 4 4 2 5 4 6 9 6 2 2 1 7 6 4 4 4 7 2 7 4 4 3 2 4 4 4 3 4 2 5 4 1 3 4 8 10 7 8 6 5 4
1 1 7 9 3 2 2 5 1 3 2 3 3 5 3 4 5 5 4 4 5 5 3 3 3 3 4 3 3 1 3 4 4 4 1 4 5 7 8 10 7 4 6 4 4
2 3 3 2 3 2 6 2 1 5 4 0 5 6 5 4 5 9 5 6 8 5 1 3 2 3 3 4 4 1 2 2 4 4 5 5 5 3 7 4 6 8 5 11 14
1 2 2 1 2 4 5 4 2 6 3 4 5 4 1 5 5 4 4 3 5 3 3 3 2 5 5 2 1 2 5 4 2 3 4 6 6 9 5 2 9 7 8 11 10
2 4 7 4 4 5 5 8 5 2 1 2 1 3 4 3 5 5 5 4 2 1 2 3 2 4 5 6 4 3 5 7 5 6 3 7 3 6 10 8 7 7 9 10 10
2 2 1 4 5 3 6 5 9 8 6 4 3 6 8 4 3 7 8 5 4 4 2 3 1 3 3 7 7 4 8 8 4 2 3 4 4 11 7 8 11 10 10 9 7
3 3 4 3 3 3 4 2 3 8 3 3 4 11 13 6 8 7 7 6 6 6 3 3 3 3 3 5 6 4 3 4 3 5 3 3 3 8 13 11 8 8 7 4 4

GFSSW_925_spd_036.txt.gz
Wind_Speed
19 19 19 18 17 16 15 14 14 14 13 12 12 13 13 15 18 13 7 12 6 8 9 7 7 7 4 2 2 1 3 2 8 10 11 6 10 5 3 8 1 1 11 22 33
21 20 19 18 16 14 14 15 13 13 11 11 12 11 11 15 17 13 22 17 13 13 11 9 3 2 2 3 3 4 3 5 6 7 5 5 11 7 6 8 7 10 13 26 33
22 20 19 17 15 14 15 14 13 12 11 11 10 7 10 13 5 8 8 15 17 15 13 5 6 3 5 3 3 6 4 1 6 4 9 7 5 4 10 4 16 20 14 14 23
21 19 17 15 15 15 14 13 12 12 10 9 7 7 10 4 4 5 6 5 8 9 11 5 4 3 4 5 3 6 1 6 3 1 5 9 6 5 6 8 17 20 20 11 11
18 16 14 14 14 14 13 12 11 11 9 7 4 6 4 2 8 7 8 8 10 7 10 6 4 5 4 1 4 8 3 6 6 6 3 8 5 4 6 13 14 16 18 17 17
16 15 14 13 13 13 12 12 11 9 8 5 3 6 1 4 6 11 7 6 6 11 8 7 6 7 5 9 4 5 7 6 4 3 4 6 3 4 2 14 16 18 17 17 17
15 14 13 12 12 12 12 10 9 8 5 4 4 2 1 12 8 13 9 11 2 2 3 2 1 6 1 6 5 8 6 4 1 2 2 5 3 7 6 16 20 19 18 16 17
13 12 10 11 11 12 10 8 7 6 4 3 3 2 6 12 14 14 10 7 4 5 9 11 14 2 5 1 6 5 5 3 4 4 1 5 5 4 7 13 15 16 14 11 1
10 9 9 10 10 9 7 7 7 4 2 2 1 3 8 12 4 10 4 4 2 4 8 10 6 2 7 4 5 5 4 4 2 8 3 3 5 6 6 8 5 9 8 9 10
6 7 7 9 8 8 8 7 4 2 2 2 4 2 6 4 4 2 1 3 3 4 7 7 6 4 4 5 3 6 5 4 5 3 4 4 4 4 1 13 11 12 11 13 16
4 4 7 8 9 10 9 4 1 2 4 7 4 3 4 3 3 3 2 2 2 3 1 6 6 2 6 5 6 3 2 9 2 1 4 4 5 1 6 15 14 14 13 12 13
4 5 8 9 10 10 7 2 2 1 3 9 10 8 22 4 1 2 3 2 1 2 3 6 3 5 5 7 7 6 9 4 5 5 4 4 4 5 1 7 16 16 14 13 11
5 7 10 11 10 9 6 5 6 9 1 4 6 6 3 2 1 3 3 1 2 2 3 6 5 1 6 6 9 5 6 2 3 3 3 7 3 4 5 9 9 8 11 11 13
7 9 11 11 6 3 4 4 3 3 3 3 2 2 1 4 3 1 2 2 3 1 8 4 4 6 6 5 2 3 1 3 3 4 2 4 2 3 2 8 8 9 9 9 11
6 7 12 12 2 6 2 5 5 2 3 3 2 6 1 2 4 2 1 3 1 1 6 1 4 6 6 1 1 4 1 1 2 3 3 6 4 4 7 7 8 6 8 9 9
6 9 13 10 4 1 5 6 1 5 2 4 5 5 3 1 2 3 1 3 1 5 6 5 3 3 2 3 1 2 3 7 4 3 3 4 4 2 4 5 6 5 7 8 7
8 12 11 4 2 2 4 4 4 3 2 5 4 5 5 4 3 3 4 6 4 4 3 5 4 4 4 5 7 8 5 3 4 4 4 3 4 1 8 10 9 9 7 6 6
12 10 4 4 0 2 3 5 3 2 4 3 5 5 5 3 3 3 3 3 5 4 3 4 2 5 7 3 0 2 5 4 3 2 4 5 3 4 2 11 8 7 8 6 5
10 6 3 3 2 2 5 2 5 3 7 6 5 5 2 2 4 6 3 2 2 4 5 4 1 2 2 2 3 4 4 4 5 2 3 0 3 4 2 13 14 14 9 10 7
8 5 3 4 4 5 4 5 3 3 3 5 5 5 5 6 4 4 2 3 1 3 1 2 4 2 1 4 6 5 2 4 4 2 1 3 3 4 5 4 2 6 7 6 4
5 3 4 6 4 5 3 5 3 4 4 4 1 5 5 7 6 3 3 3 4 4 5 2 4 3 4 3 2 4 3 5 4 3 4 0 4 2 9 7 6 5 5 5 8
5 2 4 6 3 1 3 3 3 4 4 5 3 4 4 4 4 4 3 2 6 2 3 2 4 3 1 2 0 2 3 4 4 2 2 3 5 6 8 7 7 8 6 11 12
4 2 2 1 4 2 4 4 2 2 1 2 2 4 4 4 6 3 4 2 7 4 2 3 2 3 6 6 5 2 1 5 6 3 6 5 5 5 4 12 10 12 9 9 7
3 2 3 3 1 6 3 3 3 3 2 4 3 5 5 5 6 4 3 4 4 3 1 2 3 5 6 4 3 1 2 4 4 3 3 6 6 4 4 9 7 8 7 6 6
2 4 6 4 3 3 4 5 3 1 2 3 4 3 5 3 3 4 3 2 4 3 2 3 3 2 2 3 2 1 1 4 2 5 5 5 5 3 5 7 6 6 6 5 5
3 3 2 3 5 6 5 7 8 3 4 1 3 4 4 4 5 7 7 3 4 1 2 3 1 2 2 6 6 3 5 4 4 2 4 8 5 3 5 6 6 6 5 5 5
3 0 5 2 5 4 4 7 9 9 3 4 9 7 9 3 6 6 3 6 6 6 2 3 4 3 3 4 5 5 5 3 3 2 3 4 4 4 4 5 4 4 2 1 3

GFSSW_925_spd_039.txt.gz
Wind_Speed
19 21 22 20 20 17 16 15 15 15 14 15 14 13 12 14 16 14 8 11 4 3 9 5 4 4 3 1 4 2 4 3 6 5 4 6 3 2 3 8 2 2 5 19 30
20 22 23 21 19 17 15 15 15 14 14 14 13 10 10 14 16 12 22 18 15 10 5 8 2 5 1 2 1 3 4 10 8 14 19 11 8 8 5 3 5 8 14 27 28
22 23 23 20 19 17 15 14 14 13 13 13 9 7 9 12 5 7 5 8 19 15 9 2 5 2 1 2 5 5 4 7 9 20 15 7 6 3 10 3 10 15 15 18 22
21 22 21 19 17 15 14 13 13 13 12 10 7 7 9 3 3 3 5 4 7 12 10 6 3 1 3 5 4 2 4 3 5 7 7 9 7 7 0 9 12 20 21 18 14
20 20 18 17 15 13 12 13 12 11 10 7 5 6 3 2 8 5 10 7 8 11 12 6 6 5 4 4 5 2 2 5 6 8 5 6 4 7 5 9 10 15 18 18 17
19 19 17 16 15 13 12 12 10 10 8 5 6 4 1 4 7 3 12 7 11 13 7 9 7 7 4 4 4 4 5 5 4 6 3 5 3 3 2 10 13 16 16 16 17
18 17 16 15 13 13 12 10 8 8 5 5 4 1 2 12 4 18 14 8 10 11 5 10 9 6 6 3 4 4 6 4 3 1 4 6 3 5 7 14 17 16 15 13 16
17 16 14 13 13 12 9 7 7 6 4 4 3 2 7 6 15 17 13 8 6 6 4 3 7 4 4 4 5 5 5 4 3 3 4 4 6 2 9 14 13 5 3 5 8
15 13 12 12 11 9 7 6 5 4 5 2 1 4 8 11 6 7 6 5 3 2 3 2 5 4 6 5 4 6 3 2 4 3 1 3 4 1 6 7 7 6 6 8 8
13 11 10 10 8 8 7 7 5 3 3 1 5 2 6 4 4 3 2 3 3 3 6 8 5 4 4 5 4 4 3 3 5 4 3 1 2 4 4 9 8 7 8 9 11
10 8 8 9 9 10 11 5 2 1 4 7 4 3 3 9 4 4 2 3 4 8 5 5 6 1 3 1 3 3 2 4 1 3 4 2 5 8 7 12 9 7 9 10 11
8 7 8 9 11 12 9 3 4 2 3 10 6 7 10 8 3 3 1 3 3 2 2 6 2 1 6 4 5 6 6 3 1 4 5 5 7 7 7 3 5 10 8 8 6
8 9 10 12 11 9 7 6 3 4 2 5 6 4 6 7 2 3 2 2 3 2 2 4 2 4 6 6 8 5 4 3 3 5 6 4 5 5 5 6 6 6 5 5 7
9 11 12 13 7 6 5 4 3 1 4 4 2 4 3 3 2 2 1 3 3 2 6 4 5 5 6 6 4 3 1 3 3 3 4 2 3 2 1 4 4 4 4 5 6
11 12 14 14 4 5 1 2 2 3 3 3 3 2 2 4 3 2 2 4 3 4 5 2 3 5 6 1 2 4 2 2 2 3 3 4 4 3 7 2 3 3 4 4 5
13 14 17 13 4 5 3 0 3 5 3 3 4 3 4 2 1 0 5 7 3 5 6 3 2 3 2 2 1 2 4 6 4 3 2 4 4 3 5 5 4 2 3 5 5
13 16 18 7 3 4 2 3 5 3 1 4 4 4 3 2 3 3 4 5 3 5 3 5 3 4 3 2 3 6 5 2 2 3 4 5 3 4 5 7 8 8 8 7 7
14 19 13 7 4 2 2 5 1 3 5 3 5 4 4 4 4 3 3 3 5 4 3 4 4 4 5 2 3 2 4 4 5 3 2 5 2 5 2 10 10 8 9 9 8
16 13 4 6 4 4 6 3 5 5 4 6 5 4 2 2 5 5 3 2 0 2 5 4 1 3 2 2 3 0 3 3 6 3 3 2 2 4 4 10 9 13 10 7 4
11 8 3 6 5 4 5 4 4 4 2 6 4 4 5 4 4 4 2 3 1 4 2 5 4 1 2 3 4 5 4 3 4 2 1 3 3 4 8 8 4 4 5 1 4
7 3 3 6 3 5 4 6 5 4 2 4 5 4 5 6 4 3 1 3 4 2 4 3 4 3 2 3 0 4 3 6 5 3 4 1 5 5 9 8 6 5 6 8 7
5 3 2 4 4 1 3 5 4 3 6 4 4 3 6 4 4 3 4 1 4 0 2 2 5 3 1 4 2 2 3 4 4 2 2 3 5 4 5 3 6 7 7 6 9
4 2 3 1 4 2 3 4 1 3 3 2 2 2 2 5 6 3 3 1 4 3 4 2 2 3 6 6 4 2 3 5 5 3 4 4 5 2 6 6 5 9 7 6 7
4 3 3 3 1 7 4 3 1 3 3 4 3 4 5 5 6 4 3 2 2 3 2 4 3 5 6 4 3 4 3 3 5 3 4 6 4 2 3 6 5 5 6 6 6
2 4 5 4 2 4 5 3 3 2 2 3 3 2 5 4 3 4 2 2 4 2 3 3 4 2 4 4 2 1 4 5 6 5 6 5 8 5 9 8 6 6 5 5 3
4 4 2 2 6 6 3 6 6 2 3 0 5 3 2 6 6 8 6 3 3 3 3 4 1 2 1 5 6 3 5 7 5 4 5 3 3 5 4 5 6 6 4 2 0
3 2 4 2 4 6 5 6 8 7 4 3 8 5 5 2 3 4 4 5 5 5 3 3 4 3 3 4 4 6 8 8 4 2 6 6 7 7 5 6 6 5 2 1 2

GFSSW_925_spd_042.txt.gz
Wind_Speed
19 21 21 22 22 21 19 18 17 17 17 16 15 14 13 14 16 13 9 11 1 5 8 3 2 3 3 2 3 2 4 2 5 2 2 5 15 8 4 5 2 3 5 12 26
20 21 22 23 22 21 19 18 15 16 15 15 13 11 11 14 16 13 20 17 14 10 6 6 2 3 0 2 1 4 4 7 6 9 8 10 5 6 3 2 4 4 11 25 26
20 22 23 23 21 21 18 16 14 15 14 13 11 10 10 12 4 7 6 4 15 14 7 5 5 3 4 2 3 4 4 6 6 8 18 7 5 2 8 2 6 12 13 15 20
21 22 23 21 19 19 15 13 13 13 13 11 9 8 9 4 3 3 12 4 3 13 8 6 4 3 4 5 5 2 8 6 6 7 6 9 6 4 2 6 7 14 19 15 13
22 22 22 20 18 17 14 13 12 11 10 8 8 6 4 2 8 5 12 2 6 11 9 5 5 5 2 5 5 4 2 4 8 6 5 8 3 7 4 6 11 13 16 15 15
22 22 21 18 17 16 14 12 11 9 8 8 6 4 1 3 4 4 15 10 8 12 9 10 6 5 5 2 2 3 4 6 6 7 6 6 3 4 0 7 11 15 14 14 13
21 20 20 17 16 15 12 10 9 7 6 6 4 1 1 11 3 16 16 13 9 13 5 18 18 3 3 4 2 4 5 6 4 3 3 5 2 2 4 8 12 11 7 6 3
19 19 19 15 14 12 10 8 7 5 5 5 3 1 7 4 12 16 9 7 6 11 16 9 10 2 1 3 6 5 5 4 3 3 0 4 5 1 7 12 7 7 7 7 4
18 17 17 13 11 9 8 6 5 4 5 2 1 3 8 8 7 5 5 4 3 5 5 7 7 3 4 5 5 6 3 1 2 2 3 2 1 9 2 9 7 7 6 6 5
17 15 14 11 10 8 7 5 3 2 2 0 3 2 6 2 4 4 2 3 2 2 6 7 6 4 5 5 4 4 3 1 3 1 4 4 4 6 6 5 6 6 7 7 7
14 14 11 10 9 8 9 5 2 0 3 7 4 3 4 11 4 2 2 1 3 8 2 5 7 3 3 3 4 4 4 2 1 2 6 5 4 7 6 7 7 7 7 7 9
11 12 9 9 10 11 10 3 5 2 4 11 6 6 11 5 2 3 2 3 4 2 1 6 4 4 4 4 6 5 5 2 2 6 5 6 6 5 7 4 5 6 6 7 6
10 10 10 10 11 11 9 8 3 5 2 3 6 5 5 6 3 3 3 3 3 3 4 6 0 2 5 6 8 5 6 0 4 2 7 5 3 4 5 6 6 6 4 5 6
10 11 12 11 7 6 6 6 5 5 4 4 3 5 3 2 2 2 1 3 5 4 5 4 4 5 6 6 3 3 1 2 4 4 2 2 3 2 3 4 4 4 4 5 6
12 13 14 19 4 6 2 3 4 1 3 3 3 2 2 5 3 2 5 4 5 4 5 1 2 5 6 1 3 1 5 4 4 5 4 4 4 5 4 4 4 4 4 5 6
15 15 17 17 7 8 3 3 1 6 4 2 5 4 4 2 2 1 5 7 3 6 6 2 1 3 2 3 3 4 5 8 5 3 2 2 4 4 4 5 5 4 5 7 7
17 17 22 10 3 5 3 2 5 3 3 3 3 3 3 2 4 4 5 5 3 5 4 6 4 5 4 4 3 6 5 3 3 2 4 3 2 5 3 5 10 10 8 7 7
18 17 24 14 4 3 3 5 3 2 5 1 4 4 4 3 4 3 3 3 5 5 4 4 3 3 6 2 4 3 5 4 4 3 3 4 3 4 5 5 8 9 9 8 5
16 17 7 13 11 5 5 3 6 5 3 6 5 5 1 2 5 4 3 2 1 2 5 4 1 2 2 2 2 2 3 3 6 3 2 2 4 3 5 3 6 9 6 7 7
14 10 5 9 8 4 4 5 4 4 1 4 4 4 4 4 4 4 1 2 2 3 1 5 4 2 2 3 5 2 5 2 3 3 3 3 4 4 5 7 6 6 8 8 5
5 3 4 8 7 5 4 6 4 6 5 5 5 4 4 5 4 2 2 1 1 2 3 3 4 4 1 3 2 2 2 5 5 3 4 1 5 4 10 11 10 8 5 5 6
5 3 3 7 4 1 4 5 2 4 0 4 4 3 5 3 4 3 4 2 3 2 3 1 5 3 2 2 3 2 3 4 4 3 2 3 5 2 2 6 6 6 7 6 6
4 3 3 2 4 1 3 2 2 3 2 3 3 2 3 4 5 2 3 1 3 2 6 5 2 3 6 5 3 2 3 4 5 3 5 5 5 2 3 6 6 8 7 6 6
4 3 3 3 1 7 4 3 2 2 1 4 4 5 5 4 5 5 3 1 1 2 5 6 3 5 7 4 3 4 3 4 5 3 4 6 3 4 4 6 6 7 6 6 5
2 4 4 4 2 3 4 6 4 3 1 4 4 4 4 4 3 3 2 2 3 1 3 3 4 2 2 3 2 2 4 6 6 5 5 4 7 6 9 8 8 7 6 5 4
4 4 3 1 6 6 2 6 7 2 3 2 6 2 2 6 6 8 6 4 4 2 3 3 2 2 2 4 6 3 5 7 5 3 7 3 7 5 5 7 7 7 7 5 3
3 3 5 2 4 5 6 6 7 5 4 3 7 5 3 2 3 4 5 7 5 6 3 3 4 3 4 4 4 6 9 9 5 5 7 6 8 6 4 7 8 7 6 5 5

GFSSW_925_spd_045.txt.gz
Wind_Speed
17 17 18 19 20 19 21 20 18 16 15 16 15 14 14 16 16 14 9 12 1 11 10 4 4 3 3 2 3 2 1 4 6 6 5 5 5 3 5 5 3 3 2 11 21
17 18 19 21 21 20 20 19 17 14 14 14 13 13 13 15 16 13 17 13 12 8 10 8 4 4 1 2 1 3 2 7 6 11 9 6 4 6 1 4 2 4 11 21 21
17 19 19 22 21 19 19 18 15 13 13 12 12 12 10 12 4 6 8 3 19 14 8 7 8 5 2 3 5 3 2 6 5 11 18 23 8 1 8 6 5 10 16 18 19
18 20 20 21 20 19 17 15 13 12 11 10 11 10 8 4 2 1 10 3 11 17 12 7 4 5 5 5 4 4 2 5 13 7 1 13 9 4 6 2 4 16 20 17 16
18 20 20 20 19 18 16 14 12 10 9 10 10 7 3 1 8 3 6 7 13 17 13 6 5 4 5 5 4 3 3 5 6 7 5 7 5 3 3 5 14 18 17 18 15
18 20 21 19 18 17 14 12 11 9 9 9 7 4 1 3 4 4 5 3 8 16 9 8 7 7 3 3 2 4 3 4 5 9 4 5 3 4 2 9 13 16 13 11 13
19 20 19 18 16 15 11 10 9 8 8 7 5 1 1 13 2 5 17 10 10 15 5 14 9 2 1 3 4 6 7 5 4 5 4 8 3 2 4 11 14 12 10 10 9
19 19 18 16 15 12 9 7 8 6 6 5 3 1 6 8 10 15 11 4 6 13 13 5 11 3 2 3 3 4 4 4 1 5 2 2 5 6 3 13 13 12 10 9 5
18 18 17 14 13 9 6 6 6 5 3 1 1 1 8 9 7 6 3 3 2 5 6 7 9 3 2 4 3 7 4 3 4 3 5 1 3 6 6 6 8 8 7 6 5
18 17 16 12 10 7 4 4 3 2 2 1 2 2 7 2 6 6 2 3 3 3 4 2 3 3 2 3 4 4 5 2 4 1 7 5 3 6 7 8 7 6 6 6 4
17 16 14 10 8 7 6 4 2 1 4 7 4 3 4 12 4 2 2 1 3 6 1 2 4 3 2 2 3 4 4 4 1 2 6 4 4 6 4 7 7 6 5 6 7
16 15 11 8 8 9 9 3 5 1 4 11 6 5 12 4 2 3 0 2 3 1 2 4 3 1 5 4 5 3 6 3 3 4 4 3 6 6 6 3 4 8 8 8 9
15 13 10 9 10 10 12 13 3 7 1 3 5 4 4 7 3 3 2 2 3 2 2 4 2 3 4 4 8 5 5 3 4 4 7 3 2 2 5 7 8 7 8 9 11
15 11 11 11 7 6 8 13 10 5 3 3 4 5 4 3 0 2 0 3 3 4 4 5 3 4 3 3 2 4 1 4 5 2 2 3 2 2 3 5 7 9 8 8 9
14 12 14 15 5 6 2 5 4 1 3 3 3 3 2 5 2 1 4 4 5 3 3 1 2 3 5 1 2 4 3 4 3 4 3 2 1 3 5 6 9 8 8 8 7
13 13 16 19 9 11 3 3 3 4 3 2 4 5 4 2 2 2 3 6 4 4 5 3 2 2 2 3 4 8 5 6 4 2 0 1 2 2 4 5 11 9 9 10 10
13 15 21 14 4 5 6 4 3 3 2 2 3 4 3 2 3 3 4 4 3 4 3 4 3 3 2 4 3 4 4 2 0 1 3 0 3 4 3 6 16 17 14 13 11
15 16 20 25 10 1 4 3 3 1 5 1 3 3 5 4 3 2 3 2 4 4 3 3 0 3 4 2 4 2 3 4 4 3 1 2 4 2 3 5 7 12 14 13 11
17 15 11 27 26 15 4 2 7 5 4 6 3 4 2 1 4 3 2 2 0 1 5 4 1 1 3 1 1 3 2 2 6 1 1 2 3 4 1 2 10 15 13 12 11
18 11 6 14 13 8 4 5 4 4 3 2 4 3 4 3 3 3 1 1 2 2 0 5 3 1 1 1 6 1 7 3 2 4 3 2 4 4 3 6 9 13 14 9 5
12 4 6 14 12 3 4 6 4 5 4 6 5 4 3 5 3 2 4 1 1 2 3 3 3 2 0 0 5 2 2 5 4 1 3 1 3 3 7 9 15 14 7 7 8
8 3 10 17 3 0 4 5 4 1 3 5 4 3 5 3 3 3 6 2 1 1 4 1 4 3 2 0 1 1 3 4 3 4 1 1 4 1 4 8 7 7 7 9 11
5 2 4 6 4 2 2 3 3 2 2 4 3 3 3 4 4 2 3 0 1 3 6 5 1 3 2 2 1 3 3 4 5 2 5 4 3 2 1 3 6 11 10 11 11
4 3 3 2 1 7 5 4 3 2 2 3 5 4 4 3 4 5 3 1 1 2 5 5 3 4 6 3 2 4 4 5 4 3 5 6 3 5 7 7 8 11 12 12 9
1 4 4 4 2 4 4 6 5 2 1 2 3 3 6 4 2 3 2 2 3 3 3 3 3 2 2 2 1 2 4 9 8 4 6 4 9 5 11 14 13 11 12 11 9
5 4 3 2 7 6 3 6 7 3 1 0 7 3 3 6 6 8 7 4 4 2 2 2 3 2 2 2 3 3 4 7 6 4 10 4 12 8 0 9 12 14 13 11 9
4 3 5 2 3 6 6 5 7 7 3 3 8 5 4 2 3 3 6 8 5 5 3 2 5 3 3 2 3 5 9 12 6 6 7 10 8 7 6 11 15 15 13 11 9

GFSSW_925_spd_048.txt.gz
Wind_Speed
14 12 15 17 19 19 19 20 21 17 16 14 14 14 15 17 18 10 13 12 6 15 10 6 7 7 7 5 5 2 5 4 6 9 10 6 6 5 2 8 6 3 1 10 21
14 13 15 17 20 20 19 19 19 16 15 13 13 13 14 16 14 16 17 12 11 11 12 12 9 10 6 6 5 7 8 4 1 12 14 7 3 7 6 4 4 6 10 21 22
14 13 16 18 20 19 18 18 18 15 12 12 12 11 12 12 7 2 6 6 18 15 8 7 7 9 7 6 8 6 9 4 7 9 11 13 8 8 7 5 4 8 17 20 20
16 14 16 19 20 19 17 17 16 13 10 11 11 10 9 5 1 3 8 0 18 16 10 9 8 9 7 9 9 7 3 3 12 10 6 20 19 10 12 8 2 10 22 22 18
17 14 17 18 19 18 17 15 14 11 10 10 10 7 4 7 7 5 2 6 16 16 15 11 10 10 11 10 7 10 4 2 8 9 4 12 14 3 3 5 11 18 19 16 14
17 15 16 19 18 17 15 13 12 11 9 9 8 4 4 9 2 5 3 4 7 15 14 13 6 9 4 4 9 5 10 10 4 8 8 12 6 5 5 8 14 17 14 13 12
18 15 17 18 17 15 13 11 11 10 8 7 5 1 6 12 1 4 7 6 8 13 9 14 10 8 1 3 3 9 6 7 7 10 6 9 9 6 4 9 14 14 12 11 11
17 16 17 16 16 14 11 10 10 8 6 6 2 2 7 6 6 12 12 8 8 13 11 3 12 6 4 2 4 5 9 7 6 12 4 10 12 4 3 9 14 14 12 11 8
17 16 16 15 14 12 9 8 7 5 4 1 1 3 7 7 8 4 6 3 5 7 7 3 11 3 5 9 7 6 7 9 7 2 6 8 9 4 1 9 11 11 11 11 9
17 16 15 14 12 9 7 5 3 1 1 3 5 4 8 1 4 5 3 4 4 10 6 3 5 7 7 10 8 7 12 10 11 6 12 9 7 5 5 10 10 9 10 9 8
16 16 14 11 10 7 5 2 6 4 6 7 1 5 5 12 2 3 1 5 3 3 6 6 7 9 14 5 5 3 8 13 8 4 7 5 6 3 5 9 10 11 10 7 6
16 14 13 10 8 7 7 7 1 4 6 18 12 9 14 7 4 3 2 4 3 2 4 6 4 4 5 3 5 6 7 7 6 5 4 10 9 7 8 8 8 9 8 8 8
15 13 11 7 6 7 12 15 4 8 5 4 7 6 5 7 3 4 3 2 2 4 1 8 5 3 5 7 8 5 5 10 7 7 2 8 6 8 5 7 6 5 5 8 9
14 12 9 6 4 5 10 13 12 7 4 7 7 5 5 4 4 2 1 2 2 2 2 4 3 5 7 6 4 6 3 6 11 12 7 6 5 10 9 8 8 9 10 10 12
16 13 11 13 1 7 3 5 4 3 5 10 7 4 5 5 4 3 3 3 6 4 4 4 6 6 5 3 2 4 4 5 5 5 5 9 7 8 9 9 11 11 12 12 12
16 13 13 13 8 8 6 2 3 6 6 8 8 10 10 4 3 2 2 4 2 2 2 6 2 2 4 5 3 12 8 6 3 3 8 3 6 6 6 8 12 14 13 13 12
17 15 18 12 6 3 4 4 5 8 3 8 10 12 12 6 6 5 7 8 7 10 9 7 4 4 3 9 6 6 6 3 5 6 6 3 6 10 4 4 11 16 16 14 14
16 16 19 14 8 0 5 5 10 5 7 3 8 13 12 9 4 4 7 9 4 7 9 9 6 4 1 3 3 3 4 3 4 3 1 2 5 3 3 1 5 14 15 15 15
15 12 9 17 17 1 4 9 11 6 6 10 10 14 8 7 4 7 6 7 3 3 7 6 4 4 2 1 3 4 5 3 2 1 3 3 3 6 3 4 9 13 16 17 15
14 9 14 15 21 8 4 13 9 3 4 10 12 12 13 12 9 9 9 4 4 2 4 4 4 2 4 1 7 4 9 3 3 3 4 4 4 2 7 8 12 16 17 16 14
13 5 9 19 18 5 9 14 7 7 5 10 11 7 10 9 8 10 9 4 4 4 1 5 3 6 3 7 6 4 5 1 1 2 2 2 3 3 4 9 14 15 16 15 13
11 7 12 22 9 9 12 13 3 6 5 4 5 7 12 11 8 10 11 3 4 4 6 2 1 4 7 3 1 3 6 9 4 5 1 2 2 5 3 4 8 12 14 12 11
9 4 6 5 12 11 9 12 5 7 6 8 8 5 6 9 5 5 6 2 3 5 6 6 4 4 5 5 5 7 9 5 3 1 6 3 2 4 4 4 9 11 13 12 12
9 7 4 5 6 16 16 15 9 4 4 3 5 4 7 6 1 7 7 3 2 2 2 3 3 7 9 2 0 6 11 12 11 4 5 10 9 8 9 9 9 12 13 14 13
6 8 11 12 13 13 17 13 14 7 2 7 5 8 8 5 6 6 5 5 3 5 3 3 6 4 1 0 3 4 7 13 15 13 8 10 11 9 9 11 11 12 13 14 14
7 6 5 15 15 14 15 14 17 5 6 8 7 9 7 5 9 10 10 7 5 7 5 2 3 3 4 2 2 6 8 11 15 16 15 18 18 10 6 7 11 14 15 15 15
5 1 10 6 11 13 12 14 12 10 2 2 11 9 6 4 4 7 6 7 5 7 6 4 6 4 2 2 2 6 16 18 13 13 14 14 14 7 7 10 14 15 16 15 15

GFSSW_925_spd_051.txt.gz
Wind_Speed
14 15 14 17 18 22 20 18 19 22 20 17 16 17 17 18 20 13 14 12 10 15 10 7 10 13 14 14 12 12 12 13 8 10 9 9 16 8 13 11 7 6 6 14 25
15 15 16 17 18 22 21 18 18 19 20 16 15 16 17 18 19 23 21 15 16 10 16 12 11 12 12 13 10 12 12 5 11 9 7 7 12 8 4 6 1 10 17 18 23
15 15 15 17 19 21 21 18 18 17 19 16 15 14 14 14 14 3 2 12 15 12 16 11 9 10 16 10 14 14 15 6 9 11 11 12 13 5 6 4 11 8 15 17 22
16 15 16 17 18 21 21 18 17 16 16 14 14 12 12 7 3 8 6 3 14 15 13 10 9 12 13 12 12 11 11 6 8 12 6 13 11 16 15 17 3 18 18 18 18
16 15 16 17 18 20 19 17 15 15 15 14 13 10 7 7 13 2 4 3 12 17 17 11 11 13 13 11 7 10 2 8 14 13 4 11 11 10 11 4 10 18 18 18 15
17 15 16 18 18 18 19 16 15 14 13 14 10 7 9 12 1 3 3 3 5 15 15 14 10 12 9 5 10 7 10 6 3 3 3 13 7 11 10 11 17 17 17 15 14
17 16 17 16 18 17 17 16 13 12 11 11 7 5 10 16 3 4 7 6 7 12 11 11 12 9 5 6 4 7 8 8 7 7 6 10 9 11 10 14 16 14 14 14 15
17 15 16 16 17 16 16 14 11 11 9 8 5 7 7 7 11 13 12 13 9 9 10 3 7 8 7 1 4 10 11 13 17 12 6 13 13 9 12 13 14 15 14 13 13
17 16 16 16 16 15 14 12 9 9 7 4 5 7 7 2 11 11 9 6 5 6 6 2 5 6 4 8 10 10 10 12 6 15 9 11 13 12 11 13 14 14 14 13 13
17 16 16 16 15 13 10 8 7 6 3 7 13 7 9 9 0 7 6 7 7 9 7 5 7 8 10 11 9 8 12 11 14 12 10 11 13 11 11 13 14 13 13 12 11
16 16 15 15 13 10 4 3 6 7 12 14 3 10 3 6 7 12 7 9 8 10 10 15 8 12 19 13 7 3 9 10 9 10 12 12 8 9 13 12 10 10 11 11 11
16 15 15 13 12 8 6 8 9 7 10 21 17 12 15 8 7 10 6 9 11 8 13 11 11 18 9 5 9 5 5 10 8 10 8 7 10 10 11 12 12 14 13 13 10
17 14 13 11 9 8 13 14 5 13 7 9 14 12 12 9 9 14 8 10 11 11 16 4 6 6 6 8 9 7 5 10 12 10 13 9 12 12 11 10 9 11 11 11 12
17 15 12 7 6 9 11 12 16 8 5 12 10 8 10 8 8 6 6 7 5 7 14 11 14 7 12 9 4 7 2 0 4 13 14 16 11 13 13 13 12 12 10 12 11
18 16 13 15 7 10 4 4 4 4 5 14 14 7 11 13 4 10 4 8 12 8 6 12 12 10 10 3 7 12 3 4 7 11 12 16 8 21 17 16 16 14 14 13 14
20 17 12 10 13 9 3 3 5 5 9 8 10 13 13 13 6 5 9 7 3 5 12 6 4 2 7 2 3 5 4 6 7 10 8 14 10 8 14 12 16 14 14 15 14
21 18 19 13 7 11 8 7 6 9 5 10 15 17 18 10 9 10 12 14 11 10 10 8 8 4 5 7 4 7 7 7 6 6 9 4 4 15 9 3 10 14 15 15 14
21 18 19 18 13 4 13 8 11 6 14 2 14 16 19 13 12 11 10 15 18 14 10 12 8 11 7 8 5 9 9 5 5 8 6 6 7 3 9 4 4 13 15 15 15
21 13 16 20 15 8 10 13 14 7 12 7 10 17 17 13 6 11 14 14 14 14 13 12 5 7 1 2 5 5 7 5 5 3 6 10 5 7 7 8 9 14 16 16 17
17 14 19 20 21 12 12 18 19 9 5 8 14 15 17 14 11 11 14 13 6 4 8 2 3 5 5 5 6 9 3 4 5 3 7 9 7 6 10 10 11 14 16 17 17
21 7 13 22 23 9 14 20 18 8 8 10 15 13 16 14 15 14 12 6 8 9 7 8 9 8 5 11 12 7 9 7 4 3 4 4 2 8 7 9 12 14 15 17 17
19 10 21 30 11 11 16 22 18 15 9 7 8 13 14 12 12 11 14 10 9 7 11 4 4 9 11 3 5 9 8 9 6 7 5 4 4 4 6 7 10 12 14 16 16
10 8 14 28 14 14 20 22 20 16 12 10 12 12 11 11 10 11 10 6 5 7 6 6 7 9 7 7 6 8 10 8 9 2 9 4 3 6 8 5 7 9 12 14 13
11 9 4 9 16 21 25 20 18 16 9 11 14 13 10 12 12 9 9 4 4 4 4 2 12 10 10 8 5 12 12 12 11 7 11 12 11 9 10 9 9 10 11 11 12
8 13 13 15 19 18 23 17 22 16 11 12 11 16 14 12 14 9 9 6 6 6 6 5 10 13 15 5 7 8 8 11 16 17 15 13 16 8 4 10 9 9 11 13 14
11 13 13 14 23 23 20 26 25 19 16 14 17 19 16 11 12 11 11 9 8 9 8 5 6 4 5 7 8 11 13 13 14 17 18 19 17 16 9 3 8 8 11 14 14
19 10 9 13 24 19 19 24 21 20 5 8 19 17 13 2 7 9 6 1 3 8 10 5 4 4 6 3 5 6 15 17 17 17 14 16 15 11 2 5 10 9 11 13 13

GFSSW_925_spd_054.txt.gz
Wind_Speed
15 14 15 17 18 19 21 23 22 22 23 23 20 18 18 21 27 17 11 15 10 16 16 14 12 14 16 15 17 16 11 14 18 15 5 19 15 18 11 7 7 14 7 8 25
15 15 15 17 18 20 22 23 22 21 22 22 20 18 16 19 22 25 22 18 15 13 9 16 12 12 11 16 14 11 11 16 16 7 7 6 10 7 3 9 21 18 15 19 26
15 16 15 17 18 20 22 23 22 20 21 21 20 18 17 18 11 2 4 17 16 16 16 20 14 11 12 16 13 14 14 13 15 17 12 11 6 17 5 13 4 14 21 23 27
15 16 16 17 18 19 22 22 22 20 19 20 19 17 17 8 2 5 6 2 12 13 11 19 10 12 13 16 13 15 14 5 13 10 8 10 15 13 3 4 2 20 20 20 19
16 16 17 17 19 20 21 21 22 19 17 17 16 14 8 7 16 9 4 3 8 14 14 13 10 9 14 14 12 10 7 11 6 12 2 11 20 6 11 15 17 19 17 17 17
16 17 16 17 18 20 21 21 21 18 15 14 13 9 4 11 10 3 3 2 5 11 14 15 11 11 15 16 6 6 1 12 12 8 14 6 18 8 13 6 16 16 17 18 23
17 17 17 17 18 19 20 20 19 16 13 11 10 6 8 18 15 4 6 7 5 9 12 14 13 9 8 12 7 9 5 6 12 20 15 8 14 9 15 16 12 13 13 10 12
18 17 17 17 18 19 19 19 18 13 10 9 8 5 7 12 14 18 14 13 13 6 10 8 8 7 7 9 1 11 3 2 7 6 13 11 6 13 14 14 13 13 11 10 11
18 17 17 18 18 19 19 18 15 11 9 7 6 7 8 3 14 15 13 15 5 3 3 3 2 5 6 8 4 3 5 14 13 11 12 14 9 16 15 12 13 12 12 11 10
18 17 16 17 17 18 17 15 14 11 7 7 14 8 9 12 11 12 8 5 6 7 4 5 4 5 3 9 9 13 15 14 12 10 11 13 6 13 15 17 15 11 11 12 11
18 17 16 16 17 16 13 11 6 4 10 10 6 6 6 4 8 12 15 10 12 9 4 4 2 8 12 11 14 10 7 15 13 11 8 9 15 13 11 14 12 17 15 13 10
18 16 15 15 15 13 8 7 8 7 9 19 20 16 17 10 10 12 18 8 13 11 8 2 14 10 14 15 21 14 4 7 8 9 10 11 11 11 14 11 12 12 12 13 13
19 16 14 13 13 12 13 18 14 15 7 14 21 17 14 15 14 14 11 13 7 10 10 7 14 25 21 11 11 5 6 11 4 8 8 8 11 14 11 8 7 9 12 13 14
20 16 13 10 7 10 12 14 17 8 5 11 14 12 14 8 13 19 21 13 8 14 5 2 16 21 20 8 13 12 6 17 9 16 7 7 1 3 13 15 16 16 17 16 14
21 17 14 13 11 8 7 2 4 5 5 11 15 9 14 16 2 13 7 10 13 9 4 11 19 16 17 6 8 1 11 13 12 7 7 7 7 16 15 15 14 11 10 10 11
23 18 15 11 12 16 7 7 4 5 7 7 10 12 19 15 12 5 11 12 7 10 6 3 3 12 3 2 3 6 6 14 9 9 6 13 13 4 10 12 14 14 12 11 10
24 21 21 12 9 11 7 6 5 8 4 9 13 14 17 14 15 10 10 16 11 9 10 5 13 11 6 8 5 11 9 4 6 6 5 7 13 8 20 17 27 16 14 13 12
25 21 21 20 15 6 9 6 12 13 19 3 11 15 20 17 14 12 13 14 17 16 11 11 13 14 9 6 4 17 8 2 2 5 5 13 6 7 11 8 13 14 13 14 14
25 19 14 20 21 10 8 12 11 12 16 8 11 14 17 18 10 14 15 16 17 18 12 5 3 6 8 4 14 8 3 5 6 5 2 5 11 5 10 10 10 14 15 14 14
20 14 19 23 21 12 8 20 16 25 5 12 12 13 16 18 13 11 14 13 16 16 14 5 6 15 14 4 4 6 7 4 2 2 5 10 13 6 10 10 10 12 13 14 14
19 6 11 26 22 9 13 18 23 21 15 10 13 13 17 14 15 13 9 10 16 6 4 9 25 9 8 7 10 6 8 8 10 4 2 3 4 8 10 11 10 11 13 14 14
10 9 29 38 10 10 15 21 23 26 9 9 10 16 13 15 14 16 14 13 10 7 6 11 5 6 11 5 5 10 10 9 4 7 2 3 6 3 3 8 9 9 12 13 14
7 7 30 37 12 13 18 25 26 25 16 14 12 12 13 14 11 13 9 4 6 7 3 4 4 6 11 8 8 8 12 10 9 2 4 3 3 5 5 6 8 7 11 11 14
8 8 5 11 12 20 23 22 25 22 18 14 12 14 12 12 8 9 9 4 3 2 4 3 6 10 7 11 5 6 11 11 10 2 4 10 14 8 11 9 6 5 4 10 10
7 10 12 9 15 17 20 20 25 23 17 15 16 17 14 9 12 11 11 7 4 3 2 3 9 12 15 15 7 10 12 7 10 10 10 11 15 12 4 12 10 8 7 6 7
10 10 10 8 19 22 22 25 24 25 18 20 13 16 13 13 12 10 11 8 7 7 8 5 6 6 9 10 12 11 15 14 14 15 14 14 14 12 8 9 4 4 7 7 9
18 17 9 10 21 21 21 22 25 18 20 23 16 14 15 10 4 8 2 12 7 11 10 7 3 2 3 6 7 5 10 16 16 15 11 12 11 8 3 2 3 4 6 3 5

GFSSW_925_spd_057.txt.gz
Wind_Speed
15 16 15 15 16 17 19 21 22 23 22 24 24 23 22 23 28 13 7 11 8 13 11 11 14 19 15 5 9 1 2 7 9 2 5 2 2 4 7 4 6 10 10 13 31
15 16 16 16 17 18 19 22 22 23 23 23 23 22 21 22 24 16 10 10 14 19 10 9 10 10 5 6 5 2 2 6 0 6 5 7 6 4 1 2 8 13 13 19 27
16 15 17 16 17 19 20 21 22 22 22 22 21 20 19 19 6 5 4 3 13 14 12 14 19 12 6 5 7 7 8 4 4 6 10 6 5 4 8 2 4 17 20 15 20
16 16 16 17 17 18 20 22 22 22 22 20 19 19 19 6 0 0 5 5 10 15 7 6 7 5 5 8 9 6 5 7 4 4 6 4 1 2 7 5 15 21 14 15 13
16 16 16 17 17 18 19 21 22 21 20 18 16 16 8 3 9 10 6 2 7 9 10 9 10 5 6 6 8 10 8 9 6 4 9 8 8 4 4 11 16 18 20 16 13
16 16 16 17 17 19 20 21 22 21 18 15 13 12 3 5 6 6 5 2 5 11 11 15 8 9 6 8 6 5 14 14 6 8 8 4 4 5 10 19 9 18 18 16 23
17 17 17 17 17 19 19 21 21 19 16 13 11 7 4 15 11 9 6 7 12 12 6 16 22 3 4 6 8 5 6 5 7 7 2 2 8 6 3 23 20 17 15 20 32
17 17 18 18 18 19 20 21 20 18 14 11 9 2 7 14 15 19 12 18 18 16 10 7 12 4 2 6 8 5 4 1 11 15 4 4 7 4 9 8 10 13 13 21 26
18 17 17 18 18 19 21 21 19 16 13 9 6 4 9 18 9 16 15 20 6 5 3 4 3 1 5 1 3 5 1 3 5 15 13 6 5 5 8 7 8 8 11 14 11
18 17 17 17 18 18 21 20 17 16 6 4 10 5 9 5 12 13 18 23 3 4 2 0 1 1 2 3 3 3 3 5 8 8 13 7 8 8 8 9 9 8 8 9 10
19 17 16 16 16 17 20 8 3 0 4 8 6 6 13 12 6 3 11 9 4 3 3 3 4 3 6 8 8 9 8 11 10 11 9 9 10 13 8 9 6 4 8 8 10
19 18 16 15 14 15 12 3 6 8 8 16 20 17 27 18 5 9 18 4 4 3 7 5 1 4 12 11 13 12 6 24 16 6 6 8 8 10 11 10 11 10 6 10 9
19 17 15 13 13 15 13 17 18 16 4 10 15 10 8 11 8 13 5 7 6 7 8 7 7 4 6 12 15 5 4 2 5 6 2 3 3 6 6 9 7 13 10 11 15
19 18 14 10 9 7 7 10 2 3 3 7 7 8 8 7 7 16 19 8 3 9 8 5 7 9 8 10 9 1 5 5 6 4 2 4 3 3 6 6 14 14 13 11 12
21 19 16 13 7 5 8 13 11 3 4 6 10 9 9 9 2 4 25 7 9 8 6 10 3 4 7 7 1 6 8 5 4 6 3 3 6 6 5 3 7 8 10 12 15
22 21 17 14 14 19 12 14 4 1 6 4 8 7 8 11 8 5 6 1 2 5 7 9 3 6 7 9 7 6 4 2 5 2 2 9 5 5 8 12 5 7 8 10 11
23 24 24 14 5 7 6 3 1 4 5 8 12 10 9 6 8 5 7 5 4 3 3 4 6 4 4 5 2 6 3 3 5 6 4 5 4 8 4 13 14 12 9 10 10
25 25 26 25 21 10 3 2 7 11 11 3 9 9 12 7 9 11 5 5 9 5 4 6 2 3 2 5 5 3 3 4 4 2 5 4 5 4 7 8 16 14 9 11 11
24 25 16 28 25 10 2 9 8 6 10 4 8 9 9 11 7 10 8 7 9 10 7 3 4 5 7 6 2 1 4 6 2 2 3 4 3 6 6 3 10 9 10 10 11
20 13 14 24 17 9 5 13 7 14 10 9 8 7 8 11 8 7 8 7 8 13 8 1 3 4 8 6 7 7 12 3 3 1 3 4 3 4 6 6 9 8 9 9 9
12 5 12 25 17 4 12 13 14 20 14 6 4 6 7 7 10 7 6 7 8 4 10 6 5 4 4 5 13 1 3 3 4 5 5 1 5 5 10 9 9 10 12 11 12
7 7 26 37 6 4 14 12 11 21 18 9 6 2 3 8 6 9 7 8 4 8 8 8 4 3 13 23 10 6 5 5 5 5 3 5 5 2 8 9 10 10 14 14 15
4 4 26 32 12 13 9 15 21 15 13 7 2 3 4 4 4 3 7 7 5 4 5 2 2 2 2 2 3 3 6 4 3 4 4 5 5 2 6 7 8 9 9 12 13
3 7 6 9 9 19 16 16 22 18 20 19 8 8 6 5 4 6 3 2 5 4 2 7 0 5 6 6 3 4 4 6 3 4 4 5 4 9 7 7 6 6 7 10 13
4 8 8 11 16 11 18 13 20 20 14 10 11 11 8 4 3 6 3 3 2 1 2 4 4 1 4 6 4 5 0 5 4 6 6 8 7 10 5 11 9 8 6 7 7
4 6 6 4 17 18 17 22 25 19 15 15 10 8 8 6 7 6 7 5 5 1 4 1 2 3 1 5 8 4 5 6 6 6 4 3 5 4 4 8 8 7 2 7 9
11 9 7 7 17 18 16 19 21 19 12 18 9 7 5 8 2 4 3 9 9 9 7 6 4 3 2 4 6 6 6 6 6 5 4 4 7 5 5 7 6 6 7 6 8

GFSSW_925_spd_060.txt.gz
Wind_Speed
13 14 14 15 13 17 17 19 21 22 23 24 24 23 24 25 28 17 7 5 3 3 4 6 10 9 6 4 5 4 3 4 5 6 4 5 6 3 7 4 5 3 3 14 21
14 14 15 15 15 16 17 19 21 22 23 23 23 22 22 24 25 12 7 7 10 6 5 3 4 5 2 4 2 4 3 5 4 5 4 4 3 5 2 2 4 4 13 31 27
14 15 16 15 15 16 17 19 21 22 23 22 21 21 21 20 5 6 6 6 8 4 5 6 9 1 3 4 4 3 4 7 1 3 7 5 4 3 5 1 6 11 17 18 28
15 15 16 16 15 17 17 18 21 22 22 21 20 19 18 5 1 2 5 5 5 7 5 2 1 1 3 5 3 4 7 8 9 7 6 4 7 3 3 6 4 5 14 19 14
16 16 17 16 16 17 18 19 20 21 21 19 17 16 7 3 9 7 12 5 6 9 7 3 2 3 3 6 6 6 5 4 8 10 6 5 4 6 2 2 15 13 18 14 14
17 17 17 17 18 18 18 19 21 21 19 17 15 12 3 4 3 6 2 3 5 8 5 5 6 3 6 4 5 0 5 8 3 6 5 2 4 9 6 4 14 8 18 15 16
18 17 18 18 18 19 19 19 21 20 18 15 12 7 2 14 3 3 14 17 12 9 4 9 8 4 2 6 1 3 6 5 5 7 1 4 5 4 7 5 12 13 17 21 24
19 18 18 18 19 20 20 21 21 20 17 12 9 2 7 11 14 16 13 13 11 13 16 11 3 2 0 3 7 3 4 4 3 1 3 8 2 4 11 11 8 12 13 17 19
20 18 18 18 19 20 22 23 23 20 12 9 4 1 10 14 8 11 15 10 11 16 17 4 3 2 6 3 4 5 1 6 1 6 2 5 3 4 14 8 9 14 14 16 13
19 19 18 17 18 20 22 24 21 13 2 1 3 4 8 3 7 8 18 14 5 2 4 4 4 2 3 5 2 3 2 3 5 5 4 3 6 6 12 12 14 16 16 16 14
19 18 17 16 17 18 21 9 3 1 3 8 5 5 6 10 12 3 11 3 5 6 3 4 4 3 4 5 4 6 11 10 10 8 4 8 6 10 8 9 14 16 17 17 16
20 17 17 15 15 16 15 2 5 2 8 15 17 14 23 9 5 10 2 4 4 4 3 5 3 4 1 5 1 5 8 17 16 6 10 5 7 6 7 13 16 17 15 17 12
22 17 16 14 14 15 10 13 10 15 3 8 9 7 6 12 8 8 4 5 5 6 5 6 7 1 2 4 4 10 8 6 7 3 6 5 3 2 3 2 3 6 11 13 17
22 19 15 12 9 5 7 8 14 7 2 7 5 7 7 5 5 13 8 6 4 7 3 4 3 4 2 1 5 7 7 5 2 3 5 2 4 4 7 10 4 6 7 11 12
20 18 17 15 3 4 2 17 8 3 3 4 5 8 9 9 3 5 11 4 6 6 6 7 7 6 4 9 6 10 3 4 2 4 4 2 4 6 5 9 14 14 13 13 16
21 20 19 16 18 20 16 20 3 2 7 4 7 7 7 6 3 4 5 4 5 6 4 6 1 6 7 6 6 8 3 7 7 3 3 2 5 5 5 12 9 7 12 16 15
18 21 25 20 5 5 9 1 2 5 5 5 6 7 7 7 5 4 5 6 5 4 2 2 3 2 3 4 4 4 6 3 4 4 4 6 3 8 6 9 9 9 10 12 13
21 20 26 29 20 8 3 2 9 8 7 4 6 8 9 7 6 6 4 4 1 4 3 5 4 2 1 3 1 4 4 5 3 3 5 3 5 5 7 8 3 7 10 11 13
20 21 18 33 27 11 2 12 8 6 4 4 4 6 5 7 5 5 8 8 8 8 7 4 4 5 2 3 5 2 2 7 4 1 1 3 5 7 4 3 0 8 8 9 11
19 12 15 26 25 9 5 13 6 8 6 5 5 5 9 9 8 7 6 6 7 10 6 6 1 4 5 2 4 5 6 3 3 2 3 4 4 5 4 3 3 7 9 8 8
19 5 17 25 21 4 12 12 9 20 4 3 3 3 8 9 9 6 7 7 8 3 9 6 4 4 3 5 9 3 2 1 4 4 4 1 5 5 8 7 9 9 12 15 14
10 7 27 34 8 3 14 12 10 20 5 6 3 6 5 9 8 9 10 9 5 10 9 6 5 4 8 4 3 4 5 6 5 4 1 4 5 4 10 10 10 11 11 12 16
7 4 26 30 11 12 7 18 15 13 5 4 5 5 4 2 2 7 6 0 1 6 8 8 2 2 8 7 4 2 6 5 4 4 6 5 6 2 3 7 8 9 8 11 12
5 8 5 9 8 19 18 18 21 14 19 7 7 6 6 2 4 5 3 3 2 4 8 7 5 7 8 7 3 4 5 5 6 3 4 6 6 6 7 7 8 8 9 11 13
5 8 10 13 17 17 19 12 17 15 13 9 8 15 9 5 3 5 2 3 2 4 4 5 5 4 5 3 3 1 3 2 4 4 5 7 7 8 7 8 11 8 7 7 7
4 4 7 5 17 20 21 22 25 20 10 17 15 13 6 8 8 7 7 4 5 1 4 2 2 2 3 3 3 3 3 5 4 3 5 5 6 5 3 0 6 9 7 7 9
19 10 4 15 18 18 21 22 24 22 14 21 15 14 10 10 9 7 8 9 10 10 6 7 6 3 4 3 4 6 6 7 5 5 5 5 5 2 5 7 4 3 5 7 8

GFSSW_925_spd_063.txt.gz
Wind_Speed
14 15 15 16 16 16 17 18 20 22 22 24 25 25 25 28 31 17 6 1 2 7 2 4 2 2 3 1 3 3 4 3 5 3 4 2 2 2 2 1 3 4 2 13 23
15 15 16 16 17 17 17 18 20 22 22 24 24 23 23 28 25 10 4 4 8 4 1 1 2 3 3 1 2 4 4 7 5 3 4 3 4 2 1 1 4 9 12 20 24
16 16 17 17 17 18 18 19 20 21 23 23 23 22 22 21 5 5 5 8 6 8 3 2 1 2 2 1 4 5 5 6 5 6 4 5 4 3 2 3 5 12 15 15 17
16 16 17 17 18 18 19 19 20 21 22 23 22 20 19 8 2 1 5 8 4 8 5 3 2 3 1 4 4 2 9 6 4 5 4 6 6 2 4 4 4 15 15 14 14
17 17 17 17 18 19 20 20 21 22 22 22 20 17 8 4 8 4 7 5 3 8 5 3 2 3 1 4 4 2 2 3 6 8 3 6 3 3 4 8 11 17 17 15 11
19 18 18 18 19 20 20 21 21 22 22 20 17 13 3 4 4 4 3 2 1 8 4 6 5 4 4 4 2 2 5 3 4 7 7 6 1 4 4 5 15 14 14 14 15
20 19 19 19 20 21 22 22 22 23 22 20 13 6 1 14 3 5 13 14 15 14 4 6 3 3 2 5 3 4 5 5 2 2 4 8 4 1 7 5 19 15 14 15 17
19 21 20 20 20 21 23 24 24 24 24 16 9 2 7 7 7 15 14 13 12 16 18 7 4 4 2 1 5 5 4 1 5 1 4 3 3 4 7 8 12 12 10 11 19
17 19 21 20 19 21 24 26 26 26 17 9 3 1 9 12 9 10 14 9 5 7 8 10 1 3 4 3 4 2 3 1 6 3 2 4 3 5 6 9 12 12 12 11 13
19 19 20 19 18 20 24 27 22 8 1 2 1 3 7 2 5 11 9 10 2 3 3 4 4 2 3 3 2 2 3 2 4 4 2 2 1 4 9 8 12 12 13 13 13
19 19 18 18 16 18 22 11 5 1 4 8 5 4 5 11 6 2 2 7 3 4 3 2 4 1 3 5 5 3 4 4 6 6 5 7 5 8 11 3 6 7 11 14 16
19 19 17 14 15 16 16 2 4 2 8 13 18 12 19 4 4 5 5 5 4 5 1 3 3 5 1 4 1 3 3 7 9 7 8 6 5 3 8 9 13 15 13 15 14
19 18 17 12 14 14 10 10 8 13 4 8 7 6 6 13 7 7 6 5 5 6 5 6 5 4 3 2 5 5 4 6 9 2 2 5 0 6 6 4 7 11 15 15 17
20 17 16 10 8 8 6 4 19 10 2 6 5 7 7 8 5 13 7 6 2 9 6 5 3 3 2 5 4 4 4 7 5 2 3 2 3 5 8 12 9 14 13 15 15
20 16 16 15 3 4 3 10 7 2 3 3 4 9 8 10 3 6 9 3 8 6 6 6 4 5 6 10 6 7 5 4 1 1 3 1 3 5 7 9 15 15 16 14 17
20 17 16 17 21 23 15 17 4 3 7 4 6 6 6 3 2 2 5 3 3 5 2 5 3 6 6 1 5 3 2 5 5 2 2 2 4 4 6 16 17 15 16 16 12
21 19 21 15 6 11 10 2 2 5 5 4 5 6 6 6 3 2 6 6 6 4 4 0 3 2 2 2 1 4 5 3 4 4 4 1 2 8 7 5 9 17 18 15 16
22 17 21 29 19 5 2 3 8 6 7 5 2 5 7 5 5 6 5 6 2 4 3 5 5 4 1 3 3 3 5 5 3 3 4 2 4 6 3 8 4 9 11 13 16
22 21 19 23 23 13 1 10 7 6 4 4 3 5 4 4 6 3 7 7 8 8 7 5 4 3 2 1 5 1 1 1 5 3 2 3 6 9 7 4 4 6 8 11 13
22 13 19 21 25 10 4 17 7 6 5 4 8 6 8 7 6 7 7 4 5 10 5 7 1 2 2 2 2 3 7 3 2 3 3 4 4 5 7 5 3 4 8 7 8
18 4 15 23 21 4 11 11 15 15 3 3 4 2 7 8 9 5 7 5 7 4 4 5 5 4 1 5 7 2 2 1 4 4 4 1 5 6 7 6 7 9 8 9 10
10 7 28 38 8 5 14 8 6 18 9 4 4 4 4 7 7 9 10 8 7 9 9 6 6 6 9 3 4 4 7 6 4 4 2 4 6 4 9 8 5 7 8 8 10
6 7 29 31 13 14 8 14 9 10 7 7 5 5 4 4 3 7 8 6 7 8 9 7 1 2 6 4 2 5 5 4 4 4 6 5 6 3 6 7 8 8 7 8 10
5 8 6 10 15 20 20 16 21 12 13 3 3 3 2 3 3 4 6 2 5 8 1 9 4 7 7 8 3 3 4 5 5 3 4 6 6 6 8 7 7 8 8 9 12
6 10 7 12 22 18 21 16 23 15 14 16 5 8 2 3 2 4 3 2 3 5 4 4 6 5 4 4 4 4 4 5 6 6 6 7 7 9 8 8 9 9 5 7 8
9 6 6 3 18 24 20 22 26 22 9 9 11 7 13 10 7 5 6 4 5 2 5 1 4 3 3 2 3 3 6 5 4 3 6 6 6 7 4 3 5 7 7 9 8
18 2 5 10 19 21 27 22 24 21 18 16 20 13 10 13 8 11 7 3 6 10 6 6 6 4 5 1 3 5 8 8 6 6 6 6 9 2 2 4 4 7 2 4 6

GFSSW_925_spd_066.txt.gz
Wind_Speed
15 15 16 16 18 19 20 20 21 22 23 26 27 27 27 29 32 13 4 2 2 9 5 4 3 4 3 2 3 3 3 2 4 3 4 1 2 1 3 2 3 4 1 7 24
17 16 16 17 18 19 20 21 21 22 24 26 27 27 26 28 24 9 2 1 7 7 4 5 3 4 2 2 2 4 4 7 6 4 2 2 3 2 2 2 3 6 10 15 22
18 17 17 18 18 19 20 21 22 23 24 26 26 26 25 22 5 4 3 6 9 7 4 3 3 2 1 1 4 4 6 6 5 3 5 3 2 1 1 2 4 10 11 9 15
19 19 18 18 19 19 21 21 22 23 24 25 25 24 22 9 2 1 5 8 6 10 5 4 2 2 2 3 4 2 6 5 1 4 4 5 3 2 2 3 4 12 11 10 10
20 19 19 19 20 20 21 22 23 23 23 24 24 21 10 4 9 3 7 2 11 9 3 3 3 4 3 2 2 3 3 3 4 5 4 5 2 2 6 7 11 13 11 13 12
20 18 19 20 21 21 21 23 24 25 23 23 23 16 3 5 3 3 5 2 5 7 2 4 4 5 2 2 1 1 4 2 3 4 3 3 2 3 2 8 11 11 10 9 9
20 20 18 20 22 22 22 24 25 26 25 24 19 8 2 15 5 7 9 7 8 6 2 7 5 3 1 3 0 2 4 4 1 3 3 4 3 4 7 8 10 12 10 8 6
19 20 19 20 22 22 23 25 26 29 29 22 8 1 7 8 8 14 15 15 10 10 12 11 7 3 1 0 6 4 5 3 3 4 1 4 1 4 7 9 6 7 7 7 11
19 19 18 18 20 21 23 27 28 30 19 6 2 3 10 7 9 7 15 8 4 2 6 6 2 1 4 4 4 6 1 1 6 4 3 3 2 5 5 7 6 6 9 9 8
19 19 18 17 19 19 22 27 24 8 2 4 2 2 8 2 3 7 8 7 3 3 2 2 4 3 3 4 4 4 2 3 5 3 3 1 3 5 6 5 9 7 7 7 11
19 19 17 15 17 17 21 12 5 1 3 7 4 4 5 11 4 3 3 9 3 6 1 3 4 3 6 5 5 5 2 3 5 5 4 6 4 10 9 4 7 7 8 10 14
19 18 15 15 14 14 13 1 3 1 8 11 18 10 19 5 5 5 7 5 4 6 1 4 2 4 5 3 4 2 1 6 8 3 5 3 6 5 13 13 11 12 10 13 10
19 17 14 12 11 11 9 12 2 12 4 8 6 6 6 12 8 7 7 5 4 5 5 5 5 4 3 2 2 3 3 4 7 3 1 5 3 5 5 6 7 9 11 10 14
22 16 13 8 7 6 5 3 15 8 3 6 5 6 7 9 4 11 9 6 2 10 7 5 2 7 5 4 6 3 6 3 3 2 2 0 4 5 5 10 8 12 11 14 13
20 17 13 13 2 4 3 5 7 1 4 3 4 8 7 10 6 7 9 4 8 6 6 6 5 6 6 5 4 8 2 1 2 3 2 1 3 6 1 6 13 13 14 14 14
21 17 13 13 18 17 7 18 2 2 8 4 6 7 6 3 3 4 4 4 4 4 1 5 2 5 7 2 5 3 2 6 5 3 1 2 4 5 5 10 10 12 13 15 14
24 20 18 13 5 15 10 2 2 6 4 4 4 5 5 6 4 5 7 7 6 4 3 2 3 2 3 2 3 4 4 3 4 4 4 1 2 8 4 6 8 11 16 15 14
25 21 22 22 16 6 5 2 11 5 7 4 1 5 7 5 4 5 7 6 2 4 3 6 5 6 4 5 7 4 5 5 2 2 4 3 4 5 5 5 8 8 10 9 11
25 24 23 22 24 13 2 7 7 6 5 3 1 4 4 5 6 5 7 8 9 8 7 5 4 1 1 1 3 3 2 5 6 2 2 3 7 9 3 0 1 4 4 9 12
20 14 20 19 23 9 4 15 9 4 4 3 5 5 8 6 6 8 8 5 6 10 5 7 1 2 3 3 3 2 6 3 3 2 3 4 5 5 8 9 2 3 7 7 7
16 5 12 25 23 7 12 11 15 9 3 3 2 3 5 7 9 6 9 3 7 5 5 5 4 4 2 5 8 2 0 4 4 5 4 1 6 7 6 6 7 6 7 7 7
8 8 19 39 13 10 16 7 7 17 4 3 2 4 4 6 6 7 10 9 9 9 9 6 5 5 8 1 3 4 7 6 4 4 2 4 6 5 8 6 5 7 6 6 7
6 6 26 32 14 17 15 14 4 8 8 5 4 4 3 2 3 7 7 5 10 8 9 8 1 1 7 5 2 3 5 4 4 3 6 5 6 2 6 8 8 7 6 6 8
7 7 7 12 15 19 22 17 21 7 7 3 2 2 0 3 4 3 7 3 7 7 6 8 4 7 8 8 5 4 5 5 6 3 4 6 6 9 9 7 8 8 7 7 6
5 6 6 13 20 20 23 16 22 16 12 9 3 5 4 3 2 4 3 3 2 7 4 7 7 5 4 4 5 6 5 8 7 6 6 7 8 9 7 6 7 6 5 6 9
2 4 5 4 19 25 17 24 27 25 10 12 8 11 7 5 6 2 2 2 5 4 6 2 5 4 3 2 4 3 7 6 6 4 6 5 7 9 6 4 5 6 7 7 8
20 8 2 13 18 19 27 23 20 20 18 8 21 12 7 16 13 10 5 4 2 4 8 8 6 4 4 3 3 6 8 9 7 5 7 8 10 4 3 3 3 7 8 5 3

GFSSW_925_spd_069.txt.gz
Wind_Speed
17 18 18 17 18 18 19 20 21 21 22 24 26 26 28 30 33 13 5 1 3 12 9 8 6 5 3 3 3 3 1 2 4 2 3 1 1 1 2 3 2 3 0 4 19
18 18 19 19 18 19 19 21 22 22 22 24 25 26 27 29 25 7 1 3 9 11 8 9 5 6 3 3 2 2 3 7 5 4 3 1 2 3 3 3 2 2 4 14 19
17 17 19 20 19 20 20 20 22 23 24 24 25 26 26 23 5 3 3 3 10 9 5 3 5 3 3 2 3 4 5 2 3 7 3 3 3 2 1 3 4 6 12 10 14
19 18 20 21 20 20 21 21 22 24 24 24 24 25 23 8 2 1 3 2 8 10 4 2 2 3 3 3 3 3 4 4 3 1 2 3 3 3 1 3 6 8 14 12 10
21 19 17 19 20 20 22 22 22 24 24 24 24 23 9 4 8 4 4 5 12 10 5 3 2 2 1 2 2 4 3 1 3 3 3 5 5 2 6 7 5 12 11 10 8
18 20 19 17 19 20 23 24 23 24 24 25 23 17 2 4 3 2 6 9 9 8 5 5 2 2 1 2 3 3 1 3 1 2 3 3 1 2 2 3 7 7 7 7 9
19 18 18 19 16 21 24 26 25 25 27 28 22 7 1 14 5 6 8 4 7 7 3 6 3 2 0 2 2 2 1 3 1 2 1 2 1 2 1 4 8 7 9 9 10
20 19 19 18 18 20 23 26 26 27 31 24 8 3 7 9 10 13 13 11 11 11 12 5 4 2 2 1 3 2 3 2 0 3 1 3 3 2 5 5 8 7 10 7 8
19 19 19 20 16 18 22 25 27 29 18 3 4 3 9 6 8 5 14 7 5 5 6 3 3 1 2 3 1 4 1 1 3 4 2 5 2 6 9 7 7 8 6 8 9
20 18 18 17 18 17 20 23 25 9 2 3 2 2 7 1 3 2 5 9 3 4 3 2 3 1 2 2 5 4 2 1 3 1 3 4 4 8 12 10 8 7 9 9 11
20 19 18 16 16 16 17 10 5 2 3 7 3 4 4 7 3 3 5 9 4 3 3 1 2 5 6 7 4 5 4 3 3 3 3 4 4 13 14 11 11 10 9 10 11
19 17 18 14 14 13 8 3 2 0 9 13 18 11 20 4 5 4 8 6 5 6 3 1 5 4 4 4 5 4 4 5 5 2 5 2 6 7 13 15 16 16 14 14 11
17 17 16 13 12 12 7 11 4 10 4 7 8 6 6 13 9 7 8 4 4 5 6 5 2 5 4 3 5 4 4 4 6 2 1 1 2 4 7 11 11 13 15 14 16
19 16 16 11 6 7 4 1 10 6 3 6 5 6 7 9 5 11 12 5 2 10 8 5 2 5 4 4 5 3 6 3 2 2 1 2 2 3 7 13 13 16 16 17 17
21 20 14 12 5 4 4 4 6 2 4 2 3 7 6 7 7 7 8 3 9 6 6 4 6 4 5 5 6 5 4 3 1 2 1 1 2 3 3 11 18 20 19 19 18
23 21 13 13 17 11 9 14 1 1 9 4 5 6 6 3 1 4 4 4 4 5 1 4 0 4 5 4 4 5 3 4 3 2 1 1 3 4 4 5 5 16 18 19 19
24 22 18 15 5 13 15 5 3 7 4 3 4 5 5 6 3 4 10 8 6 6 4 1 3 2 3 3 1 2 3 0 1 1 2 4 2 8 5 8 10 11 15 18 18
23 21 23 22 24 6 7 3 10 6 8 5 1 3 6 5 4 3 9 12 3 5 4 6 4 7 5 5 5 3 4 4 3 3 2 2 5 4 4 7 10 9 7 12 16
23 24 21 22 23 12 3 10 8 7 4 4 1 3 4 4 4 3 7 13 13 8 7 5 5 2 2 3 3 3 3 1 6 2 0 2 4 9 3 7 8 8 6 7 13
25 15 21 24 23 14 6 21 8 6 2 1 5 5 9 6 6 8 8 5 8 9 4 7 3 1 2 2 4 3 7 3 1 3 3 2 3 4 5 4 5 7 8 4 6
23 6 11 27 24 7 15 16 14 8 1 1 2 2 4 6 8 6 10 2 12 9 4 5 3 1 3 5 9 4 3 3 4 2 2 2 3 6 6 3 4 6 8 8 6
10 9 21 40 13 10 20 21 12 21 3 4 2 3 3 5 6 6 10 6 9 12 10 6 4 5 6 2 2 2 6 6 3 4 1 2 6 4 8 7 6 8 7 8 7
4 5 25 34 14 16 15 21 16 13 12 6 4 5 0 2 3 5 6 4 9 9 11 8 2 3 2 1 1 3 4 3 4 3 7 5 5 1 5 6 5 8 5 5 7
5 7 5 12 16 21 20 21 24 19 8 8 4 3 1 3 3 2 5 3 7 5 6 9 4 6 8 8 5 4 6 7 6 3 5 7 10 8 8 5 9 6 5 5 7
7 5 7 14 20 22 20 15 26 16 14 8 6 6 4 4 2 3 2 2 2 5 3 5 6 6 5 4 5 5 5 11 10 7 7 12 11 11 10 5 5 4 4 7 6
7 5 6 5 23 23 19 22 28 27 14 14 7 13 12 4 6 3 5 3 1 0 5 3 4 6 4 3 6 4 6 8 7 4 9 8 9 11 5 4 5 4 5 6 7
15 7 4 17 18 19 26 24 18 20 16 11 15 6 10 18 8 2 3 4 3 1 3 3 6 4 5 1 4 4 7 10 5 5 7 10 11 1 5 5 2 3 4 4 4

GFSSW_925_spd_072.txt.gz
Wind_Speed
14 15 17 17 17 17 19 20 22 23 24 25 25 26 28 30 30 9 4 1 4 11 10 9 8 7 7 6 5 4 6 3 3 5 4 2 3 1 2 3 2 2 2 5 17
16 16 16 17 20 18 18 19 21 23 24 25 26 26 28 29 18 10 4 3 7 14 8 9 8 8 5 5 4 7 5 0 3 7 9 5 3 3 5 3 4 4 3 11 14
19 19 19 19 19 20 20 20 20 22 24 25 27 27 27 23 7 3 4 5 11 11 5 5 3 6 7 4 6 3 8 7 6 7 8 5 2 2 5 6 4 4 6 11 14
20 21 21 18 18 18 20 21 22 22 23 25 26 27 25 7 4 3 4 6 13 9 7 6 6 7 7 7 4 8 4 7 8 4 3 1 1 2 5 8 9 6 9 9 10
19 19 18 18 19 19 20 20 23 24 23 25 26 26 13 8 7 5 5 7 13 11 10 6 6 5 7 3 4 9 7 5 3 3 1 0 3 3 5 9 8 6 11 10 8
19 20 19 18 17 21 20 21 24 25 24 25 26 21 6 11 2 3 6 10 8 12 9 7 2 3 5 4 6 1 5 2 3 4 3 4 1 5 7 4 6 4 4 7 9
19 20 20 20 18 17 20 22 25 24 25 28 23 8 8 15 4 8 7 5 9 9 6 6 4 6 2 3 1 1 6 6 4 2 1 6 9 1 6 1 5 6 6 5 9
20 20 20 20 21 18 19 22 25 25 26 26 13 4 8 7 6 12 10 10 9 10 7 4 4 6 7 1 4 6 6 7 5 4 2 5 7 6 8 5 7 12 10 6 10
18 19 20 20 20 20 20 23 24 27 21 8 3 4 9 4 7 11 16 10 10 10 6 1 5 5 5 9 8 7 6 5 4 3 1 5 8 8 9 7 8 10 8 12 10
19 18 18 20 19 20 21 20 23 13 1 2 4 4 9 3 3 5 12 14 7 9 6 7 6 9 9 9 9 6 8 4 7 4 6 9 10 6 10 9 8 7 10 9 14
18 17 15 17 18 18 18 7 6 5 5 8 2 4 4 5 3 9 9 12 12 10 10 7 8 10 12 12 8 9 7 7 6 3 7 8 10 8 12 11 10 10 9 11 12
17 17 16 14 17 15 9 6 3 3 11 14 21 21 24 9 5 9 11 14 13 15 9 6 12 4 3 5 8 9 9 12 7 2 4 8 9 6 14 14 12 12 12 14 15
17 16 14 14 17 11 10 9 4 4 6 8 10 13 12 17 11 13 14 16 17 18 14 13 1 4 9 8 10 10 11 8 8 5 8 9 11 9 10 12 13 13 13 14 17
23 16 14 12 11 5 7 4 6 8 5 5 7 7 11 10 11 18 19 14 9 19 14 11 8 8 10 10 10 10 8 10 7 6 5 3 3 7 10 13 15 15 16 17 18
23 22 15 12 9 5 2 3 2 4 6 6 5 6 7 16 8 18 20 11 19 12 10 12 9 11 12 12 9 7 3 7 6 7 6 9 6 7 4 10 14 19 19 19 19
24 24 17 17 18 12 4 10 4 6 10 3 6 8 8 15 5 15 13 10 11 13 10 12 2 5 4 6 9 2 6 4 5 5 7 2 5 2 5 3 3 5 17 20 20
24 24 21 16 10 10 12 4 6 13 4 5 5 7 12 11 10 16 23 22 16 17 17 15 14 6 6 9 8 9 8 6 6 6 5 4 5 9 8 4 5 8 6 14 20
25 21 24 21 20 11 7 5 14 8 25 3 2 8 9 13 11 15 23 21 23 19 13 15 14 14 11 13 8 14 11 5 6 5 4 3 5 2 3 4 7 6 7 7 13
23 21 21 18 22 15 5 14 15 18 7 19 3 7 9 12 6 13 21 24 23 20 13 16 15 6 7 5 10 7 8 1 1 1 4 5 7 11 4 4 6 3 4 5 9
22 18 21 24 20 14 9 28 18 15 12 7 17 9 12 14 11 14 17 19 24 23 17 7 11 7 7 7 3 5 11 5 4 5 7 6 8 7 5 1 1 4 5 2 2
21 5 10 25 24 7 15 20 26 15 12 10 9 9 7 10 18 15 13 5 25 20 20 11 7 6 8 11 12 6 7 4 3 3 4 4 4 3 6 3 5 4 5 4 1
13 6 17 33 11 6 19 29 11 24 15 7 4 5 4 5 12 16 18 13 19 22 23 19 8 9 12 4 5 10 12 13 6 7 3 4 8 7 10 5 6 7 7 4 3
6 4 14 35 12 16 25 28 25 17 26 10 9 6 2 3 6 14 9 5 13 19 19 16 11 9 9 7 5 8 11 12 7 3 11 9 8 3 5 7 9 9 6 7 5
6 6 7 12 19 29 22 23 31 26 18 20 7 5 4 3 5 2 5 3 10 20 5 17 14 17 14 14 10 13 16 15 15 10 12 13 17 13 13 14 12 8 5 6 6
8 8 15 12 18 27 29 21 25 26 27 19 19 15 12 4 3 3 2 3 4 4 8 12 16 17 17 15 12 16 14 16 17 18 17 14 17 13 14 14 13 5 3 5 7
9 7 15 10 28 30 25 27 31 32 24 25 21 21 11 11 3 5 4 7 1 3 6 6 11 11 13 11 12 15 16 15 17 16 14 17 18 14 15 10 10 9 6 6 4
19 22 13 17 22 19 24 29 30 27 28 29 22 17 23 18 6 0 3 5 6 4 4 3 9 6 12 7 6 8 15 15 15 13 16 16 17 14 14 14 14 8 6 5 4

GFSSW_925_spd_075.txt.gz
Wind_Speed
17 16 16 17 18 19 20 20 21 22 23 25 27 29 29 33 34 13 11 2 4 9 8 7 10 11 9 13 8 9 12 11 2 6 3 4 8 3 6 14 4 9 10 11 12
18 18 18 19 21 21 20 21 21 22 24 25 27 29 29 33 26 17 7 5 7 13 8 10 10 8 11 8 5 9 13 5 9 10 12 8 3 6 5 6 8 2 6 11 9
18 21 21 22 24 22 21 22 22 22 24 25 27 28 29 27 15 7 9 6 9 13 10 10 9 9 12 8 10 13 12 6 8 8 11 8 10 3 8 14 15 13 6 10 11
17 17 17 18 18 20 21 23 24 23 25 26 27 29 29 11 7 5 7 6 10 10 10 11 11 11 12 9 10 10 13 6 10 6 9 9 8 9 4 10 12 12 2 10 8
16 17 19 19 18 19 21 23 26 25 25 26 26 26 18 8 13 1 8 8 11 12 12 11 12 11 13 5 6 12 14 6 6 6 7 4 4 6 4 9 12 10 4 8 7
16 17 18 20 20 19 20 20 22 27 26 25 25 25 11 17 4 5 6 9 13 16 14 11 9 5 11 8 10 10 9 9 7 9 6 10 4 9 11 5 8 8 9 6 11
18 18 18 19 22 20 21 23 23 24 26 25 25 15 12 21 7 7 8 11 12 15 11 11 8 10 6 11 5 12 14 14 12 10 9 5 10 30 7 4 11 6 5 6 9
18 19 19 18 21 23 22 23 24 24 24 24 20 11 9 10 8 14 14 13 11 12 10 5 8 11 10 9 12 14 18 9 6 20 4 8 6 34 8 3 12 12 7 7 8
19 19 19 20 20 22 24 26 23 23 22 15 4 10 13 5 13 18 18 18 16 13 10 8 10 14 11 11 16 16 6 16 15 3 4 7 5 2 7 3 10 11 11 9 10
19 19 19 17 19 23 25 22 20 22 4 5 9 7 11 8 6 11 20 21 15 12 11 11 10 13 13 13 13 4 15 5 10 8 8 12 12 6 8 5 5 13 15 15 17
22 17 18 19 19 21 22 13 7 7 10 11 4 13 6 6 5 11 18 20 17 15 16 16 12 15 16 14 18 10 12 9 8 5 5 13 13 7 10 8 9 8 17 18 16
18 17 15 17 18 19 15 7 8 6 12 18 22 23 28 10 6 13 21 18 19 19 18 13 15 16 6 9 10 11 14 11 12 4 3 12 13 8 13 12 14 12 13 16 20
19 19 15 15 18 19 15 13 8 7 9 16 21 23 23 23 15 15 20 23 23 22 19 18 14 10 6 9 11 14 13 11 15 5 10 13 13 12 14 13 12 15 14 17 17
20 20 18 14 14 10 14 7 7 6 7 14 8 9 13 13 14 28 26 23 19 23 22 18 18 8 12 13 11 15 10 9 12 10 3 12 6 16 15 14 15 15 16 17 20
21 19 18 12 20 9 7 2 2 8 7 6 10 4 6 17 5 23 30 25 26 21 16 19 17 12 15 14 12 13 1 8 11 12 15 9 8 11 11 14 17 17 19 19 19
21 19 18 15 18 22 17 11 8 8 15 7 8 9 10 18 20 5 27 25 20 21 20 20 15 15 17 13 10 3 7 10 11 12 10 11 10 9 7 6 4 11 19 19 20
22 20 20 18 17 12 17 10 8 16 9 16 9 9 13 11 17 17 28 27 23 23 22 21 15 15 5 11 10 11 11 8 6 7 10 7 5 7 11 4 1 4 4 16 20
22 21 21 22 24 20 15 9 17 22 28 4 4 9 11 10 17 18 24 23 27 25 15 17 20 21 14 17 13 16 15 7 6 3 6 5 6 8 4 2 4 5 6 6 13
24 21 23 22 25 15 5 15 24 30 18 32 13 6 10 12 9 19 25 26 28 26 21 19 22 24 18 15 15 13 16 13 9 4 7 8 8 10 8 4 4 6 3 8 10
26 18 25 22 20 14 6 17 28 25 27 12 24 14 11 12 11 13 22 24 26 29 23 8 15 12 13 11 12 9 13 9 8 10 10 11 12 9 9 7 5 4 4 2 2
24 4 13 25 20 7 8 18 31 25 18 22 16 14 19 7 15 15 12 11 25 26 23 18 12 15 13 17 17 12 11 10 11 9 6 9 5 10 4 2 4 4 2 2 1
11 5 22 32 10 4 13 31 28 27 29 21 19 16 18 13 11 14 14 19 12 22 26 23 11 11 17 17 20 18 19 18 10 13 8 11 12 15 9 11 6 6 6 4 2
5 4 24 37 11 14 31 37 28 29 29 23 16 16 9 10 7 16 18 10 7 22 23 20 14 13 15 13 7 12 17 14 16 13 14 10 8 11 7 7 8 10 10 5 7
6 7 7 13 17 27 33 31 28 33 33 25 21 18 15 11 10 3 9 1 8 14 12 16 16 19 15 17 15 19 19 19 18 12 13 16 18 17 12 10 18 10 11 9 6
8 10 16 13 20 27 23 25 32 32 30 29 26 24 18 11 12 11 4 5 3 2 5 15 23 19 22 18 14 17 18 20 20 19 19 17 19 18 13 9 11 12 7 4 6
8 11 16 15 25 29 26 27 29 31 30 34 24 25 18 18 12 12 9 6 3 5 10 17 16 22 19 18 18 17 15 17 17 17 18 19 20 15 15 10 12 11 11 8 7
22 27 11 17 22 20 24 28 33 28 29 30 28 22 23 19 9 11 8 2 1 9 10 12 15 15 16 18 19 16 17 17 18 17 14 17 16 16 14 11 13 13 14 5 6

GFSSW_925_spd_078.txt.gz
Wind_Speed
20 19 19 19 20 21 21 23 22 23 24 26 30 32 33 36 42 22 15 7 8 7 7 8 10 14 16 15 18 12 11 12 14 12 7 8 8 8 2 10 14 17 13 8 11
17 18 21 23 23 25 23 22 22 23 26 27 30 32 33 37 35 25 16 10 9 9 8 11 11 13 11 17 10 11 11 7 18 10 12 14 12 10 8 16 12 17 17 14 14
17 19 18 19 19 20 19 20 22 24 24 26 28 30 32 35 15 3 11 7 8 12 12 15 16 13 13 17 11 14 15 13 11 10 11 15 14 13 13 9 4 10 2 10 14
16 17 19 20 20 19 21 20 22 24 23 25 26 28 31 17 6 4 7 7 7 11 12 15 11 13 13 17 15 15 12 17 11 11 8 15 6 14 11 12 10 13 14 7 10
17 17 18 20 21 22 21 21 21 22 24 23 24 25 19 10 18 7 7 10 9 11 14 12 12 13 15 16 13 11 14 16 11 7 11 11 13 10 25 19 14 10 13 14 15
20 19 20 21 22 23 23 23 24 22 23 23 20 21 12 19 15 8 6 12 13 15 16 16 13 12 11 15 15 16 16 15 15 10 14 9 10 5 12 22 11 11 11 9 13
20 20 21 23 22 25 25 25 26 24 22 22 19 13 11 25 18 11 10 16 16 18 15 17 15 11 14 15 13 14 15 13 15 21 5 9 7 7 8 15 8 8 6 6 8
20 20 21 22 24 26 26 29 28 22 22 22 17 8 10 17 18 24 23 17 18 17 18 17 8 11 13 14 19 17 17 3 16 17 18 12 5 2 15 9 8 7 9 8 9
21 20 21 21 24 26 29 33 28 19 22 17 9 9 11 10 16 22 20 21 19 16 13 13 9 13 14 15 13 15 12 17 14 16 20 11 2 7 16 15 14 10 12 13 11
19 21 21 20 22 27 30 32 22 22 12 8 13 7 14 12 10 16 21 22 18 14 14 12 10 13 14 12 13 0 10 13 16 12 8 12 10 15 25 9 19 16 16 13 12
19 19 18 20 20 23 27 15 7 5 11 10 8 10 16 7 10 9 17 22 20 18 17 16 13 15 20 19 21 12 17 14 13 7 8 12 13 8 10 8 15 17 16 16 13
20 19 18 19 21 22 20 7 9 7 12 17 23 25 30 28 13 13 19 18 19 21 20 16 19 19 21 20 12 11 13 15 15 6 9 11 16 9 11 12 14 18 17 16 16
19 19 18 19 21 23 15 20 21 16 9 20 25 23 27 25 26 20 20 22 21 21 21 20 19 19 18 11 11 12 14 14 15 14 11 8 14 9 8 10 17 13 20 20 19
21 19 18 18 15 14 15 15 14 7 7 13 18 10 26 20 20 33 28 22 19 23 23 20 20 19 11 10 13 14 14 15 9 12 7 3 8 13 13 9 16 16 14 18 21
22 19 17 11 18 14 15 26 22 5 6 7 9 4 6 19 5 22 39 23 25 21 15 21 22 18 16 15 15 14 7 9 10 13 11 13 9 8 12 14 16 16 16 17 18
24 20 16 14 14 21 23 27 14 6 11 7 9 9 11 20 22 13 26 25 22 21 23 22 19 20 21 14 15 14 9 10 11 11 10 15 9 7 3 12 11 16 18 18 21
25 22 18 15 15 10 16 5 6 12 14 16 12 14 15 15 22 20 19 26 21 19 21 22 24 20 16 18 16 13 9 7 2 7 9 2 4 6 14 13 8 1 18 19 19
24 23 20 19 16 13 6 4 14 18 32 7 10 19 18 16 17 22 19 22 24 21 13 18 16 24 13 13 15 13 15 8 5 3 4 13 6 2 13 9 6 4 4 10 17
23 23 22 20 17 12 3 9 15 28 25 29 18 11 13 15 10 17 24 21 23 24 19 17 22 20 17 15 20 15 15 17 17 4 8 9 5 17 9 3 4 5 5 6 6
25 23 26 21 18 11 5 20 25 31 34 20 27 17 17 18 14 11 16 16 22 21 20 21 14 23 23 20 19 17 12 12 8 7 9 7 11 5 7 12 8 6 7 6 4
24 5 13 27 23 6 12 21 33 33 30 30 30 23 21 27 15 17 10 15 18 17 24 24 18 13 19 19 19 13 13 10 14 9 6 4 3 11 8 4 5 1 6 5 1
13 7 21 33 10 8 20 30 36 31 27 30 24 27 23 19 12 20 16 10 1 16 24 24 6 13 14 17 17 17 17 17 9 9 6 6 9 7 2 4 7 1 3 4 6
5 4 21 37 12 18 19 31 30 26 30 28 28 26 27 14 17 13 15 11 7 13 11 16 16 11 16 19 17 18 21 17 13 12 13 8 6 9 8 3 4 4 6 7 6
4 6 7 14 13 23 23 24 26 28 31 31 26 25 27 8 21 6 11 10 4 8 9 2 17 16 11 12 12 16 18 16 17 10 9 12 15 11 13 6 13 6 7 18 6
6 8 12 12 18 19 21 15 29 26 30 30 23 27 15 23 18 12 4 4 7 11 10 4 13 20 19 19 18 18 20 19 20 16 16 12 17 15 13 11 1 6 14 5 3
6 7 14 12 22 25 23 28 29 23 27 34 29 25 18 24 17 15 13 3 4 8 10 7 13 17 18 19 21 18 18 19 20 19 19 16 17 14 13 11 8 9 6 7 5
19 20 9 15 18 22 25 26 29 22 23 30 29 24 19 17 25 6 10 14 9 4 8 7 7 13 15 18 18 18 16 13 12 13 11 13 11 9 10 11 8 4 3 5 6

GFSSW_925_spd_081.txt.gz
Wind_Speed
15 15 17 19 21 22 23 24 23 23 24 26 27 30 31 34 40 26 8 13 7 12 6 6 8 11 17 6 8 2 3 7 11 9 5 3 2 8 16 8 3 6 2 6 1
16 18 17 18 20 20 20 20 21 22 24 26 27 29 30 32 37 20 10 13 11 9 7 10 8 13 4 6 5 3 3 10 12 3 4 7 8 4 7 9 1 9 6 17 10
17 19 18 18 21 21 22 22 22 22 24 24 25 28 26 30 8 4 1 13 9 8 12 11 17 7 7 5 10 9 7 13 10 6 4 4 7 8 7 9 4 8 6 9 14
19 18 20 22 23 23 25 24 24 24 24 24 25 26 26 11 6 3 4 7 7 7 7 6 7 5 6 8 11 5 12 7 7 8 3 3 3 5 12 6 6 14 11 9 8
19 19 21 23 24 25 25 27 26 26 25 24 23 24 15 3 11 25 11 9 8 9 9 7 10 7 8 7 8 8 7 6 5 8 7 8 2 4 3 5 8 15 12 10 8
19 20 21 23 25 27 27 28 28 28 27 24 21 20 4 9 13 11 19 11 12 12 8 13 9 11 8 6 7 8 11 9 5 7 4 3 3 2 0 4 8 15 8 7 6
19 19 21 23 25 28 29 30 30 30 26 28 18 11 8 21 15 17 16 19 18 18 9 21 26 7 5 8 8 11 9 9 8 5 3 2 0 2 3 6 6 11 11 9 6
20 19 21 23 26 28 31 34 35 29 24 23 14 5 9 21 21 26 18 21 19 21 26 26 21 4 2 6 9 9 7 5 5 6 6 7 8 4 9 9 3 8 12 10 7
19 19 20 22 25 28 32 38 36 24 22 14 8 7 9 14 10 22 25 15 22 22 26 24 10 3 6 5 5 5 8 6 8 8 5 4 4 7 9 12 8 10 11 10 9
20 20 20 21 21 26 32 41 27 18 6 4 9 4 9 5 8 15 17 18 8 7 8 5 2 4 4 3 6 7 6 5 5 4 6 12 5 7 10 10 11 9 8 11 12
20 21 21 21 22 24 30 18 4 2 4 9 9 6 12 13 26 10 15 14 6 4 12 7 5 11 13 14 15 14 16 7 9 7 10 10 7 12 13 11 13 9 12 11 12
21 20 20 21 23 24 24 5 5 13 11 15 21 23 32 29 13 17 18 9 8 14 6 9 20 14 17 18 16 17 9 6 7 8 12 7 8 10 10 19 21 18 14 14 13
22 21 20 21 24 18 11 14 25 29 5 12 22 17 21 21 22 24 14 11 10 13 15 17 16 19 20 18 14 7 5 6 9 8 6 1 6 4 7 18 14 17 17 17 18
21 20 17 18 13 15 8 27 24 25 5 8 8 9 14 9 10 32 26 12 11 18 18 14 21 21 18 21 8 3 9 11 6 3 4 2 5 4 5 14 19 16 16 18 19
21 19 16 11 16 9 14 30 32 2 4 7 7 6 8 16 6 11 36 15 15 17 11 17 8 16 20 11 6 7 8 3 3 6 4 4 0 7 7 9 16 20 20 20 21
20 18 14 11 13 18 18 24 11 2 10 6 6 7 6 15 7 5 7 15 3 16 16 15 14 18 18 9 9 6 4 5 2 2 5 8 3 7 5 15 17 20 22 22 21
19 17 16 12 7 12 20 7 4 6 5 8 5 8 7 8 16 9 8 12 14 10 17 18 23 19 15 11 6 5 4 2 4 2 5 9 6 10 8 8 8 24 21 23 23
19 18 19 20 19 12 8 2 8 13 25 7 8 6 12 7 11 16 11 9 17 12 5 14 16 20 11 15 8 8 10 5 6 3 3 13 5 6 5 6 9 10 20 22 21
20 21 21 22 17 11 2 8 11 17 9 16 30 19 20 13 9 15 16 16 15 21 13 11 14 7 21 5 10 4 5 9 6 1 2 5 7 1 4 5 5 6 7 17 21
21 13 19 21 20 14 5 17 16 23 17 26 14 11 17 9 8 9 9 12 15 22 18 4 6 15 17 8 8 10 3 2 1 7 6 4 5 3 3 4 4 5 8 8 10
20 5 9 27 24 6 17 11 17 22 17 15 17 21 22 19 13 13 8 10 16 16 18 18 11 10 8 10 13 4 8 3 9 4 6 3 5 5 7 4 2 2 8 8 8
8 5 19 35 10 8 19 11 9 15 12 16 15 23 20 19 18 16 20 18 7 6 20 10 4 10 18 22 14 16 12 10 5 5 4 5 5 5 8 10 8 9 8 8 8
4 3 23 32 14 16 12 19 24 21 20 10 12 12 20 20 12 12 19 11 1 3 4 5 2 7 14 12 11 21 9 13 8 5 6 6 6 6 8 8 8 5 6 2 6
3 5 5 9 5 18 17 19 22 16 26 22 24 16 19 20 15 7 18 6 6 3 6 7 5 15 14 12 4 5 9 8 7 5 4 6 5 6 8 6 7 6 8 5 5
6 5 6 9 16 16 18 10 22 22 19 10 17 21 20 14 13 8 5 11 7 6 3 2 5 8 11 20 18 19 12 14 11 7 10 10 15 11 8 7 6 8 6 7 8
6 6 6 5 16 22 23 20 21 17 22 17 25 17 13 17 14 12 5 6 15 3 3 5 3 4 11 14 15 9 19 11 14 11 7 8 10 8 8 5 6 8 9 7 9
16 10 3 11 15 18 22 25 17 17 20 20 19 16 18 23 11 8 1 17 19 8 2 4 4 2 7 10 12 8 15 11 17 13 10 9 8 6 5 3 3 4 6 6 6

GFSSW_925_spd_084.txt.gz
Wind_Speed
14 17 19 19 20 21 21 22 22 23 23 24 26 28 29 32 36 31 9 8 4 10 4 3 5 4 3 3 4 4 2 5 7 5 7 7 0 4 3 4 3 3 4 5 6
15 16 17 20 20 23 24 23 24 24 25 25 25 27 27 30 32 20 9 5 7 7 8 8 3 3 3 4 1 4 3 7 9 10 7 5 2 8 4 4 2 3 5 7 6
16 18 18 19 24 26 26 27 26 26 26 26 25 25 25 28 7 6 5 7 9 9 8 4 5 2 4 2 4 4 6 12 17 10 9 4 2 3 8 2 3 0 5 6 7
17 18 20 21 25 27 28 29 29 27 27 27 27 24 23 8 6 1 4 2 9 9 7 3 1 2 3 4 2 1 9 7 7 3 2 2 4 4 4 3 2 4 5 5 7
19 21 20 21 23 27 30 30 30 28 28 28 26 22 12 3 11 20 17 17 10 9 8 5 2 2 5 4 6 6 5 7 5 3 3 4 1 5 8 8 7 6 7 6 3
18 19 19 20 24 27 29 32 32 32 30 30 22 18 2 7 9 8 12 12 12 11 7 8 7 5 5 6 3 4 6 10 6 5 2 2 2 4 6 11 10 8 6 6 4
17 19 20 21 24 27 30 33 34 35 32 29 18 8 6 20 13 10 12 14 13 15 5 16 15 4 4 10 6 4 7 9 7 3 3 4 4 5 7 9 11 8 6 5 4
19 19 20 21 24 25 29 34 37 35 27 26 10 5 9 18 21 28 25 23 27 22 28 21 16 5 5 5 8 6 3 3 6 4 4 7 9 8 6 9 8 8 7 5 4
19 20 22 23 25 27 31 38 40 30 26 8 4 6 11 10 9 15 16 11 14 16 19 22 7 7 2 2 5 2 6 6 9 8 4 5 8 8 5 8 11 8 9 7 4
20 20 22 23 26 28 34 42 25 6 6 7 3 3 10 6 4 18 18 19 7 4 3 5 4 5 3 4 9 6 4 4 7 4 5 4 11 3 4 8 9 9 10 7 7
18 20 22 24 26 29 36 17 6 5 8 7 6 7 9 4 19 8 12 8 5 3 8 4 4 14 12 10 12 9 10 12 10 12 6 7 9 9 8 7 7 7 10 10 10
19 18 19 24 26 28 14 4 4 7 12 17 22 24 34 25 10 19 6 5 6 11 7 5 16 16 9 7 11 14 15 17 12 7 6 5 10 7 13 16 17 15 13 13 14
19 18 17 21 25 9 17 7 18 15 6 10 13 14 15 21 17 21 6 5 6 12 11 14 9 15 12 12 13 17 15 15 8 5 4 4 5 4 6 7 8 7 11 12 15
17 17 15 18 15 16 10 23 21 19 5 6 8 9 11 7 8 34 24 10 7 14 11 11 16 15 10 15 14 13 12 7 5 2 2 2 5 4 5 9 14 14 13 13 14
16 15 14 11 17 8 14 26 26 3 5 4 5 3 8 13 3 7 22 14 18 9 9 10 15 17 18 19 12 14 19 6 4 3 3 6 1 6 8 8 13 16 16 16 17
16 14 12 10 13 16 19 24 9 1 10 6 3 5 6 9 4 2 5 1 7 7 9 11 7 7 12 11 15 19 4 4 4 2 2 3 1 6 5 10 19 17 18 20 20
16 14 13 12 4 4 19 11 2 5 5 5 3 6 6 6 5 2 3 10 7 8 15 7 19 13 5 5 8 6 5 1 3 2 5 3 3 8 10 6 19 24 22 22 21
16 15 17 18 19 13 9 2 9 8 14 14 13 21 8 9 7 6 5 5 12 6 4 13 9 16 10 17 6 8 9 6 6 4 4 4 5 6 5 12 9 17 21 21 20
15 17 19 22 16 11 2 5 8 4 5 6 11 6 6 5 8 12 8 16 8 18 8 7 15 5 18 12 8 7 5 9 6 0 3 3 5 8 6 4 2 8 15 19 20
16 9 17 17 15 10 6 11 6 8 12 11 5 4 5 9 10 11 6 5 7 12 18 5 4 12 12 8 14 13 8 4 1 7 4 4 5 5 5 4 4 6 13 17 21
14 4 6 24 20 5 13 9 6 13 14 5 7 9 11 11 8 7 7 20 7 8 13 17 2 5 2 7 10 3 4 3 6 6 6 3 6 6 9 4 5 7 9 17 17
7 7 15 32 9 6 15 10 7 11 10 7 5 14 16 10 9 8 13 9 21 20 14 11 11 13 15 6 3 4 10 10 5 5 3 5 6 4 9 8 7 7 8 7 14
5 4 20 26 10 14 12 16 21 19 13 5 5 6 2 4 6 14 9 12 12 13 7 7 9 3 11 7 5 5 5 6 5 5 9 6 5 5 6 9 7 7 7 8 9
3 5 5 8 4 17 19 18 15 11 18 17 17 16 11 12 13 10 10 8 7 19 29 8 6 21 17 2 3 3 5 14 13 7 7 7 7 6 7 10 9 11 7 9 9
6 5 6 9 13 16 16 11 22 18 15 10 9 20 18 7 5 16 14 6 1 11 12 7 5 6 7 10 10 12 14 9 17 9 11 9 11 9 8 9 10 11 8 8 9
5 4 4 1 11 18 22 16 21 13 14 15 24 17 8 13 16 17 13 4 4 10 12 9 4 2 5 10 11 6 23 19 4 4 9 7 9 9 9 5 6 10 10 8 7
18 10 4 10 13 14 18 19 18 18 17 20 15 13 11 18 18 16 10 4 4 3 9 6 4 3 5 4 10 6 10 14 6 6 5 6 9 5 6 8 10 10 9 10 9

GFSSW_925_spd_087.txt.gz
Wind_Speed
13 14 15 17 20 21 24 24 25 26 27 28 29 28 28 31 36 29 8 5 3 9 8 5 4 3 2 1 2 3 3 3 5 3 6 6 3 1 1 2 2 6 2 5 10
16 15 16 17 21 23 25 27 26 28 28 29 29 28 28 29 29 18 10 5 7 10 10 8 4 4 2 1 1 4 3 6 6 5 8 11 5 7 2 4 4 3 5 8 11
16 19 19 19 20 22 25 28 28 28 29 29 30 28 26 24 6 6 6 6 7 9 5 3 5 3 2 4 4 4 6 5 10 8 8 6 2 6 5 5 5 5 2 6 7
18 21 22 21 21 25 26 26 29 29 29 27 29 26 24 7 6 3 4 5 4 8 6 2 3 3 3 5 4 2 8 5 8 6 4 3 4 4 6 2 5 2 4 6 4
16 17 21 21 22 24 28 29 30 30 29 28 26 23 11 4 10 13 13 20 11 9 8 5 5 4 4 3 2 6 6 5 8 10 7 5 7 6 6 6 4 5 5 7 5
19 19 21 21 23 24 29 29 29 30 30 26 22 16 2 6 8 10 6 7 7 11 6 7 5 7 3 4 2 3 5 9 7 8 6 7 4 4 7 7 6 4 4 5 4
19 22 21 24 25 26 30 33 34 34 33 27 18 6 4 19 16 23 19 10 7 10 3 9 5 2 1 5 5 3 6 8 12 5 6 4 2 7 4 8 8 6 5 6 4
18 20 23 25 27 30 33 36 40 40 34 22 8 5 8 17 20 31 26 25 24 20 19 17 9 4 4 5 7 4 1 4 6 3 4 4 10 7 9 12 7 6 6 6 4
19 19 22 25 28 32 36 40 39 20 12 7 9 5 11 11 10 14 14 11 11 18 18 13 6 6 3 2 4 3 4 5 10 5 4 4 9 3 7 8 8 7 6 5 3
19 19 21 24 28 33 37 34 12 11 12 12 7 1 9 5 5 11 8 11 4 6 3 6 4 4 2 4 8 6 5 3 6 5 1 5 13 5 7 8 8 7 7 6 6
19 20 20 23 25 29 30 12 7 3 6 7 5 5 9 8 12 5 8 1 4 4 8 6 4 15 13 8 3 2 4 5 12 18 4 16 9 12 9 7 7 10 9 7 7
17 19 20 21 23 25 14 5 7 9 13 17 20 21 33 18 9 19 2 5 5 9 6 3 13 12 7 7 7 6 7 11 10 15 3 12 11 5 9 8 10 13 9 6 7
18 17 19 19 21 10 17 1 19 17 7 11 10 9 12 19 14 23 5 4 6 8 8 12 7 13 9 6 9 10 10 9 8 16 9 3 7 7 3 3 6 6 5 5 8
16 15 15 18 11 15 8 18 20 13 5 8 5 7 6 6 7 23 17 9 6 10 6 8 13 12 6 13 13 13 11 13 11 6 5 2 5 6 4 4 6 7 9 9 10
16 13 12 11 14 7 10 21 25 3 6 2 3 2 5 9 3 4 16 5 14 8 7 8 7 17 17 18 11 12 7 10 11 7 2 2 2 6 3 5 9 12 13 13 13
16 13 10 11 9 14 15 23 2 1 9 6 0 5 3 6 5 2 3 4 4 9 7 8 3 8 13 15 12 11 5 4 3 3 2 4 4 5 5 7 5 9 14 16 15
15 14 12 13 4 4 19 8 2 7 6 1 5 7 8 3 4 4 4 6 6 5 17 8 12 3 2 6 5 5 3 2 4 2 5 6 3 9 8 7 8 13 16 16 16
15 14 15 16 14 13 9 3 10 5 5 14 8 8 3 11 4 8 2 5 6 1 1 13 11 12 6 10 6 8 9 5 6 4 4 3 5 6 7 6 7 12 15 13 14
14 16 15 19 14 7 1 3 7 4 4 5 8 5 5 5 8 8 4 4 3 8 5 5 7 5 12 11 13 6 8 9 4 2 2 4 6 9 8 8 4 7 8 13 15
15 9 13 17 15 10 3 8 5 3 7 5 2 4 3 7 9 10 4 1 7 12 9 5 10 8 6 8 12 12 5 2 1 7 5 3 4 6 8 4 4 7 12 14 15
12 3 5 19 19 4 9 7 4 5 6 3 2 6 5 4 4 3 5 7 3 6 13 6 4 10 3 7 7 5 12 3 4 5 8 2 5 8 10 9 4 5 9 14 16
5 5 16 28 7 4 11 8 5 5 3 3 3 8 4 4 5 4 5 6 8 5 8 6 5 8 23 13 2 5 14 13 6 4 3 4 7 5 9 8 7 3 6 6 11
5 5 16 20 10 10 10 17 17 9 9 2 3 4 1 1 4 6 7 8 7 3 5 11 5 4 4 7 17 12 5 5 3 2 8 7 6 4 3 8 4 7 7 7 9
2 6 6 9 8 13 16 17 18 13 23 18 10 11 12 13 10 7 8 6 9 8 7 8 7 12 12 7 7 5 9 6 7 5 3 8 6 6 7 9 8 5 7 9 8
6 6 5 7 13 14 16 10 20 17 13 12 6 19 11 6 7 15 13 14 11 4 3 3 9 11 12 17 12 3 5 4 4 6 10 7 11 11 10 9 9 9 8 4 8
6 4 5 3 8 19 13 14 18 16 15 14 18 13 11 15 9 5 5 6 6 2 3 7 5 15 11 8 17 18 15 10 9 6 8 7 10 8 10 8 6 10 8 9 11
18 8 3 7 14 14 19 18 17 17 15 18 16 13 16 24 19 16 15 13 9 10 1 2 2 5 6 4 4 5 16 16 15 4 4 8 8 6 7 9 10 9 9 10 9

GFSSW_925_spd_090.txt.gz
Wind_Speed
15 17 18 19 22 24 24 26 29 29 27 28 30 27 28 31 36 27 6 6 2 11 10 10 6 5 3 3 3 3 3 3 5 4 6 4 3 3 1 2 3 6 4 3 7
15 17 19 21 23 23 26 28 29 30 28 29 30 28 27 29 29 16 8 6 3 12 10 9 4 6 2 3 1 4 3 8 7 6 6 11 4 6 4 3 5 5 4 6 9
16 17 18 20 22 23 24 26 29 29 28 28 29 29 25 21 6 5 10 3 7 9 3 5 7 4 2 2 4 5 6 5 7 8 6 4 4 7 5 5 9 7 4 7 6
15 17 18 20 20 22 26 28 27 26 27 26 25 26 20 7 6 1 5 6 4 6 4 3 3 5 4 5 5 2 8 5 7 4 1 4 1 4 6 8 2 3 1 5 7
16 18 20 21 23 24 26 29 30 28 27 26 23 21 8 3 10 13 12 15 12 8 8 4 4 5 5 4 2 5 5 4 8 9 6 2 9 6 8 3 4 3 5 6 5
18 20 21 23 25 27 29 31 33 36 31 28 21 14 1 5 9 7 5 3 3 9 6 7 5 6 3 4 5 4 5 8 8 9 5 5 3 3 6 7 6 5 4 5 3
17 19 21 24 27 29 32 33 36 38 37 24 13 6 4 18 7 13 16 20 11 6 2 5 3 1 0 4 2 3 5 7 6 5 5 7 5 9 6 9 8 6 5 6 3
19 20 22 23 27 31 34 37 38 29 23 16 9 6 8 13 14 25 25 22 16 24 18 9 2 2 3 5 6 3 3 4 4 2 3 7 8 6 6 10 9 7 7 6 5
19 22 23 25 26 30 36 36 27 15 9 7 9 7 10 6 7 9 12 9 4 14 17 4 6 5 2 3 4 3 4 4 9 3 2 3 8 5 4 7 7 8 9 8 4
18 20 23 26 28 29 34 34 6 7 11 8 6 2 9 3 6 13 7 4 2 6 4 5 3 4 0 4 9 6 4 4 7 3 5 2 11 13 6 8 9 9 11 8 7
17 20 23 24 26 28 28 12 7 3 7 5 6 7 9 12 7 3 2 1 2 4 6 6 5 9 19 6 4 4 4 4 6 6 3 9 8 14 7 7 8 10 11 10 6
18 19 21 23 25 24 17 5 7 8 13 16 19 19 27 12 7 7 6 3 4 6 5 2 13 14 7 10 8 5 6 9 9 14 7 9 15 12 5 7 8 8 9 9 7
17 17 19 21 23 7 9 7 16 17 6 11 6 7 8 15 12 14 3 4 6 6 7 13 5 13 11 6 8 7 13 5 9 8 5 3 7 8 3 4 4 4 8 9 12
16 15 16 21 7 15 3 17 21 7 5 7 4 6 4 5 5 12 18 9 8 12 6 8 11 12 7 11 11 10 9 9 7 2 4 3 5 6 4 6 5 7 9 11 12
16 15 13 11 15 7 9 21 23 2 6 2 1 3 2 5 8 3 6 6 10 6 7 7 5 12 16 6 8 11 8 9 6 5 2 4 2 7 1 6 10 10 12 10 13
16 12 11 9 7 9 13 22 3 0 9 6 4 5 5 4 4 5 3 1 4 6 5 4 1 6 8 11 11 2 3 3 2 2 5 7 7 5 4 6 5 5 10 11 13
12 12 10 10 3 10 20 8 1 6 6 4 4 6 7 5 4 6 1 6 4 5 8 5 12 2 2 3 6 5 4 2 2 2 6 4 4 8 7 9 8 10 9 12 13
14 13 12 13 12 10 7 3 8 3 5 4 5 7 3 9 4 9 5 4 3 1 2 9 8 16 5 10 6 10 9 6 6 4 4 3 6 6 9 7 8 9 7 8 11
12 13 9 15 11 5 4 3 6 4 3 6 8 5 5 4 7 9 6 4 5 10 3 3 5 3 9 12 12 5 5 7 1 2 1 4 6 8 7 8 6 7 7 10 12
10 5 13 14 10 7 4 7 4 2 4 5 1 3 4 7 8 6 5 3 3 5 3 5 5 6 6 5 9 10 8 3 0 5 5 4 4 5 6 9 7 7 8 8 8
5 3 5 15 16 3 6 5 4 6 4 1 2 4 4 5 3 3 3 5 1 5 6 6 1 6 6 4 8 4 9 3 4 5 5 2 6 8 11 9 7 9 8 8 9
4 4 7 25 6 3 10 4 4 4 4 4 3 5 5 4 4 2 4 4 13 9 7 3 3 4 9 11 5 2 8 13 9 6 2 3 10 4 8 6 8 8 8 7 9
3 3 12 16 7 9 9 12 11 4 5 2 3 3 4 1 2 4 5 4 7 4 4 2 2 4 6 4 2 4 5 5 3 3 14 7 6 3 6 7 5 7 8 7 8
1 4 4 6 6 10 13 14 13 7 16 13 5 4 4 4 4 5 4 6 11 14 5 4 6 7 5 12 14 12 7 12 10 6 8 14 4 5 7 8 8 8 9 6 6
6 5 4 6 10 15 9 7 17 11 11 7 6 18 15 7 4 6 5 6 9 13 6 5 5 8 12 16 16 27 23 15 17 12 10 6 12 10 10 9 12 10 5 7 8
5 4 4 9 4 17 19 17 19 15 13 8 11 4 10 12 12 5 3 2 5 3 3 3 4 4 12 14 18 22 21 14 9 5 3 5 6 7 9 5 5 9 9 8 9
20 9 4 8 16 12 17 20 20 20 9 19 13 11 14 21 15 14 11 13 12 15 14 4 4 2 5 5 15 8 22 20 10 6 8 7 8 4 6 7 10 12 9 10 10

GFSSW_925_spd_093.txt.gz
Wind_Speed
15 17 18 18 19 20 21 22 25 26 25 25 28 26 27 31 34 24 8 4 0 7 12 14 9 8 6 3 3 4 2 4 4 7 4 2 4 2 0 4 4 7 4 1 5
15 15 17 18 19 20 21 22 24 26 26 25 27 28 25 27 27 14 9 5 4 13 13 12 6 8 4 5 3 4 4 8 6 6 4 9 6 5 2 4 7 7 9 5 5
14 16 17 19 20 21 23 25 26 25 26 27 26 27 24 19 6 4 7 4 6 14 7 5 5 5 4 3 6 5 7 6 7 11 7 6 5 3 4 9 13 9 3 7 7
16 17 18 19 20 22 25 27 29 29 29 27 25 24 18 7 6 2 1 3 5 11 5 6 4 5 5 6 5 4 8 6 5 5 5 5 2 5 9 12 0 6 1 5 8
18 19 20 20 22 23 27 29 30 33 31 30 22 16 8 1 11 15 14 12 8 7 8 5 5 4 6 5 6 5 5 5 11 8 7 6 12 10 13 12 5 3 3 5 6
18 19 21 23 24 27 29 31 32 30 35 28 17 9 1 5 11 9 7 3 2 5 4 8 6 6 4 5 7 5 5 9 7 10 6 10 10 4 11 4 6 4 3 5 3
18 20 21 23 26 28 30 31 33 37 26 22 11 6 3 19 7 9 9 11 10 8 4 7 6 4 2 2 3 2 6 7 8 5 5 9 6 9 6 6 7 6 5 7 5
18 19 21 23 26 29 31 33 34 20 19 13 10 8 8 9 9 19 21 23 21 17 13 5 3 3 4 2 2 2 2 6 1 4 1 7 10 6 2 9 11 10 8 8 8
19 20 21 24 27 30 31 32 22 8 12 10 8 5 10 9 4 7 6 7 2 10 11 4 5 4 3 4 5 3 10 6 6 3 3 4 8 2 4 8 10 11 10 8 8
20 20 22 24 27 30 30 27 4 2 5 3 6 1 6 4 5 10 6 4 2 6 5 5 4 5 4 7 12 8 6 5 7 3 2 7 16 15 8 10 13 12 11 10 10
19 21 22 23 26 28 24 8 7 3 5 6 11 7 12 9 10 3 2 2 3 3 7 7 9 14 20 16 6 4 5 6 4 5 3 9 11 17 17 8 11 11 12 12 12
18 20 21 23 23 17 12 6 5 5 13 15 22 20 27 14 9 9 7 5 6 7 6 4 17 13 13 11 13 15 13 14 12 9 8 7 13 18 12 9 6 12 13 14 11
19 18 19 21 19 7 8 7 14 11 6 9 6 5 5 13 8 11 5 3 6 8 13 12 4 18 16 10 13 16 17 16 15 6 6 7 6 6 3 7 4 7 11 14 15
17 17 18 21 2 11 1 14 20 2 5 7 3 5 4 6 5 6 15 9 6 12 6 8 9 5 13 16 14 17 15 14 12 5 7 3 7 7 11 14 9 9 13 15 14
14 16 13 12 15 5 7 16 18 3 6 3 1 3 2 5 8 1 3 5 12 5 5 8 4 12 14 9 14 12 8 12 12 9 7 8 5 3 2 10 14 7 13 15 16
17 14 10 9 8 6 13 19 0 1 7 5 4 6 6 2 3 6 2 2 4 8 5 7 2 5 9 15 13 2 11 4 2 3 8 10 7 6 5 7 6 4 8 15 17
15 11 9 10 3 13 15 5 2 5 5 5 5 7 7 6 5 6 1 4 2 4 9 10 12 3 3 4 8 7 4 2 4 5 7 7 9 13 7 11 10 12 6 12 16
11 10 9 12 8 8 6 3 6 2 3 3 5 7 4 10 5 9 4 2 7 2 1 7 4 17 6 10 6 13 14 6 6 5 4 4 6 6 9 9 8 10 9 9 14
8 10 7 14 8 4 3 3 5 2 3 6 6 4 3 4 6 8 7 2 3 9 3 4 4 3 5 12 12 6 9 13 6 1 3 4 4 8 7 10 5 8 6 9 13
3 2 8 11 8 7 2 7 3 1 3 2 1 1 2 6 6 10 4 2 2 7 3 5 4 4 3 4 12 8 7 4 5 6 10 5 4 6 2 7 7 7 8 6 10
5 1 4 14 15 3 4 6 4 5 3 2 1 3 3 4 4 6 5 7 2 6 6 4 1 7 3 3 7 5 12 6 3 4 7 7 5 8 11 11 10 10 5 7 11
6 3 3 23 5 3 7 5 4 8 6 4 2 3 4 4 6 6 8 5 9 6 5 3 1 4 5 11 8 3 2 14 10 8 2 5 11 4 10 6 6 10 6 4 8
2 3 6 12 6 8 5 10 8 5 4 4 3 5 1 4 4 5 4 4 1 7 4 9 1 3 4 2 5 3 5 10 7 4 17 9 4 4 3 5 5 7 7 5 5
2 3 4 6 5 8 12 12 12 6 16 12 5 5 3 3 4 3 5 5 8 12 13 4 5 7 6 2 2 7 14 15 8 9 10 18 15 5 8 9 10 10 8 6 4
4 4 4 4 10 11 8 6 15 11 10 6 5 15 12 7 9 9 11 10 9 12 4 7 6 10 13 13 18 15 17 21 20 19 13 10 16 16 15 13 13 11 7 5 7
3 4 2 2 6 15 15 15 19 11 9 7 15 11 10 12 14 3 1 3 5 5 6 6 2 5 10 14 17 17 22 22 24 21 22 21 20 10 14 7 10 11 8 9 9
13 5 2 8 9 8 11 13 14 13 12 18 16 8 8 14 11 15 14 14 13 9 6 3 2 4 4 8 11 12 11 15 15 19 18 16 14 6 7 8 10 10 8 11 12

GFSSW_925_spd_096.txt.gz
Wind_Speed
12 13 15 16 18 19 20 22 24 24 24 25 27 28 28 29 32 16 15 6 3 9 9 14 10 11 10 8 8 4 8 11 12 12 12 6 5 2 4 10 6 8 13 7 3
14 14 15 17 18 20 21 22 24 25 26 27 27 28 28 26 24 22 7 12 10 8 14 19 15 14 9 12 7 11 11 14 6 9 9 9 7 11 7 11 13 14 14 12 9
16 17 18 19 20 23 23 25 26 26 27 27 28 27 26 20 10 1 3 4 5 18 9 10 9 13 14 9 13 12 17 12 9 10 10 14 13 10 13 17 16 14 15 6 10
15 17 18 19 21 23 26 27 28 27 28 27 30 25 19 6 7 1 1 3 4 13 7 10 9 13 14 13 15 13 17 17 13 12 12 15 16 15 17 21 18 14 10 5 9
16 18 20 21 22 24 27 28 28 30 30 32 23 16 8 5 12 9 14 12 5 11 14 10 13 13 15 11 14 17 18 16 16 15 16 14 19 20 23 21 19 12 7 8 7
18 19 20 22 24 25 26 29 29 30 33 24 16 7 6 10 7 5 6 4 7 13 11 12 7 11 9 13 14 7 12 16 15 15 16 16 22 19 23 14 9 10 12 9 7
19 20 21 23 24 26 27 30 30 32 23 19 12 6 7 17 3 4 6 6 8 7 7 9 15 11 5 11 15 12 15 17 18 18 19 15 22 22 21 6 10 11 11 9 7
18 20 22 23 26 28 30 31 32 20 14 13 5 7 8 7 11 14 13 19 19 23 21 16 13 15 16 7 7 10 14 15 6 8 11 11 16 7 4 6 12 10 10 9 8
18 23 23 23 25 28 30 30 22 5 7 5 2 6 8 8 7 6 6 6 4 6 12 6 8 12 10 16 14 14 15 15 11 10 10 13 15 5 6 8 12 10 11 10 8
18 21 23 24 27 27 27 24 6 2 4 4 2 6 7 3 7 12 10 7 4 8 7 11 9 11 14 15 17 16 18 15 14 5 10 14 17 16 10 7 13 11 11 11 10
17 20 24 24 25 24 21 9 5 5 5 9 17 15 20 14 15 6 3 5 7 7 7 16 13 18 22 21 22 15 14 15 12 2 7 13 17 16 16 11 12 11 11 12 11
14 20 23 23 23 15 9 5 5 4 13 16 21 21 26 22 10 11 9 8 9 14 11 9 20 20 19 22 22 21 19 17 16 13 11 17 18 14 16 15 10 10 12 12 11
15 20 19 22 20 5 5 6 6 8 7 7 5 7 4 7 6 7 9 9 13 15 17 18 9 12 20 22 19 21 22 18 19 14 13 19 20 20 17 11 9 9 10 10 12
13 13 17 22 3 9 1 8 11 3 5 2 2 2 4 4 5 4 7 14 12 14 13 13 18 14 16 21 21 21 18 20 17 15 11 3 12 14 11 16 17 15 11 12 12
12 12 15 12 11 6 7 13 13 4 6 4 4 2 1 6 9 3 3 6 18 16 7 9 10 16 19 19 17 17 15 17 16 16 16 19 10 11 10 12 12 13 12 12 12
15 15 11 8 6 7 12 15 2 5 8 1 2 4 6 1 3 7 3 4 4 15 17 18 12 8 14 14 16 7 13 10 8 9 13 17 13 10 13 11 6 4 2 10 13
15 12 7 6 4 8 11 5 5 7 3 3 2 6 6 6 1 7 3 4 3 4 10 16 22 15 13 7 10 14 9 6 8 7 8 7 12 16 7 10 11 11 8 8 12
16 9 8 11 6 6 5 5 10 3 5 2 4 8 3 8 3 8 1 3 3 6 7 5 5 23 18 20 10 20 17 7 9 10 7 9 8 11 9 11 10 7 5 7 12
9 8 8 9 9 5 5 10 5 4 2 5 8 10 8 2 5 6 5 1 4 11 4 4 5 2 17 19 18 13 16 19 18 14 7 7 7 8 9 10 10 11 4 9 12
9 5 12 9 10 9 6 14 7 3 2 3 6 3 9 1 4 7 4 4 1 7 10 5 6 2 2 9 18 19 4 8 11 9 15 12 13 7 9 11 9 8 11 6 11
8 4 3 14 14 6 9 8 8 5 4 4 8 9 8 6 5 6 5 10 1 5 10 6 3 3 6 7 8 13 16 13 9 12 11 11 9 9 13 11 9 8 6 4 9
6 4 7 19 7 5 10 4 1 8 6 7 7 8 10 11 14 15 14 10 8 13 10 5 4 6 10 10 9 9 8 18 13 17 10 13 13 1 12 9 6 10 5 1 5
3 5 6 17 7 10 8 9 10 7 8 7 11 9 9 13 12 14 13 8 4 4 2 7 4 5 5 5 2 4 2 1 6 8 19 14 3 3 8 11 11 9 6 2 4
3 5 5 5 6 11 14 14 14 7 12 14 10 7 11 13 12 9 8 6 3 9 7 6 7 9 10 7 6 6 5 9 4 5 12 16 17 18 18 15 13 15 11 10 5
4 6 8 6 12 12 11 7 15 14 11 7 7 17 15 14 15 17 18 16 16 11 9 6 12 12 14 19 18 17 18 17 16 14 14 15 19 13 14 19 18 15 12 8 9
4 5 5 10 10 15 17 18 18 11 11 10 14 11 11 16 16 10 8 9 8 4 3 1 7 6 14 16 18 20 21 21 21 19 21 22 27 20 20 18 21 19 20 18 12
10 11 4 9 15 12 13 13 13 15 16 16 15 13 14 15 9 10 15 15 15 13 7 4 4 6 11 5 12 15 22 22 22 20 17 19 20 18 20 22 21 16 15 15 14

GFSSW_925_spd_099.txt.gz
Wind_Speed
14 15 16 17 18 19 20 22 24 24 24 27 28 32 31 31 32 21 19 17 4 9 11 13 16 16 17 17 17 10 13 15 19 14 11 6 6 13 7 14 15 12 12 12 2
15 16 17 19 19 21 21 23 25 25 25 29 28 31 31 28 30 27 10 11 14 9 14 19 17 17 15 16 14 15 13 20 18 10 13 13 7 12 15 16 17 15 15 18 9
14 15 17 19 21 21 21 23 24 26 27 28 30 32 27 24 14 1 2 1 2 11 17 17 19 16 19 17 19 18 20 20 19 9 13 16 15 15 16 17 19 16 15 12 4
17 18 18 20 21 22 24 24 25 27 28 29 31 26 21 11 8 7 3 4 3 10 10 16 14 17 19 20 19 21 22 19 20 20 14 17 17 20 20 19 19 16 16 8 9
18 19 19 20 22 24 24 26 27 29 30 31 25 19 10 8 17 4 4 7 6 10 14 13 16 16 21 19 20 21 20 19 21 16 19 19 20 22 23 20 19 18 15 8 10
19 20 21 22 24 26 26 27 28 29 31 26 19 13 9 14 6 7 7 9 14 17 19 19 16 15 21 20 21 17 17 18 20 22 19 20 21 21 23 21 16 13 13 11 9
19 21 24 25 25 27 28 28 28 31 27 17 16 8 11 21 9 12 12 10 11 13 16 17 16 17 12 19 21 20 21 22 21 20 22 20 23 24 25 20 14 12 12 11 10
18 20 25 26 26 27 29 29 29 27 14 13 9 8 8 7 9 15 15 15 17 14 12 10 11 18 20 20 23 17 19 20 19 24 21 19 20 20 5 9 12 16 11 11 11
17 20 23 27 29 29 29 28 26 13 10 6 4 7 8 3 5 7 5 7 10 16 19 21 16 16 17 18 19 20 20 22 20 16 13 13 16 17 8 9 13 14 13 11 11
15 18 20 28 30 30 29 24 17 9 7 8 10 7 8 2 13 13 13 8 8 5 6 12 10 15 17 16 19 23 22 21 21 19 15 16 20 17 18 15 15 15 13 10 10
17 17 19 26 28 27 24 23 4 7 4 10 18 19 22 21 18 13 8 9 11 8 13 16 13 19 23 22 23 24 26 24 17 13 11 15 18 18 16 19 16 15 13 12 9
15 16 19 23 26 18 15 6 7 6 13 18 23 21 24 16 8 10 12 8 16 18 15 11 22 17 22 24 25 26 28 26 20 21 15 17 19 21 20 18 19 18 14 12 11
15 16 16 21 23 8 7 5 7 10 8 11 10 8 2 8 5 4 8 16 20 18 20 22 20 15 19 21 23 25 26 23 24 21 23 16 22 22 22 24 21 21 13 14 10
13 12 14 22 13 8 4 6 9 7 6 7 8 7 8 5 5 7 4 9 19 23 23 23 22 24 13 16 21 23 20 21 23 20 17 18 19 18 14 14 18 16 17 16 13
13 12 12 14 16 10 6 9 10 3 6 5 8 6 4 7 5 9 3 6 15 19 13 20 15 19 24 22 17 21 17 17 19 19 19 23 15 14 16 16 19 14 16 16 12
13 14 12 15 10 10 9 11 4 6 13 6 3 5 7 10 6 3 6 5 6 12 18 24 17 13 13 17 20 17 14 17 17 15 17 20 19 16 16 15 13 10 5 5 11
13 15 13 13 11 4 9 8 6 8 4 8 3 4 6 5 7 6 8 12 11 10 15 19 24 24 17 15 13 14 15 11 12 12 14 17 16 16 11 15 6 6 6 11 11
16 15 16 16 12 7 9 8 12 7 13 6 3 7 11 1 9 8 12 12 9 10 14 14 12 19 24 24 17 17 18 11 14 11 11 16 11 15 15 18 16 11 5 7 10
16 17 19 18 13 11 8 12 9 13 11 6 8 12 15 11 6 4 7 11 4 5 10 6 11 3 13 22 19 19 19 22 21 18 12 7 10 15 4 8 8 8 11 11 12
18 14 20 13 11 14 9 22 15 7 3 6 12 9 13 13 9 11 11 4 0 2 9 1 8 6 3 11 18 21 14 15 14 17 20 17 18 9 11 10 12 11 9 11 11
12 5 4 17 14 9 13 18 14 8 5 9 12 15 10 13 6 12 6 3 4 3 10 13 9 9 3 10 13 13 18 16 13 15 15 12 10 10 8 10 5 9 9 8 6
6 5 9 17 9 7 14 14 5 9 8 12 8 14 13 13 14 13 17 14 7 13 13 9 6 11 14 12 7 12 17 22 11 16 12 14 14 3 4 3 2 10 6 2 6
3 8 6 16 8 11 14 14 11 10 11 10 12 12 14 14 13 16 19 20 16 10 6 7 8 10 14 16 16 10 13 12 13 15 20 13 9 11 19 10 6 8 14 4 2
3 5 4 7 11 14 14 15 15 10 12 14 11 10 14 15 17 14 16 8 6 11 9 5 10 13 13 8 7 6 10 8 10 10 13 16 19 18 14 12 12 9 12 16 5
5 7 5 6 12 15 17 9 16 15 11 8 12 15 15 15 18 19 18 17 16 14 16 12 15 16 17 23 17 15 17 15 16 16 15 15 16 15 14 12 14 17 15 17 8
3 4 6 11 12 17 18 19 17 12 10 16 16 12 11 16 17 16 17 14 16 13 18 16 15 16 19 19 20 22 23 22 22 20 20 19 21 17 19 20 24 19 17 16 17
7 14 5 8 16 13 13 18 20 15 12 15 13 10 11 12 9 10 14 12 12 13 11 3 8 11 14 16 20 20 23 24 25 23 20 20 19 16 16 19 21 25 22 20 16

GFSSW_925_spd_102.txt.gz
Wind_Speed
15 16 17 19 20 21 21 22 22 24 25 26 29 31 31 32 36 23 20 15 10 18 7 9 14 19 18 17 19 19 14 15 21 20 17 10 3 7 7 10 9 11 11 12 17
15 16 17 19 20 20 21 21 23 24 26 28 29 31 30 29 32 26 20 16 13 12 9 15 15 16 14 17 16 17 15 22 21 20 17 11 13 15 9 13 14 11 13 12 16
17 18 17 18 19 20 22 22 24 25 27 28 30 31 27 24 13 3 4 1 2 9 13 16 19 16 18 18 20 20 20 22 24 24 21 14 14 17 15 16 15 10 12 6 14
17 18 19 20 21 21 22 24 25 27 28 29 31 28 23 8 6 5 5 2 2 2 8 15 15 18 19 19 20 25 23 23 24 22 20 20 18 17 17 18 16 13 11 9 1
18 21 21 22 23 24 24 25 26 28 29 29 27 20 12 8 14 15 6 8 6 7 14 12 14 16 19 19 21 24 24 24 23 23 20 22 19 20 20 18 17 16 14 8 3
19 21 23 24 26 27 28 27 27 28 29 29 19 16 7 13 10 1 5 9 13 12 16 17 14 15 18 20 21 22 25 23 22 23 22 23 23 19 20 18 18 16 12 9 6
19 19 24 25 29 32 31 30 28 28 30 23 13 7 11 22 15 20 17 15 13 15 14 16 21 20 19 20 19 22 25 24 23 24 24 22 23 22 19 21 22 16 11 9 9
18 20 22 25 31 36 33 32 30 27 24 15 12 6 8 11 11 15 12 14 14 16 15 14 12 8 9 15 21 25 23 19 18 23 25 23 24 21 20 20 9 9 8 15 13
19 20 23 25 31 37 34 33 29 23 17 10 5 9 9 3 9 4 4 7 8 13 19 17 14 14 12 15 16 18 21 25 26 22 26 24 22 18 18 13 8 10 11 12 13
20 20 22 24 31 36 34 31 22 21 11 8 13 8 10 9 10 15 13 14 10 9 7 11 9 13 14 14 18 19 19 19 21 21 24 25 21 16 18 18 13 14 14 12 6
21 21 21 25 28 34 32 20 1 5 9 12 10 16 22 25 22 21 19 16 11 13 15 14 10 16 20 21 24 22 24 19 23 29 27 24 22 16 17 16 15 12 13 12 10
19 20 20 24 29 30 21 9 6 8 13 19 26 25 30 22 11 15 13 12 16 19 17 15 19 17 19 22 20 22 21 23 23 26 26 29 23 17 16 17 15 15 14 13 9
19 20 19 22 28 18 10 4 10 14 8 15 21 16 12 15 12 12 13 16 17 18 20 20 21 18 20 20 19 20 23 19 22 25 31 29 25 22 18 17 17 18 15 14 7
18 17 17 21 17 16 13 7 11 11 6 7 9 7 10 8 8 19 11 10 15 24 20 19 18 20 21 19 17 20 19 21 20 18 16 23 17 20 15 21 22 23 18 16 9
17 15 14 14 19 15 13 12 13 6 6 9 11 15 10 11 4 14 12 10 15 15 14 20 16 21 23 23 21 20 14 16 20 20 17 25 15 15 18 14 14 13 12 14 15
16 15 14 16 16 16 13 14 10 5 9 7 9 11 13 16 12 7 11 11 12 12 16 22 20 21 16 16 17 19 13 19 17 15 16 19 19 17 15 17 19 17 15 12 11
16 15 14 16 16 18 12 12 6 8 5 9 11 11 12 13 16 13 14 16 11 11 15 19 22 22 21 19 14 16 11 10 12 13 15 18 19 14 16 19 18 14 6 8 2
17 16 16 19 18 18 11 9 12 13 20 7 1 3 11 14 15 15 12 14 17 21 13 14 17 15 19 24 19 19 15 8 10 11 7 18 8 15 19 16 10 6 4 8 11
14 17 22 18 20 17 8 13 11 18 19 20 11 11 14 17 10 13 12 17 12 5 3 11 18 5 2 9 19 22 18 18 18 18 12 9 20 21 8 1 8 11 7 6 9
14 15 24 19 19 14 8 22 21 27 24 6 14 6 12 14 17 17 15 12 5 1 3 9 11 15 12 6 11 22 14 11 10 10 10 12 16 8 8 10 4 12 8 10 11
8 4 13 20 18 6 11 20 21 27 20 5 12 16 16 16 16 16 9 11 2 3 4 11 7 15 18 10 11 12 16 15 14 15 12 9 8 7 6 18 7 8 10 6 8
2 5 10 19 7 5 14 24 23 23 13 8 11 14 16 15 13 15 14 12 5 6 11 12 8 13 20 11 21 7 13 18 11 15 10 13 15 12 12 15 7 7 10 9 8
3 4 11 12 6 11 14 22 23 21 11 12 13 12 14 15 15 15 16 15 17 16 8 5 7 11 18 18 17 14 14 11 17 14 19 12 8 12 3 17 11 3 7 12 5
3 4 6 3 10 16 13 19 19 15 12 14 14 13 13 15 14 15 17 14 14 8 10 1 12 15 12 8 6 10 18 19 14 5 12 15 18 16 8 10 14 9 5 9 9
2 6 9 5 11 15 18 12 11 15 12 12 14 18 16 14 15 16 17 19 16 12 11 9 16 18 23 26 18 18 15 18 20 16 9 13 15 13 8 7 14 15 13 12 11
2 4 8 12 7 7 15 17 20 17 13 16 14 15 13 15 16 16 18 14 11 11 13 14 16 19 23 23 24 22 22 18 22 22 19 17 17 14 13 13 13 12 12 14 14
8 13 4 6 10 10 12 12 17 17 14 17 10 10 12 10 10 10 11 11 11 11 10 9 12 16 18 20 23 22 20 20 21 21 18 17 15 16 18 15 13 12 13 14 12

GFSSW_925_spd_105.txt.gz
Wind_Speed
16 17 18 19 21 22 21 21 24 26 26 28 31 31 32 34 39 25 9 15 9 14 17 6 6 11 14 5 7 3 6 10 17 12 19 11 4 3 6 5 4 6 7 12 31
17 18 18 20 21 23 23 22 24 26 28 29 31 32 32 33 31 17 14 10 12 9 10 11 8 11 4 5 4 6 7 11 11 15 17 14 10 7 2 5 5 5 9 12 27
17 18 19 20 21 23 24 24 25 27 28 30 31 33 29 28 7 4 3 4 4 7 12 13 17 7 9 8 9 8 14 14 16 17 19 16 9 6 8 8 6 6 6 13 15
17 20 20 21 21 22 26 27 26 27 28 30 31 32 26 7 4 1 5 1 3 2 4 6 6 7 6 8 9 15 17 16 17 16 18 18 7 8 5 9 7 8 5 6 12
20 20 23 23 21 24 28 30 29 28 28 29 30 23 13 4 11 16 13 5 4 6 10 9 9 8 10 7 9 14 16 18 17 16 13 14 18 8 8 13 10 10 10 7 11
20 22 23 23 24 27 32 33 30 29 27 29 26 15 4 7 8 6 7 8 9 14 15 13 7 10 8 7 8 9 12 14 14 13 10 12 11 5 9 13 11 13 12 12 10
20 23 24 26 28 31 36 36 32 30 28 25 16 7 8 20 13 17 14 14 14 18 6 14 15 2 8 9 7 8 12 15 17 12 14 10 21 12 13 13 14 16 16 12 11
19 22 25 28 29 33 38 39 32 28 26 18 9 5 8 15 15 18 16 16 19 18 18 20 13 4 2 6 7 6 6 8 10 10 9 7 23 21 17 15 19 17 20 10 10
22 25 26 26 30 35 40 37 30 28 18 11 4 6 10 14 7 14 13 6 16 13 19 14 7 3 6 3 6 4 12 13 20 12 17 16 18 12 24 23 18 12 9 9 8
21 23 25 27 31 37 40 36 19 6 4 5 8 4 10 5 3 15 12 11 7 8 3 5 2 3 1 3 11 6 11 14 15 11 6 11 19 17 20 23 10 10 9 9 8
21 22 26 28 31 36 37 17 6 4 7 8 8 9 17 15 23 8 12 12 8 6 7 6 4 7 18 12 15 14 16 19 17 8 7 11 15 21 22 26 12 9 10 10 10
19 20 23 26 32 32 21 8 7 6 11 16 25 26 39 19 12 20 14 6 8 13 6 7 15 14 13 13 17 20 21 19 13 5 10 11 17 18 21 25 26 9 9 9 4
20 20 22 24 30 12 24 12 15 19 5 15 13 11 9 15 14 17 9 7 9 11 12 14 8 16 17 15 14 17 12 8 12 11 12 9 19 14 23 24 20 9 9 7 7
20 20 18 22 8 26 9 25 17 17 4 8 7 6 10 7 7 23 16 8 7 10 5 11 15 20 19 18 14 17 7 12 14 8 8 5 18 15 21 26 24 16 14 12 8
18 17 13 13 17 8 16 27 21 4 6 4 7 8 11 10 5 6 18 5 8 7 7 10 5 8 13 16 9 12 8 14 9 5 6 10 14 10 13 16 21 16 13 19 14
18 15 12 11 11 18 23 25 11 1 8 6 9 9 10 14 8 3 9 5 3 8 9 16 8 6 8 8 14 3 3 9 3 2 10 9 13 10 13 15 21 17 13 8 16
17 17 13 10 6 18 22 12 1 5 8 7 9 9 13 13 13 13 11 9 6 4 6 13 19 18 13 13 10 3 2 3 3 4 12 5 13 11 14 21 23 23 17 7 11
16 16 16 14 15 16 12 1 9 8 14 17 17 18 8 6 7 9 12 8 8 8 9 11 13 5 4 17 12 8 8 5 7 4 9 4 7 5 12 19 20 20 12 9 19
18 20 18 17 14 13 1 5 6 6 9 14 19 13 10 6 5 10 4 4 4 1 3 5 7 8 11 11 13 8 7 11 8 6 6 4 9 12 8 17 20 13 5 10 16
12 12 13 20 16 12 5 16 11 12 18 15 11 10 13 5 6 8 10 2 3 5 6 6 3 4 9 11 10 6 4 3 3 4 6 6 12 9 6 19 26 10 12 9 13
6 5 8 9 15 3 8 8 14 19 21 9 18 13 13 11 11 10 5 14 10 5 3 6 4 5 6 3 3 6 3 4 2 6 4 3 4 7 11 10 13 19 5 12 6
3 3 3 3 6 3 9 6 8 19 22 18 19 1 8 12 10 9 9 7 11 7 4 2 1 4 7 18 1 4 3 8 7 8 5 7 10 10 6 3 14 17 11 15 9
2 4 12 8 3 8 6 16 18 20 22 18 12 4 6 7 5 6 11 13 9 8 3 3 3 4 7 7 4 4 6 12 16 9 16 7 7 3 7 9 11 15 11 19 9
2 3 2 2 2 8 8 11 15 15 21 20 16 6 6 6 7 7 12 10 11 6 5 5 1 4 6 12 14 12 17 5 4 3 6 9 20 11 3 7 7 17 16 9 13
2 3 4 3 4 9 9 7 14 8 11 10 6 7 7 9 9 8 9 10 11 13 4 4 5 8 15 18 19 19 22 18 14 5 5 8 12 14 7 5 7 16 19 11 7
2 2 3 5 14 7 7 5 15 15 5 7 9 12 9 9 10 4 7 5 2 8 6 3 5 6 14 16 21 21 23 20 17 15 9 14 16 12 7 8 10 11 10 7 9
8 12 3 4 8 8 4 7 9 13 9 7 10 9 9 6 4 3 4 6 6 3 2 1 2 3 17 14 19 18 12 15 18 15 10 13 16 13 12 10 11 11 12 15 16

GFSSW_925_spd_108.txt.gz
Wind_Speed
16 17 18 20 21 21 21 22 23 26 27 29 30 32 34 35 38 27 8 16 8 5 10 3 4 5 6 4 4 5 1 6 10 8 12 9 6 3 5 5 3 6 7 8 26
15 17 18 20 22 22 24 24 27 26 28 30 31 33 34 33 30 19 10 8 8 8 9 11 5 5 2 4 4 5 5 9 5 7 12 16 5 14 4 6 6 5 3 12 30
18 18 19 21 23 23 26 29 30 29 27 30 31 31 32 26 6 7 2 5 6 9 11 8 6 6 5 2 5 5 10 5 9 10 10 17 8 7 6 6 9 7 5 10 13
18 20 20 22 23 25 28 31 33 33 29 28 29 29 26 7 6 2 3 4 3 5 7 5 4 4 4 7 7 8 12 7 7 11 8 14 15 8 9 11 9 10 6 10 12
20 22 23 23 25 27 32 32 34 35 31 28 25 23 12 3 11 17 12 7 6 5 6 3 3 3 6 5 7 13 13 14 12 9 7 10 9 12 9 12 12 9 7 13 16
19 22 23 26 27 29 33 37 37 36 32 27 23 14 2 8 8 5 3 11 12 7 6 5 6 6 5 7 8 7 9 9 5 5 6 11 13 4 5 11 11 9 12 11 14
20 21 24 27 29 32 35 39 40 33 30 26 17 6 5 20 8 9 18 13 12 13 4 5 4 4 2 5 2 4 7 8 3 3 5 8 17 7 9 8 9 13 19 12 11
17 21 23 27 29 33 37 40 33 30 30 19 5 7 9 15 17 25 17 17 12 14 18 16 12 4 3 3 8 5 6 7 4 3 5 2 24 8 6 9 13 15 18 19 12
20 22 23 26 31 33 37 34 32 24 13 5 6 6 11 13 8 11 11 6 7 8 9 18 3 5 2 1 4 3 11 10 9 8 7 8 21 4 9 9 13 15 17 19 17
19 21 22 25 30 35 34 29 9 9 7 4 2 2 9 4 1 13 8 6 0 5 5 4 2 4 1 4 11 7 7 5 8 4 3 8 16 8 7 7 10 17 15 16 10
19 20 22 25 29 31 32 10 7 4 7 7 6 7 12 9 17 3 6 8 2 2 5 3 3 7 20 10 13 4 5 12 8 14 4 11 12 12 8 11 15 19 15 12 16
19 19 21 24 26 17 22 7 9 11 12 15 22 22 35 20 9 21 7 6 6 10 5 5 12 17 5 9 10 10 13 17 15 13 9 13 16 18 7 11 16 21 19 16 8
19 20 20 21 20 10 15 19 25 28 5 14 11 10 10 18 16 29 7 4 5 6 11 12 8 8 11 10 10 14 12 12 16 7 6 5 16 10 10 9 14 19 16 17 10
19 20 18 21 4 20 3 28 29 21 4 8 6 8 8 9 8 15 19 9 6 10 8 11 15 17 13 11 12 19 6 13 10 6 12 7 14 15 14 16 12 15 15 15 7
19 18 15 11 15 9 17 27 23 2 5 3 4 7 8 8 5 4 19 5 8 6 6 8 4 8 15 17 11 18 8 12 12 7 1 4 3 19 6 18 18 14 16 17 9
16 15 14 10 10 11 21 26 5 1 8 7 0 2 3 8 5 6 5 3 5 6 8 8 3 4 6 7 5 4 5 3 2 2 8 4 5 21 6 10 14 17 19 18 9
14 14 13 7 5 18 20 10 2 4 9 3 11 11 16 7 5 4 4 9 6 4 5 8 10 5 5 7 11 6 4 3 3 2 13 5 8 17 9 15 12 17 18 20 20
14 15 16 15 14 12 10 3 5 3 7 18 16 14 5 10 8 4 3 8 8 4 5 5 8 5 1 6 7 8 9 7 5 8 12 4 6 5 4 7 10 12 19 19 18
16 13 12 19 7 6 2 4 5 7 7 12 18 7 5 16 11 8 2 3 7 8 8 3 6 3 2 2 3 5 5 11 6 3 5 5 14 11 19 7 12 13 18 24 7
11 6 11 12 6 6 2 7 7 4 13 8 7 6 12 16 9 12 5 12 6 8 5 3 2 4 4 5 5 3 4 1 1 4 12 5 6 8 5 11 14 14 20 26 11
5 3 4 10 9 2 5 6 7 9 14 7 12 13 14 15 4 5 5 7 13 9 7 4 2 5 3 4 5 6 5 5 2 4 7 5 5 5 6 4 11 17 19 15 15
1 2 2 9 2 2 7 6 6 11 13 12 10 15 20 6 5 1 4 4 8 8 4 3 3 2 6 7 2 1 2 4 2 6 4 5 11 7 5 6 10 12 21 17 13
1 2 12 6 2 4 4 10 12 13 12 8 12 10 18 4 4 3 1 5 7 7 6 5 3 3 6 3 7 7 2 6 4 1 3 4 6 11 8 5 10 6 16 17 17
1 2 4 1 2 3 6 8 6 7 5 9 13 14 18 7 3 5 6 1 7 5 4 2 2 4 5 2 3 7 12 9 2 2 4 7 12 17 16 3 4 9 19 12 18
2 3 3 3 3 3 6 6 13 9 10 6 7 12 9 5 2 5 5 8 6 8 2 3 6 5 6 6 6 11 15 14 13 12 7 9 15 16 11 6 5 6 13 17 14
3 1 2 3 5 6 8 6 12 18 4 5 3 15 8 3 3 4 3 2 1 5 4 4 3 3 5 5 10 16 16 14 18 17 16 17 18 9 10 11 6 2 3 10 9
6 5 0 5 3 3 3 10 8 7 6 9 7 5 9 5 2 3 3 4 5 1 2 2 2 3 9 6 9 12 15 14 17 16 11 15 10 3 5 6 9 7 7 8 10

GFSSW_925_spd_111.txt.gz
Wind_Speed
16 18 20 20 21 21 21 22 25 27 27 28 28 30 32 35 36 23 7 11 4 10 12 6 5 5 5 2 4 5 3 4 6 7 8 6 7 2 5 5 4 3 4 6 6
13 16 18 21 22 22 23 25 27 28 28 28 30 30 30 32 30 16 17 9 8 6 9 9 4 6 2 4 3 5 5 10 7 6 9 7 4 15 4 12 9 8 2 1 18
16 17 19 20 22 25 26 30 30 30 29 29 29 29 29 24 6 6 5 2 7 8 7 6 4 5 3 4 5 6 7 6 6 8 8 13 4 5 5 9 10 11 9 6 6
19 20 22 22 24 26 31 33 33 32 31 29 27 25 26 8 6 3 4 4 2 5 7 4 4 5 5 6 6 5 5 5 4 7 6 6 9 5 9 11 11 12 6 5 9
19 20 23 24 27 30 33 35 35 35 34 28 24 21 11 4 11 16 14 14 5 6 7 4 5 5 5 5 4 6 5 8 8 11 10 10 11 12 10 11 12 10 6 9 9
18 20 23 25 28 31 34 34 35 33 30 28 21 14 2 6 7 5 7 4 9 8 5 6 5 4 5 5 6 4 3 6 7 7 6 9 12 4 7 9 8 6 9 8 11
18 21 23 26 30 33 36 36 33 31 31 27 18 5 5 19 9 6 16 19 11 13 5 9 4 4 2 4 3 3 5 5 6 6 7 2 18 8 8 6 6 9 8 8 6
20 23 26 26 29 34 37 34 31 31 25 18 6 7 9 13 17 23 19 21 17 18 20 18 10 5 4 4 6 2 2 4 4 6 4 6 33 1 9 5 10 10 8 8 10
20 22 25 26 28 33 34 31 25 11 10 7 8 5 10 11 9 15 16 9 8 10 7 6 4 5 3 3 4 1 9 6 4 6 6 7 19 2 7 11 9 9 9 9 11
20 22 24 26 28 29 30 24 10 6 7 5 3 1 8 5 10 22 8 9 4 0 3 4 3 4 2 4 11 6 6 4 4 4 3 6 19 9 9 10 11 9 10 9 9
20 20 23 24 26 25 27 7 8 5 6 5 7 7 18 9 15 4 4 10 2 2 4 2 3 7 11 15 8 2 4 7 2 4 5 16 17 14 11 9 11 10 13 14 11
17 22 24 23 25 14 16 5 5 10 13 14 21 22 36 12 9 16 14 5 5 6 4 3 12 8 8 4 6 6 8 13 9 10 7 11 20 17 7 8 9 10 14 15 16
17 22 24 24 19 11 6 9 22 20 6 10 9 9 7 17 11 18 6 5 7 8 9 11 8 5 12 5 6 7 9 4 12 6 5 8 19 12 7 5 7 9 12 14 16
17 20 21 24 4 19 4 24 25 14 4 7 4 6 5 6 6 10 18 11 8 15 8 11 9 13 6 8 9 13 8 13 11 3 9 6 15 20 6 9 6 9 13 13 9
16 17 17 14 13 9 17 27 24 1 6 3 2 2 2 3 9 1 7 4 10 7 6 8 3 8 14 11 10 11 8 9 11 9 2 5 2 16 8 16 13 10 10 9 10
14 14 16 12 14 8 22 23 5 3 7 7 4 10 16 8 7 3 2 3 6 4 4 6 1 4 6 5 7 3 2 2 1 1 6 6 6 23 4 9 7 10 16 11 11
12 13 15 11 6 17 19 7 3 3 7 4 7 11 17 14 10 3 3 6 3 3 7 0 7 4 5 4 4 4 5 2 3 2 11 5 4 15 8 9 8 8 12 12 15
12 14 16 17 16 12 9 3 3 3 6 10 12 13 6 17 9 17 5 4 5 4 1 5 4 7 4 6 6 5 8 5 6 5 7 4 6 5 4 3 6 8 7 14 21
12 13 12 11 5 3 3 1 4 3 5 10 10 6 4 9 10 10 8 13 5 7 8 2 4 3 4 2 2 2 3 4 4 3 2 5 6 6 4 7 8 8 12 13 18
8 8 7 9 4 4 2 4 3 3 7 6 3 4 6 11 12 13 7 8 12 10 6 1 5 0 3 2 4 4 3 2 3 3 6 5 3 5 7 5 8 12 13 15 22
3 3 7 3 8 2 2 4 4 5 4 4 6 8 8 9 8 7 4 5 13 14 9 4 2 2 2 3 0 4 3 4 1 1 3 3 5 2 2 1 7 10 12 18 25
2 2 2 6 2 2 2 3 4 8 10 10 7 9 12 13 10 12 9 2 8 8 8 5 1 3 2 4 1 4 4 3 3 4 2 3 5 5 12 2 3 2 8 14 21
1 2 4 4 1 2 4 6 7 12 6 3 4 7 8 6 5 7 4 0 6 6 5 4 2 2 2 4 7 5 2 4 4 4 5 5 5 14 15 8 2 5 4 6 15
2 2 3 0 3 2 2 5 4 5 11 10 6 9 13 9 8 10 2 1 3 3 13 3 3 4 3 2 2 2 1 4 0 1 3 5 15 15 18 12 3 2 4 7 13
1 3 3 3 3 3 3 6 12 7 4 10 4 8 3 5 13 8 1 2 2 6 5 3 3 1 3 5 3 4 7 3 6 9 6 12 15 17 19 9 7 6 2 9 16
3 1 2 3 4 3 3 4 10 12 8 7 6 9 9 5 2 4 1 3 3 2 3 4 2 2 4 4 4 8 10 11 11 13 13 17 20 17 14 7 9 3 4 9 12
5 2 2 4 2 0 4 5 7 8 6 3 5 7 8 10 7 5 3 4 5 4 4 2 3 2 4 1 5 9 10 10 7 10 8 14 16 6 6 9 3 8 4 5 6

GFSSW_925_spd_114.txt.gz
Wind_Speed
16 17 18 20 21 22 23 23 25 27 26 26 27 27 28 30 34 25 8 17 7 12 14 9 9 9 5 3 3 3 3 5 7 7 6 3 5 2 2 4 4 4 3 7 7
16 18 20 20 21 22 24 26 29 26 26 26 26 26 26 29 27 15 12 12 9 6 12 11 6 8 3 4 3 4 5 11 7 6 6 3 3 11 4 6 7 7 6 6 4
16 18 20 21 22 24 26 28 29 27 26 26 25 23 24 21 6 5 9 3 6 10 6 8 6 6 4 3 5 5 6 5 5 8 6 4 3 5 3 6 8 12 12 0 5
19 19 19 21 23 25 29 32 31 29 28 25 23 22 20 6 6 3 4 7 2 4 3 5 4 5 5 6 6 5 7 7 5 7 3 6 2 5 8 10 12 10 7 5 7
17 19 22 24 25 28 32 34 33 31 29 25 20 17 8 3 10 14 20 19 8 3 5 4 4 5 5 5 5 5 4 7 8 9 8 5 12 13 7 10 11 10 6 9 8
18 20 24 26 27 29 34 35 33 32 30 29 19 8 2 4 7 7 7 4 3 8 5 7 5 5 4 5 6 4 5 6 6 8 6 7 9 4 6 5 8 8 9 6 7
18 21 25 26 30 30 34 33 34 33 29 23 13 6 4 18 10 16 17 19 17 9 4 9 6 5 1 3 4 4 6 5 5 6 7 4 7 9 10 6 6 7 8 8 9
19 22 26 29 30 32 34 32 33 23 18 16 3 8 7 12 13 21 18 22 23 18 18 14 9 3 4 5 5 2 1 2 3 5 5 9 15 3 3 5 10 10 8 7 9
21 24 26 30 28 31 32 33 27 10 12 8 6 2 10 9 8 9 10 9 11 17 15 8 6 6 2 4 4 2 7 7 4 5 2 7 12 5 5 9 8 8 9 10 10
21 23 28 32 28 31 28 29 13 2 5 2 3 2 6 6 7 19 10 6 4 5 3 5 2 4 2 4 11 6 5 4 4 2 2 6 14 8 9 7 10 9 9 10 12
20 23 27 30 28 24 26 10 7 5 8 4 14 9 20 17 16 6 2 11 2 2 7 5 4 7 10 12 9 1 4 5 1 3 5 14 19 10 8 6 9 9 8 10 14
18 23 27 28 23 18 16 6 5 8 13 12 24 17 29 20 9 14 13 3 5 8 4 1 10 8 9 8 6 6 5 13 4 6 5 8 18 11 9 7 9 8 9 10 11
16 22 25 27 8 20 7 9 22 15 6 11 5 5 5 7 5 11 10 6 7 6 7 12 7 5 9 5 8 6 8 4 8 2 5 5 10 4 5 3 5 7 7 9 13
16 19 21 24 4 19 4 24 25 5 4 7 3 2 1 4 5 6 8 5 6 14 9 11 7 13 6 10 11 14 10 11 10 3 4 3 9 5 5 2 3 9 9 9 10
15 16 17 16 8 8 14 27 23 3 5 5 2 2 6 3 12 2 6 5 10 5 6 9 6 9 14 15 11 6 7 8 5 5 2 4 3 4 7 9 6 7 8 8 8
13 14 15 12 11 6 21 23 3 3 6 8 5 13 15 8 11 9 3 2 6 9 9 5 3 6 9 6 15 3 4 3 2 3 3 8 6 14 2 4 3 4 7 6 8
12 15 15 11 6 16 19 5 4 3 7 7 8 12 14 11 8 13 6 3 2 3 6 3 9 4 4 3 3 4 5 1 2 1 4 6 4 14 7 6 2 3 6 7 6
14 16 15 10 12 8 7 4 2 1 4 8 10 14 6 13 6 13 10 8 7 11 4 3 3 7 5 9 7 6 8 5 5 4 3 1 5 5 2 3 3 1 5 7 11
13 12 7 11 6 4 4 2 2 4 5 9 10 4 5 9 8 10 8 5 6 8 5 4 3 3 5 3 2 4 4 3 3 1 2 4 5 5 5 8 9 10 9 9 11
10 7 8 7 5 5 4 2 3 4 5 4 3 6 6 9 9 13 5 4 9 8 7 5 4 4 2 3 6 2 2 3 2 3 5 3 2 1 9 8 8 9 8 9 12
5 3 8 7 2 4 3 3 3 5 6 4 4 5 5 7 4 5 7 6 6 11 10 4 4 5 1 4 0 1 2 4 4 2 1 2 3 4 5 5 8 9 7 8 13
2 3 6 5 2 1 1 2 5 3 4 7 5 7 6 4 4 4 6 7 4 3 6 3 2 3 3 7 3 4 3 3 3 3 2 1 5 5 4 5 8 10 10 8 8
2 2 5 2 2 2 4 4 4 5 5 4 4 4 3 3 5 5 4 5 7 4 2 5 4 4 1 2 5 6 3 4 4 3 4 3 5 4 15 16 9 11 9 6 9
3 3 3 2 2 1 2 4 4 6 6 8 8 7 8 5 8 5 3 7 7 5 12 2 4 4 4 3 0 2 1 3 5 3 2 5 12 19 10 13 14 13 7 4 5
2 1 1 2 3 2 3 4 10 5 4 3 4 9 7 5 3 9 5 12 7 4 3 1 6 3 4 4 3 3 4 6 7 6 5 13 9 19 12 17 16 16 2 2 6
3 2 1 3 3 3 3 3 10 10 4 5 5 11 5 6 7 3 1 5 5 2 2 1 3 1 7 3 5 5 7 10 8 10 8 16 20 20 18 17 16 12 5 3 7
3 0 3 3 2 0 3 3 8 13 8 9 9 5 7 10 9 14 11 6 6 5 3 2 2 2 5 2 4 7 16 13 7 9 9 11 18 7 13 14 6 2 3 5 6

GFSSW_925_spd_117.txt.gz
Wind_Speed
14 15 17 18 19 20 21 22 24 25 23 23 24 26 27 26 30 24 8 9 5 7 10 11 13 9 6 3 2 4 4 8 9 7 4 3 3 1 0 2 3 3 2 8 11
15 16 18 19 20 21 21 23 26 26 25 23 23 23 23 24 25 14 7 10 10 4 13 11 7 11 5 5 3 5 6 11 7 8 6 3 2 5 4 6 6 6 7 10 6
15 16 17 19 20 21 24 26 27 26 24 23 22 22 21 19 6 3 6 9 6 10 6 8 9 4 5 3 7 6 11 6 6 12 6 4 6 4 9 12 8 13 16 4 8
15 17 19 20 22 23 23 27 29 26 26 23 21 20 17 6 6 0 5 8 2 9 6 7 6 5 5 8 6 6 8 11 6 6 6 9 6 10 10 10 14 13 12 7 10
15 17 19 21 23 24 26 28 29 28 27 26 20 13 5 1 10 11 16 8 4 7 7 6 6 6 6 5 5 7 7 8 11 11 9 9 15 13 11 13 13 12 9 13 10
15 18 21 24 27 27 28 30 28 28 29 20 14 5 3 4 6 8 7 4 3 9 7 9 6 7 4 5 7 3 7 15 10 12 12 15 17 7 7 9 11 9 12 8 7
16 19 21 25 28 27 29 30 27 31 20 16 8 7 3 15 7 13 20 22 17 6 3 7 6 5 4 3 4 5 8 9 8 7 8 7 11 11 17 7 7 5 6 9 10
17 20 23 28 28 27 28 27 28 20 11 10 3 5 7 8 11 11 11 13 16 20 18 14 5 4 4 3 2 3 3 5 4 9 6 10 15 8 3 4 6 9 8 9 12
18 20 23 28 27 25 26 27 23 7 5 6 2 2 8 5 5 9 12 6 8 9 17 5 5 6 3 6 7 4 11 10 3 7 2 11 5 7 2 6 12 12 12 12 12
17 19 24 28 26 23 25 21 8 3 7 6 2 3 6 2 11 17 19 8 3 2 5 6 3 6 5 8 11 11 9 6 8 2 2 11 12 8 10 9 11 12 14 12 12
16 19 23 27 19 21 26 6 8 6 9 6 12 8 19 13 14 7 4 7 3 3 6 5 7 15 15 17 13 9 8 8 3 3 6 16 19 14 14 10 13 13 12 10 11
16 20 23 27 13 19 23 7 4 4 10 10 19 14 22 10 5 10 11 5 5 12 4 5 16 10 12 12 14 15 17 17 8 11 7 13 18 11 14 11 11 10 9 10 8
15 19 22 24 7 16 9 9 14 2 4 9 5 5 6 7 3 7 3 3 7 12 14 16 8 6 13 10 14 16 18 15 13 2 6 8 13 6 3 4 3 7 9 7 6
15 16 19 21 4 16 2 20 22 4 3 5 2 3 10 2 5 5 4 3 3 9 8 12 13 14 10 14 13 17 13 16 12 6 6 2 7 3 3 5 4 5 3 4 9
12 15 17 15 8 6 12 23 16 4 5 9 4 4 12 9 11 9 7 2 6 7 4 7 4 8 17 24 15 13 8 15 12 11 2 7 5 4 4 2 0 3 5 5 7
11 14 16 11 11 9 20 22 1 1 5 7 5 13 14 9 9 14 8 1 5 3 9 16 3 4 8 10 18 7 5 3 3 4 6 12 10 4 5 5 2 3 6 7 9
12 14 14 12 7 18 17 4 2 2 6 7 7 12 5 10 8 13 12 6 9 7 4 5 18 12 4 3 3 7 7 4 4 5 5 8 9 1 6 4 3 5 8 10 11
13 14 8 10 13 9 6 2 2 4 4 7 9 10 5 14 7 15 13 8 5 7 4 5 6 10 11 15 9 14 12 5 8 7 4 2 6 5 8 8 5 5 6 8 13
12 8 6 10 8 10 3 3 1 3 4 9 9 4 5 8 7 9 8 4 3 7 6 8 5 9 3 2 9 6 8 11 6 2 2 4 2 7 8 10 14 14 11 12 13
6 3 9 8 9 7 4 3 2 3 5 3 4 4 6 8 9 10 4 4 9 4 2 4 6 2 8 7 4 1 4 4 2 7 8 6 4 5 7 9 11 14 14 13 13
2 3 7 8 7 5 3 1 3 4 6 4 3 7 7 6 4 6 5 13 5 13 5 5 1 11 3 2 5 3 1 3 4 1 5 5 3 8 6 6 10 12 12 11 12
3 3 9 6 3 2 2 2 5 4 5 5 4 7 8 6 5 5 6 5 14 9 8 2 2 4 11 4 2 3 1 3 4 5 1 1 3 11 4 6 9 12 14 11 7
3 1 5 4 3 2 3 3 3 2 3 3 4 5 3 6 5 8 9 8 10 8 3 5 1 3 6 4 9 5 5 4 3 2 3 3 3 4 9 15 14 13 13 13 9
3 2 3 3 1 2 2 2 4 4 8 6 8 9 11 10 10 7 8 7 10 11 16 3 5 5 5 9 3 6 5 4 2 1 1 7 12 14 15 14 15 18 13 14 9
3 1 1 2 2 2 2 3 6 5 4 4 4 8 9 5 7 12 13 13 12 6 5 3 10 10 13 9 7 7 9 7 10 8 7 12 11 17 20 16 17 15 16 13 12
3 3 1 0 1 2 2 1 7 6 4 7 9 12 9 8 5 15 5 3 5 3 1 1 8 3 8 6 9 12 11 12 15 13 15 18 20 24 20 15 15 14 15 12 8
2 2 3 2 1 0 1 2 9 13 7 9 10 7 11 10 8 15 14 12 13 9 10 3 3 4 13 8 7 8 20 17 17 15 14 15 19 16 17 13 13 15 11 6 5

GFSSW_925_spd_120.txt.gz
Wind_Speed
12 14 15 16 17 18 18 19 20 21 21 21 22 23 22 24 28 14 12 9 4 8 10 9 14 13 13 13 11 7 10 16 19 16 14 5 10 8 3 7 2 5 6 6 7
11 12 14 16 18 19 20 20 21 21 20 21 22 21 21 22 22 18 9 10 13 8 11 18 16 16 12 14 8 14 15 22 18 15 9 6 8 9 7 10 11 12 10 9 8
10 12 14 16 18 19 19 20 22 21 21 21 21 21 18 16 9 1 0 8 3 9 8 12 11 16 17 12 15 13 22 16 9 16 14 14 13 14 14 17 15 14 11 7 9
11 13 15 17 19 20 21 21 22 21 20 24 21 17 11 5 7 2 5 4 1 8 6 10 12 16 14 18 18 16 15 17 14 14 15 17 17 17 17 18 13 13 13 10 11
11 13 16 18 20 23 23 23 23 22 22 21 16 11 3 5 10 4 11 9 5 7 13 12 14 15 17 12 19 20 19 17 15 18 19 19 21 22 21 13 16 18 15 14 12
11 15 17 20 24 24 24 23 22 21 26 14 11 4 4 9 2 3 3 6 5 12 14 14 9 13 12 15 16 11 13 16 17 18 18 18 21 21 16 13 14 15 15 15 13
13 16 19 23 25 25 25 22 22 24 16 10 8 6 6 13 3 8 12 13 16 13 13 20 18 12 5 13 16 15 18 18 18 17 16 14 21 23 19 18 18 15 12 9 9
13 16 19 22 26 23 24 24 25 14 6 5 0 4 7 5 8 7 2 8 9 16 20 12 10 14 18 13 11 12 17 17 15 18 21 18 20 7 6 5 11 8 8 10 11
13 15 19 23 21 22 22 25 8 4 3 1 2 4 6 4 6 11 8 13 14 9 13 9 10 13 11 15 15 18 18 19 16 9 12 17 13 6 4 7 9 9 11 11 10
11 15 19 21 17 21 24 8 6 2 4 4 4 8 4 12 23 21 18 16 9 2 7 12 8 12 14 14 19 18 18 17 19 15 16 18 18 14 10 12 12 13 13 12 11
10 14 17 19 13 18 21 3 4 3 6 6 12 6 11 20 11 8 10 8 11 9 11 14 14 22 22 20 20 19 19 19 17 9 13 18 18 14 12 17 16 15 14 12 10
11 14 16 19 8 13 13 7 5 5 7 3 4 8 10 8 6 14 7 3 6 16 14 11 21 20 19 20 20 22 22 24 19 9 13 19 22 20 14 18 16 14 11 8 5
11 12 15 14 6 10 16 10 5 2 5 3 1 5 12 4 8 16 6 6 9 13 17 22 11 11 16 17 20 21 23 18 18 13 15 17 21 21 14 14 10 9 5 1 1
9 13 16 10 5 7 4 10 10 7 4 4 2 5 14 14 4 10 12 7 4 8 12 17 17 17 11 15 17 19 16 16 16 10 14 11 10 8 9 9 11 6 4 3 0
10 12 14 12 4 3 6 13 5 6 4 4 4 5 14 12 12 12 18 5 10 10 9 12 8 14 19 23 16 16 11 10 15 16 18 16 8 11 7 15 10 7 5 3 2
8 10 12 6 4 5 14 11 5 5 1 3 5 12 18 12 11 14 10 7 11 12 14 15 17 11 12 13 16 19 13 10 11 11 15 17 14 10 15 17 8 8 7 4 4
8 9 7 6 7 15 11 4 4 3 4 5 7 12 16 13 9 13 14 8 7 7 9 13 15 16 16 14 7 13 12 8 9 10 16 11 11 14 9 7 7 7 5 3 6
8 6 7 8 10 12 7 4 2 4 5 6 11 13 7 11 8 13 12 11 1 10 11 8 8 0 7 17 13 17 17 10 12 14 16 10 9 7 10 9 8 5 2 4 5
6 4 8 9 11 9 5 3 5 4 4 9 14 6 3 8 8 8 11 13 5 7 9 9 9 4 7 5 17 15 16 20 14 9 8 8 8 8 10 10 8 6 4 6 7
5 6 7 10 12 6 1 5 2 3 6 5 5 2 9 11 9 9 7 6 8 6 11 6 11 4 2 11 6 13 12 14 10 17 21 18 17 9 16 10 7 8 8 7 8
5 3 5 9 6 3 4 4 1 1 6 4 5 9 9 10 7 10 6 13 5 11 13 11 8 14 7 4 4 5 8 5 8 15 16 16 13 14 16 8 4 6 9 9 10
2 2 7 9 3 3 4 2 2 4 4 4 7 9 10 10 11 11 12 10 15 13 14 7 7 10 12 4 6 8 5 3 4 14 11 8 4 13 11 4 4 6 8 8 11
2 2 6 5 3 3 2 1 1 2 3 3 5 7 11 14 8 7 11 11 15 15 7 10 4 8 12 8 6 5 7 2 1 6 9 9 8 10 6 6 8 9 12 9 12
2 3 4 5 3 4 2 2 4 3 9 6 9 11 11 13 13 10 15 10 14 19 18 12 10 10 12 8 8 5 7 10 6 4 5 10 8 6 7 10 10 14 13 12 13
3 3 3 3 3 3 1 1 1 6 3 8 6 7 12 7 13 14 12 15 19 12 12 6 13 14 15 16 14 13 15 13 12 12 11 13 14 13 15 15 16 14 14 14 14
3 3 2 3 3 3 3 2 3 7 4 6 6 17 13 13 14 15 15 14 8 3 5 4 8 11 15 16 14 16 16 17 17 16 17 18 18 19 14 10 12 15 14 15 13
2 4 2 3 3 3 3 3 4 9 4 5 8 14 13 10 17 20 19 18 17 16 13 9 7 10 14 11 13 13 17 17 20 17 15 15 19 18 16 16 16 16 15 14 8

GFSSW_925_spd_123.txt.gz
Wind_Speed
8 8 9 12 13 15 16 16 16 17 17 19 20 21 21 23 27 20 18 13 2 12 9 13 15 20 20 20 22 16 15 20 23 23 15 14 7 11 14 13 7 13 12 4 5
7 9 12 13 14 16 17 17 16 16 16 18 21 22 20 20 24 25 12 12 13 17 12 18 16 17 16 17 19 19 16 26 21 19 15 12 6 11 10 14 14 13 12 11 10
9 10 11 13 15 17 18 17 16 17 17 17 21 19 16 15 13 4 4 4 6 5 12 14 19 17 21 20 21 22 25 22 19 19 14 17 14 15 16 17 15 16 17 16 11
9 10 13 14 16 18 19 18 16 17 18 19 21 16 11 8 6 7 2 6 6 4 10 13 16 18 22 24 23 26 25 22 22 23 11 20 22 20 19 20 19 18 13 11 12
8 11 14 16 18 20 21 20 19 18 18 19 16 13 7 7 16 3 7 9 8 10 13 12 15 17 23 20 22 25 23 23 20 19 21 20 23 23 25 20 17 18 19 15 15
8 12 15 17 19 21 19 19 19 20 21 17 10 7 8 15 5 4 5 8 11 11 18 17 15 16 20 20 23 20 21 25 22 26 21 23 25 24 25 21 21 20 22 19 18
10 13 15 18 21 19 20 20 22 23 15 6 6 5 10 15 12 11 13 15 15 16 16 18 21 19 13 19 21 22 23 23 22 20 19 18 27 29 23 23 23 22 17 17 16
11 13 16 18 19 19 19 22 21 9 3 2 2 7 7 6 9 6 5 11 5 10 18 22 19 20 23 21 26 18 20 22 22 24 24 20 30 23 23 20 23 22 20 14 14
12 13 17 19 17 19 19 21 9 5 3 2 4 5 5 3 3 16 18 20 19 19 9 15 14 18 17 20 20 21 23 24 22 20 18 19 29 22 24 14 15 12 14 16 14
10 14 17 18 14 18 18 11 7 1 2 3 6 6 2 10 20 15 12 12 15 14 8 11 11 16 17 16 21 19 22 22 23 19 16 19 26 17 14 14 13 15 14 12 13
11 13 15 17 13 17 18 6 5 6 4 4 5 3 9 16 6 6 11 7 12 12 14 15 14 19 21 23 26 24 24 24 22 14 15 22 18 20 20 18 17 17 14 14 15
9 12 13 15 8 14 7 4 5 5 4 3 2 3 5 7 8 10 12 5 7 13 15 15 19 17 20 23 24 25 24 26 24 21 17 18 22 20 21 17 16 19 17 16 13
7 10 13 11 2 5 12 6 4 4 6 6 2 4 9 10 6 14 14 11 11 12 14 21 23 11 15 20 24 24 25 23 24 19 15 20 24 24 26 23 20 18 17 11 6
6 9 11 1 3 2 2 7 7 4 5 8 4 3 10 15 5 17 15 11 12 13 13 15 15 21 24 20 18 21 20 23 22 17 18 22 21 23 21 20 20 19 13 9 10
6 8 9 3 5 0 4 8 4 4 5 4 6 5 13 6 14 8 20 9 15 16 13 19 20 12 19 22 20 22 16 14 13 16 19 24 16 17 12 15 12 15 12 10 6
6 7 4 3 3 3 8 6 4 6 2 4 2 7 13 13 12 9 14 13 16 20 17 24 21 19 19 17 17 20 23 19 15 15 16 27 22 19 15 18 18 14 12 9 7
5 5 4 3 4 9 7 6 6 3 1 4 5 10 15 9 12 11 17 13 12 12 16 20 19 17 21 19 17 15 14 11 10 12 20 20 20 17 10 15 19 16 11 6 5
3 3 3 4 7 9 5 5 4 6 5 6 9 15 9 9 8 14 14 13 13 9 12 15 17 7 9 15 16 20 17 12 15 13 16 24 16 16 22 7 11 11 8 5 4
4 1 0 5 9 7 5 3 6 5 4 8 14 7 4 7 10 14 11 15 10 10 13 13 19 7 7 8 10 12 15 20 22 20 10 10 15 6 9 14 11 11 9 4 3
3 5 3 9 9 7 2 4 1 3 6 6 7 3 11 14 12 11 11 9 11 11 13 16 19 18 19 10 12 7 14 10 8 6 19 15 14 8 17 15 13 11 7 4 1
6 3 4 9 6 1 2 5 2 1 5 5 8 12 14 15 12 13 13 12 10 10 13 17 17 19 21 14 11 1 11 13 11 10 12 15 13 16 18 15 13 10 3 1 5
3 2 6 7 1 1 4 3 0 2 1 3 6 10 11 13 15 17 18 16 14 13 16 17 8 12 20 11 4 6 5 2 6 17 14 16 8 16 20 14 11 8 2 3 6
2 3 3 6 2 3 4 3 1 2 2 3 8 9 11 15 16 13 15 12 12 14 9 10 6 9 14 15 9 2 3 1 6 3 10 13 5 11 9 14 10 3 3 5 7
1 3 2 3 4 6 3 2 1 1 6 5 9 12 12 14 14 9 15 10 11 15 17 8 15 16 12 15 5 14 7 10 7 7 8 8 7 2 6 13 1 4 7 8 8
2 0 2 4 3 4 2 4 2 3 2 7 5 6 14 8 15 13 16 17 18 20 12 13 16 17 18 22 21 17 16 11 10 13 14 16 6 11 14 9 9 9 8 11 10
2 3 3 6 5 4 3 3 1 4 1 5 7 13 13 10 7 15 19 17 11 13 10 8 8 16 17 18 21 21 20 15 15 14 17 18 19 14 14 7 10 12 12 13 13
1 1 2 3 4 5 4 3 2 4 4 4 6 11 13 14 19 21 20 19 18 17 16 14 12 12 15 16 13 14 17 18 18 16 14 16 17 16 14 13 13 15 15 16 15